<?xml version='1.0' encoding='UTF-8'?>
<gpx version="1.1" creator="https://www.komoot.de" xmlns="http://www.topografix.com/GPX/1/1" xmlns:xsi="http://www.w3.org/2001/XMLSchema-instance" xsi:schemaLocation="http://www.topografix.com/GPX/1/1 http://www.topografix.com/GPX/1/1/gpx.xsd">
  <metadata>
    <name>72_1140SulzchopfBrezwil</name>
    <author>
      <link href="https://www.komoot.de">
        <text>komoot</text>
        <type>text/html</type>
      </link>
    </author>
  </metadata>
  <trk>
    <name>72_1140SulzchopfBrezwil</name>
    <trkseg>
      <trkpt lat="47.541410" lon="7.870791">
        <ele>339.095432</ele>
        <time>2021-11-20T22:11:29.007Z</time>
      </trkpt>
      <trkpt lat="47.541576" lon="7.870664">
        <ele>339.095432</ele>
        <time>2021-11-20T22:11:31.520Z</time>
      </trkpt>
      <trkpt lat="47.541550" lon="7.870601">
        <ele>339.095432</ele>
        <time>2021-11-20T22:11:32.331Z</time>
      </trkpt>
      <trkpt lat="47.541521" lon="7.870517">
        <ele>339.095432</ele>
        <time>2021-11-20T22:11:33.388Z</time>
      </trkpt>
      <trkpt lat="47.541606" lon="7.870424">
        <ele>339.095432</ele>
        <time>2021-11-20T22:11:35.096Z</time>
      </trkpt>
      <trkpt lat="47.541910" lon="7.870106">
        <ele>339.095432</ele>
        <time>2021-11-20T22:11:40.938Z</time>
      </trkpt>
      <trkpt lat="47.542014" lon="7.870126">
        <ele>339.095432</ele>
        <time>2021-11-20T22:11:42.467Z</time>
      </trkpt>
      <trkpt lat="47.542118" lon="7.870135">
        <ele>339.009671</ele>
        <time>2021-11-20T22:11:44.224Z</time>
      </trkpt>
      <trkpt lat="47.542181" lon="7.870131">
        <ele>338.948162</ele>
        <time>2021-11-20T22:11:45.112Z</time>
      </trkpt>
      <trkpt lat="47.542317" lon="7.870012">
        <ele>338.794089</ele>
        <time>2021-11-20T22:11:47.297Z</time>
      </trkpt>
      <trkpt lat="47.542348" lon="7.869983">
        <ele>338.758325</ele>
        <time>2021-11-20T22:11:47.745Z</time>
      </trkpt>
      <trkpt lat="47.542329" lon="7.869820">
        <ele>338.649407</ele>
        <time>2021-11-20T22:11:49.544Z</time>
      </trkpt>
      <trkpt lat="47.542372" lon="7.869746">
        <ele>338.585114</ele>
        <time>2021-11-20T22:11:50.369Z</time>
      </trkpt>
      <trkpt lat="47.542657" lon="7.869354">
        <ele>338.205760</ele>
        <time>2021-11-20T22:11:55.228Z</time>
      </trkpt>
      <trkpt lat="47.542696" lon="7.869257">
        <ele>338.131418</ele>
        <time>2021-11-20T22:11:56.163Z</time>
      </trkpt>
      <trkpt lat="47.542722" lon="7.869201">
        <ele>338.086665</ele>
        <time>2021-11-20T22:11:56.754Z</time>
      </trkpt>
      <trkpt lat="47.543049" lon="7.868759">
        <ele>337.654872</ele>
        <time>2021-11-20T22:12:01.666Z</time>
      </trkpt>
      <trkpt lat="47.543105" lon="7.868711">
        <ele>337.591762</ele>
        <time>2021-11-20T22:12:02.405Z</time>
      </trkpt>
      <trkpt lat="47.543201" lon="7.868657">
        <ele>337.491597</ele>
        <time>2021-11-20T22:12:03.484Z</time>
      </trkpt>
      <trkpt lat="47.543657" lon="7.868359">
        <ele>336.905377</ele>
        <time>2021-11-20T22:12:09.279Z</time>
      </trkpt>
      <trkpt lat="47.543801" lon="7.868269">
        <ele>336.707459</ele>
        <time>2021-11-20T22:12:11.759Z</time>
      </trkpt>
      <trkpt lat="47.544214" lon="7.867988">
        <ele>336.131937</ele>
        <time>2021-11-20T22:12:19.375Z</time>
      </trkpt>
      <trkpt lat="47.544246" lon="7.867967">
        <ele>336.087616</ele>
        <time>2021-11-20T22:12:19.972Z</time>
      </trkpt>
      <trkpt lat="47.544410" lon="7.867825">
        <ele>335.847065</ele>
        <time>2021-11-20T22:12:23.225Z</time>
      </trkpt>
      <trkpt lat="47.544469" lon="7.867776">
        <ele>335.761411</ele>
        <time>2021-11-20T22:12:24.247Z</time>
      </trkpt>
      <trkpt lat="47.544568" lon="7.867693">
        <ele>335.617359</ele>
        <time>2021-11-20T22:12:26.174Z</time>
      </trkpt>
      <trkpt lat="47.545003" lon="7.867278">
        <ele>335.116131</ele>
        <time>2021-11-20T22:12:35.022Z</time>
      </trkpt>
      <trkpt lat="47.545160" lon="7.866985">
        <ele>335.283343</ele>
        <time>2021-11-20T22:12:39.673Z</time>
      </trkpt>
      <trkpt lat="47.545240" lon="7.866887">
        <ele>335.352082</ele>
        <time>2021-11-20T22:12:41.946Z</time>
      </trkpt>
      <trkpt lat="47.546096" lon="7.866147">
        <ele>336.008353</ele>
        <time>2021-11-20T22:13:07.016Z</time>
      </trkpt>
      <trkpt lat="47.546327" lon="7.865959">
        <ele>336.182877</ele>
        <time>2021-11-20T22:13:13.437Z</time>
      </trkpt>
      <trkpt lat="47.546510" lon="7.865766">
        <ele>336.262695</ele>
        <time>2021-11-20T22:13:19.823Z</time>
      </trkpt>
      <trkpt lat="47.546819" lon="7.865489">
        <ele>336.288698</ele>
        <time>2021-11-20T22:13:27.976Z</time>
      </trkpt>
      <trkpt lat="47.546889" lon="7.865225">
        <ele>336.302483</ele>
        <time>2021-11-20T22:13:31.763Z</time>
      </trkpt>
      <trkpt lat="47.546894" lon="7.864837">
        <ele>336.321343</ele>
        <time>2021-11-20T22:13:36.940Z</time>
      </trkpt>
      <trkpt lat="47.546885" lon="7.864500">
        <ele>336.337733</ele>
        <time>2021-11-20T22:13:42.579Z</time>
      </trkpt>
      <trkpt lat="47.546974" lon="7.864423">
        <ele>336.345154</ele>
        <time>2021-11-20T22:13:44.167Z</time>
      </trkpt>
      <trkpt lat="47.547320" lon="7.863864">
        <ele>336.382014</ele>
        <time>2021-11-20T22:13:54.092Z</time>
      </trkpt>
      <trkpt lat="47.547568" lon="7.863151">
        <ele>335.557364</ele>
        <time>2021-11-20T22:14:03.105Z</time>
      </trkpt>
      <trkpt lat="47.547930" lon="7.861711">
        <ele>333.898669</ele>
        <time>2021-11-20T22:14:19.479Z</time>
      </trkpt>
      <trkpt lat="47.548049" lon="7.860929">
        <ele>333.153116</ele>
        <time>2021-11-20T22:14:28.178Z</time>
      </trkpt>
      <trkpt lat="47.548334" lon="7.859801">
        <ele>332.181473</ele>
        <time>2021-11-20T22:14:41.660Z</time>
      </trkpt>
      <trkpt lat="47.548611" lon="7.858381">
        <ele>331.313919</ele>
        <time>2021-11-20T22:14:59.616Z</time>
      </trkpt>
      <trkpt lat="47.548686" lon="7.857973">
        <ele>331.273461</ele>
        <time>2021-11-20T22:15:05.005Z</time>
      </trkpt>
      <trkpt lat="47.548701" lon="7.857893">
        <ele>331.265517</ele>
        <time>2021-11-20T22:15:06.126Z</time>
      </trkpt>
      <trkpt lat="47.548743" lon="7.857692">
        <ele>331.245386</ele>
        <time>2021-11-20T22:15:08.900Z</time>
      </trkpt>
      <trkpt lat="47.548887" lon="7.857308">
        <ele>331.203357</ele>
        <time>2021-11-20T22:15:14.933Z</time>
      </trkpt>
      <trkpt lat="47.549362" lon="7.855774">
        <ele>331.321023</ele>
        <time>2021-11-20T22:15:38.978Z</time>
      </trkpt>
      <trkpt lat="47.549566" lon="7.855225">
        <ele>331.536383</ele>
        <time>2021-11-20T22:15:48.271Z</time>
      </trkpt>
      <trkpt lat="47.549883" lon="7.854434">
        <ele>331.852508</ele>
        <time>2021-11-20T22:16:02.612Z</time>
      </trkpt>
      <trkpt lat="47.550221" lon="7.853833">
        <ele>332.091923</ele>
        <time>2021-11-20T22:16:12.092Z</time>
      </trkpt>
      <trkpt lat="47.549708" lon="7.853279">
        <ele>332.322753</ele>
        <time>2021-11-20T22:16:25.999Z</time>
      </trkpt>
      <trkpt lat="47.549285" lon="7.852784">
        <ele>332.518756</ele>
        <time>2021-11-20T22:16:37.424Z</time>
      </trkpt>
      <trkpt lat="47.549535" lon="7.852225">
        <ele>332.653052</ele>
        <time>2021-11-20T22:16:47.128Z</time>
      </trkpt>
      <trkpt lat="47.549652" lon="7.851969">
        <ele>332.517779</ele>
        <time>2021-11-20T22:16:51.528Z</time>
      </trkpt>
      <trkpt lat="47.550009" lon="7.851173">
        <ele>332.099619</ele>
        <time>2021-11-20T22:17:03.892Z</time>
      </trkpt>
      <trkpt lat="47.550333" lon="7.850434">
        <ele>331.714052</ele>
        <time>2021-11-20T22:17:14.156Z</time>
      </trkpt>
      <trkpt lat="47.550488" lon="7.850081">
        <ele>331.529795</ele>
        <time>2021-11-20T22:17:18.854Z</time>
      </trkpt>
      <trkpt lat="47.550728" lon="7.849532">
        <ele>330.915709</ele>
        <time>2021-11-20T22:17:26.144Z</time>
      </trkpt>
      <trkpt lat="47.550810" lon="7.849346">
        <ele>330.697256</ele>
        <time>2021-11-20T22:17:28.584Z</time>
      </trkpt>
      <trkpt lat="47.550975" lon="7.849066">
        <ele>330.331760</ele>
        <time>2021-11-20T22:17:32.841Z</time>
      </trkpt>
      <trkpt lat="47.551242" lon="7.848702">
        <ele>329.803163</ele>
        <time>2021-11-20T22:17:37.084Z</time>
      </trkpt>
      <trkpt lat="47.551669" lon="7.848083">
        <ele>328.932846</ele>
        <time>2021-11-20T22:17:43.918Z</time>
      </trkpt>
      <trkpt lat="47.551196" lon="7.847517">
        <ele>328.012126</ele>
        <time>2021-11-20T22:17:50.779Z</time>
      </trkpt>
      <trkpt lat="47.551184" lon="7.847206">
        <ele>327.693066</ele>
        <time>2021-11-20T22:17:53.149Z</time>
      </trkpt>
      <trkpt lat="47.551205" lon="7.846694">
        <ele>327.167685</ele>
        <time>2021-11-20T22:17:57.077Z</time>
      </trkpt>
      <trkpt lat="47.551344" lon="7.844621">
        <ele>325.404450</ele>
        <time>2021-11-20T22:18:13.692Z</time>
      </trkpt>
      <trkpt lat="47.551454" lon="7.842815">
        <ele>324.187330</ele>
        <time>2021-11-20T22:18:28.878Z</time>
      </trkpt>
      <trkpt lat="47.551454" lon="7.842816">
        <ele>324.186755</ele>
        <time>2021-11-20T22:18:28.884Z</time>
      </trkpt>
      <trkpt lat="47.551454" lon="7.842815">
        <ele>324.186181</ele>
        <time>2021-11-20T22:18:28.941Z</time>
      </trkpt>
      <trkpt lat="47.551668" lon="7.842770">
        <ele>324.002091</ele>
        <time>2021-11-20T22:18:33.017Z</time>
      </trkpt>
      <trkpt lat="47.551922" lon="7.842704">
        <ele>323.782459</ele>
        <time>2021-11-20T22:18:37.660Z</time>
      </trkpt>
      <trkpt lat="47.552380" lon="7.842592">
        <ele>323.387105</ele>
        <time>2021-11-20T22:18:46.095Z</time>
      </trkpt>
      <trkpt lat="47.552833" lon="7.842495">
        <ele>322.997279</ele>
        <time>2021-11-20T22:18:54.072Z</time>
      </trkpt>
      <trkpt lat="47.553133" lon="7.842431">
        <ele>322.692286</ele>
        <time>2021-11-20T22:18:59.322Z</time>
      </trkpt>
      <trkpt lat="47.553123" lon="7.842222">
        <ele>322.472481</ele>
        <time>2021-11-20T22:19:00.903Z</time>
      </trkpt>
      <trkpt lat="47.553216" lon="7.841849">
        <ele>322.055333</ele>
        <time>2021-11-20T22:19:04.114Z</time>
      </trkpt>
      <trkpt lat="47.553231" lon="7.841529">
        <ele>321.718824</ele>
        <time>2021-11-20T22:19:06.605Z</time>
      </trkpt>
      <trkpt lat="47.552939" lon="7.839526">
        <ele>319.581426</ele>
        <time>2021-11-20T22:19:22.084Z</time>
      </trkpt>
      <trkpt lat="47.552802" lon="7.839009">
        <ele>319.015431</ele>
        <time>2021-11-20T22:19:26.404Z</time>
      </trkpt>
      <trkpt lat="47.552736" lon="7.838578">
        <ele>318.565062</ele>
        <time>2021-11-20T22:19:29.870Z</time>
      </trkpt>
      <trkpt lat="47.552697" lon="7.838068">
        <ele>318.042027</ele>
        <time>2021-11-20T22:19:33.894Z</time>
      </trkpt>
      <trkpt lat="47.552699" lon="7.837982">
        <ele>317.954337</ele>
        <time>2021-11-20T22:19:34.539Z</time>
      </trkpt>
      <trkpt lat="47.552719" lon="7.836790">
        <ele>316.648892</ele>
        <time>2021-11-20T22:19:43.901Z</time>
      </trkpt>
      <trkpt lat="47.552714" lon="7.835010">
        <ele>314.534262</ele>
        <time>2021-11-20T22:19:57.694Z</time>
      </trkpt>
      <trkpt lat="47.552700" lon="7.833938">
        <ele>312.738873</ele>
        <time>2021-11-20T22:20:05.267Z</time>
      </trkpt>
      <trkpt lat="47.552696" lon="7.833789">
        <ele>312.454010</ele>
        <time>2021-11-20T22:20:06.265Z</time>
      </trkpt>
      <trkpt lat="47.552452" lon="7.833284">
        <ele>311.267566</ele>
        <time>2021-11-20T22:20:10.589Z</time>
      </trkpt>
      <trkpt lat="47.552467" lon="7.833198">
        <ele>311.097881</ele>
        <time>2021-11-20T22:20:11.202Z</time>
      </trkpt>
      <trkpt lat="47.552511" lon="7.833072">
        <ele>310.826869</ele>
        <time>2021-11-20T22:20:12.208Z</time>
      </trkpt>
      <trkpt lat="47.552556" lon="7.832977">
        <ele>310.605151</ele>
        <time>2021-11-20T22:20:13.024Z</time>
      </trkpt>
      <trkpt lat="47.552616" lon="7.832891">
        <ele>310.368863</ele>
        <time>2021-11-20T22:20:13.830Z</time>
      </trkpt>
      <trkpt lat="47.552690" lon="7.832598">
        <ele>309.771232</ele>
        <time>2021-11-20T22:20:16.031Z</time>
      </trkpt>
      <trkpt lat="47.552645" lon="7.830686">
        <ele>306.183352</ele>
        <time>2021-11-20T22:20:29.154Z</time>
      </trkpt>
      <trkpt lat="47.552554" lon="7.829266">
        <ele>303.769377</ele>
        <time>2021-11-20T22:20:39.440Z</time>
      </trkpt>
      <trkpt lat="47.552416" lon="7.828822">
        <ele>303.282623</ele>
        <time>2021-11-20T22:20:43.104Z</time>
      </trkpt>
      <trkpt lat="47.552404" lon="7.828582">
        <ele>303.042981</ele>
        <time>2021-11-20T22:20:45.019Z</time>
      </trkpt>
      <trkpt lat="47.552421" lon="7.828481">
        <ele>302.939327</ele>
        <time>2021-11-20T22:20:45.774Z</time>
      </trkpt>
      <trkpt lat="47.552477" lon="7.828294">
        <ele>302.735610</ele>
        <time>2021-11-20T22:20:47.350Z</time>
      </trkpt>
      <trkpt lat="47.552515" lon="7.828094">
        <ele>302.528713</ele>
        <time>2021-11-20T22:20:49.068Z</time>
      </trkpt>
      <trkpt lat="47.552491" lon="7.827227">
        <ele>301.664650</ele>
        <time>2021-11-20T22:20:55.976Z</time>
      </trkpt>
      <trkpt lat="47.552567" lon="7.824508">
        <ele>300.260499</ele>
        <time>2021-11-20T22:21:19.824Z</time>
      </trkpt>
      <trkpt lat="47.552896" lon="7.820699">
        <ele>298.367755</ele>
        <time>2021-11-20T22:21:52.562Z</time>
      </trkpt>
      <trkpt lat="47.552948" lon="7.819358">
        <ele>297.762471</ele>
        <time>2021-11-20T22:22:04.102Z</time>
      </trkpt>
      <trkpt lat="47.552844" lon="7.816432">
        <ele>297.323096</ele>
        <time>2021-11-20T22:22:31.736Z</time>
      </trkpt>
      <trkpt lat="47.552711" lon="7.812955">
        <ele>298.600073</ele>
        <time>2021-11-20T22:23:12.390Z</time>
      </trkpt>
      <trkpt lat="47.552566" lon="7.810386">
        <ele>299.723506</ele>
        <time>2021-11-20T22:23:42.422Z</time>
      </trkpt>
      <trkpt lat="47.552398" lon="7.808880">
        <ele>300.409967</ele>
        <time>2021-11-20T22:24:00.903Z</time>
      </trkpt>
      <trkpt lat="47.552068" lon="7.806445">
        <ele>300.826345</ele>
        <time>2021-11-20T22:24:29.243Z</time>
      </trkpt>
      <trkpt lat="47.552015" lon="7.806307">
        <ele>300.841688</ele>
        <time>2021-11-20T22:24:30.966Z</time>
      </trkpt>
      <trkpt lat="47.551895" lon="7.806278">
        <ele>300.859095</ele>
        <time>2021-11-20T22:24:32.275Z</time>
      </trkpt>
      <trkpt lat="47.551651" lon="7.806246">
        <ele>300.879465</ele>
        <time>2021-11-20T22:24:36.037Z</time>
      </trkpt>
      <trkpt lat="47.551671" lon="7.806117">
        <ele>300.799283</ele>
        <time>2021-11-20T22:24:37.351Z</time>
      </trkpt>
      <trkpt lat="47.551681" lon="7.805477">
        <ele>300.411473</ele>
        <time>2021-11-20T22:24:45.050Z</time>
      </trkpt>
      <trkpt lat="47.551709" lon="7.805000">
        <ele>300.121420</ele>
        <time>2021-11-20T22:24:50.689Z</time>
      </trkpt>
      <trkpt lat="47.551731" lon="7.804667">
        <ele>299.918728</ele>
        <time>2021-11-20T22:24:55.274Z</time>
      </trkpt>
      <trkpt lat="47.551744" lon="7.804473">
        <ele>299.800627</ele>
        <time>2021-11-20T22:24:57.250Z</time>
      </trkpt>
      <trkpt lat="47.551741" lon="7.804294">
        <ele>299.692157</ele>
        <time>2021-11-20T22:24:59.301Z</time>
      </trkpt>
      <trkpt lat="47.551692" lon="7.803510">
        <ele>299.211669</ele>
        <time>2021-11-20T22:25:08.668Z</time>
      </trkpt>
      <trkpt lat="47.551751" lon="7.803369">
        <ele>299.105519</ele>
        <time>2021-11-20T22:25:10.321Z</time>
      </trkpt>
      <trkpt lat="47.551744" lon="7.803277">
        <ele>299.046280</ele>
        <time>2021-11-20T22:25:10.964Z</time>
      </trkpt>
      <trkpt lat="47.551732" lon="7.803125">
        <ele>298.948360</ele>
        <time>2021-11-20T22:25:13.036Z</time>
      </trkpt>
      <trkpt lat="47.551700" lon="7.802648">
        <ele>298.641648</ele>
        <time>2021-11-20T22:25:16.976Z</time>
      </trkpt>
      <trkpt lat="47.551688" lon="7.802394">
        <ele>298.478729</ele>
        <time>2021-11-20T22:25:19.857Z</time>
      </trkpt>
      <trkpt lat="47.551679" lon="7.802228">
        <ele>298.372172</ele>
        <time>2021-11-20T22:25:21.016Z</time>
      </trkpt>
      <trkpt lat="47.551671" lon="7.802077">
        <ele>298.275258</ele>
        <time>2021-11-20T22:25:23.365Z</time>
      </trkpt>
      <trkpt lat="47.551669" lon="7.801853">
        <ele>298.131919</ele>
        <time>2021-11-20T22:25:25.530Z</time>
      </trkpt>
      <trkpt lat="47.551666" lon="7.801632">
        <ele>297.990484</ele>
        <time>2021-11-20T22:25:27.203Z</time>
      </trkpt>
      <trkpt lat="47.551669" lon="7.801438">
        <ele>297.866321</ele>
        <time>2021-11-20T22:25:29.094Z</time>
      </trkpt>
      <trkpt lat="47.551672" lon="7.801147">
        <ele>297.680103</ele>
        <time>2021-11-20T22:25:31.225Z</time>
      </trkpt>
      <trkpt lat="47.551704" lon="7.800451">
        <ele>296.544442</ele>
        <time>2021-11-20T22:25:36.924Z</time>
      </trkpt>
      <trkpt lat="47.551712" lon="7.800249">
        <ele>296.151587</ele>
        <time>2021-11-20T22:25:38.403Z</time>
      </trkpt>
      <trkpt lat="47.551754" lon="7.799766">
        <ele>295.206100</ele>
        <time>2021-11-20T22:25:41.753Z</time>
      </trkpt>
      <trkpt lat="47.551793" lon="7.799434">
        <ele>294.551838</ele>
        <time>2021-11-20T22:25:44.054Z</time>
      </trkpt>
      <trkpt lat="47.551805" lon="7.799326">
        <ele>294.339335</ele>
        <time>2021-11-20T22:25:44.776Z</time>
      </trkpt>
      <trkpt lat="47.551948" lon="7.798607">
        <ele>292.884065</ele>
        <time>2021-11-20T22:25:49.920Z</time>
      </trkpt>
      <trkpt lat="47.552084" lon="7.798083">
        <ele>291.607657</ele>
        <time>2021-11-20T22:25:53.598Z</time>
      </trkpt>
      <trkpt lat="47.552152" lon="7.797876">
        <ele>291.022841</ele>
        <time>2021-11-20T22:25:55.061Z</time>
      </trkpt>
      <trkpt lat="47.552493" lon="7.797048">
        <ele>288.558837</ele>
        <time>2021-11-20T22:26:01.288Z</time>
      </trkpt>
      <trkpt lat="47.552762" lon="7.796425">
        <ele>286.680104</ele>
        <time>2021-11-20T22:26:06.231Z</time>
      </trkpt>
      <trkpt lat="47.552817" lon="7.796239">
        <ele>286.164260</ele>
        <time>2021-11-20T22:26:07.663Z</time>
      </trkpt>
      <trkpt lat="47.552886" lon="7.795976">
        <ele>285.554227</ele>
        <time>2021-11-20T22:26:09.656Z</time>
      </trkpt>
      <trkpt lat="47.552894" lon="7.795905">
        <ele>285.479005</ele>
        <time>2021-11-20T22:26:10.161Z</time>
      </trkpt>
      <trkpt lat="47.552930" lon="7.795600">
        <ele>285.155443</ele>
        <time>2021-11-20T22:26:12.588Z</time>
      </trkpt>
      <trkpt lat="47.552917" lon="7.795354">
        <ele>284.897586</ele>
        <time>2021-11-20T22:26:14.421Z</time>
      </trkpt>
      <trkpt lat="47.552909" lon="7.795229">
        <ele>284.766375</ele>
        <time>2021-11-20T22:26:15.491Z</time>
      </trkpt>
      <trkpt lat="47.552892" lon="7.795106">
        <ele>284.635172</ele>
        <time>2021-11-20T22:26:16.423Z</time>
      </trkpt>
      <trkpt lat="47.552861" lon="7.794992">
        <ele>284.506736</ele>
        <time>2021-11-20T22:26:17.303Z</time>
      </trkpt>
      <trkpt lat="47.552837" lon="7.794925">
        <ele>284.427470</ele>
        <time>2021-11-20T22:26:17.865Z</time>
      </trkpt>
      <trkpt lat="47.552826" lon="7.794894">
        <ele>284.390871</ele>
        <time>2021-11-20T22:26:18.110Z</time>
      </trkpt>
      <trkpt lat="47.552786" lon="7.794796">
        <ele>284.271189</ele>
        <time>2021-11-20T22:26:18.948Z</time>
      </trkpt>
      <trkpt lat="47.552763" lon="7.794750">
        <ele>284.211365</ele>
        <time>2021-11-20T22:26:19.638Z</time>
      </trkpt>
      <trkpt lat="47.552644" lon="7.794507">
        <ele>283.897624</ele>
        <time>2021-11-20T22:26:21.900Z</time>
      </trkpt>
      <trkpt lat="47.552532" lon="7.794285">
        <ele>283.607981</ele>
        <time>2021-11-20T22:26:24.086Z</time>
      </trkpt>
      <trkpt lat="47.552494" lon="7.794200">
        <ele>283.501436</ele>
        <time>2021-11-20T22:26:24.907Z</time>
      </trkpt>
      <trkpt lat="47.552384" lon="7.793915">
        <ele>283.158347</ele>
        <time>2021-11-20T22:26:27.559Z</time>
      </trkpt>
      <trkpt lat="47.552369" lon="7.793872">
        <ele>283.107764</ele>
        <time>2021-11-20T22:26:28.347Z</time>
      </trkpt>
      <trkpt lat="47.552292" lon="7.793607">
        <ele>282.830877</ele>
        <time>2021-11-20T22:26:30.752Z</time>
      </trkpt>
      <trkpt lat="47.552233" lon="7.793294">
        <ele>282.713412</ele>
        <time>2021-11-20T22:26:34.266Z</time>
      </trkpt>
      <trkpt lat="47.552216" lon="7.793160">
        <ele>282.664128</ele>
        <time>2021-11-20T22:26:35.395Z</time>
      </trkpt>
      <trkpt lat="47.552198" lon="7.792976">
        <ele>282.596925</ele>
        <time>2021-11-20T22:26:37.097Z</time>
      </trkpt>
      <trkpt lat="47.552184" lon="7.792540">
        <ele>282.439151</ele>
        <time>2021-11-20T22:26:41.507Z</time>
      </trkpt>
      <trkpt lat="47.552180" lon="7.792294">
        <ele>282.350207</ele>
        <time>2021-11-20T22:26:44.024Z</time>
      </trkpt>
      <trkpt lat="47.552182" lon="7.792040">
        <ele>282.258391</ele>
        <time>2021-11-20T22:26:46.190Z</time>
      </trkpt>
      <trkpt lat="47.552201" lon="7.791031">
        <ele>281.893539</ele>
        <time>2021-11-20T22:26:54.688Z</time>
      </trkpt>
      <trkpt lat="47.552135" lon="7.790302">
        <ele>281.567530</ele>
        <time>2021-11-20T22:27:01.116Z</time>
      </trkpt>
      <trkpt lat="47.552036" lon="7.789826">
        <ele>281.344682</ele>
        <time>2021-11-20T22:27:05.509Z</time>
      </trkpt>
      <trkpt lat="47.551858" lon="7.788906">
        <ele>280.916486</ele>
        <time>2021-11-20T22:27:13.920Z</time>
      </trkpt>
      <trkpt lat="47.551712" lon="7.788013">
        <ele>280.398355</ele>
        <time>2021-11-20T22:27:21.881Z</time>
      </trkpt>
      <trkpt lat="47.551694" lon="7.787879">
        <ele>280.301450</ele>
        <time>2021-11-20T22:27:23.016Z</time>
      </trkpt>
      <trkpt lat="47.551690" lon="7.787827">
        <ele>280.264330</ele>
        <time>2021-11-20T22:27:23.451Z</time>
      </trkpt>
      <trkpt lat="47.551672" lon="7.787603">
        <ele>280.104334</ele>
        <time>2021-11-20T22:27:25.385Z</time>
      </trkpt>
      <trkpt lat="47.551514" lon="7.785311">
        <ele>278.514139</ele>
        <time>2021-11-20T22:27:43.872Z</time>
      </trkpt>
      <trkpt lat="47.551498" lon="7.785081">
        <ele>278.372093</ele>
        <time>2021-11-20T22:27:45.749Z</time>
      </trkpt>
      <trkpt lat="47.551479" lon="7.784929">
        <ele>278.277126</ele>
        <time>2021-11-20T22:27:46.940Z</time>
      </trkpt>
      <trkpt lat="47.551510" lon="7.784910">
        <ele>278.246590</ele>
        <time>2021-11-20T22:27:47.428Z</time>
      </trkpt>
      <trkpt lat="47.551531" lon="7.784884">
        <ele>278.221681</ele>
        <time>2021-11-20T22:27:47.789Z</time>
      </trkpt>
      <trkpt lat="47.551548" lon="7.784841">
        <ele>278.191066</ele>
        <time>2021-11-20T22:27:48.268Z</time>
      </trkpt>
      <trkpt lat="47.551554" lon="7.784788">
        <ele>278.158051</ele>
        <time>2021-11-20T22:27:48.711Z</time>
      </trkpt>
      <trkpt lat="47.551547" lon="7.784737">
        <ele>278.126079</ele>
        <time>2021-11-20T22:27:49.131Z</time>
      </trkpt>
      <trkpt lat="47.551525" lon="7.784691">
        <ele>278.091444</ele>
        <time>2021-11-20T22:27:49.602Z</time>
      </trkpt>
      <trkpt lat="47.551500" lon="7.784666">
        <ele>278.063990</ele>
        <time>2021-11-20T22:27:49.960Z</time>
      </trkpt>
      <trkpt lat="47.551472" lon="7.784654">
        <ele>278.037459</ele>
        <time>2021-11-20T22:27:50.302Z</time>
      </trkpt>
      <trkpt lat="47.551437" lon="7.784657">
        <ele>278.005548</ele>
        <time>2021-11-20T22:27:50.707Z</time>
      </trkpt>
      <trkpt lat="47.551439" lon="7.784323">
        <ele>277.800351</ele>
        <time>2021-11-20T22:27:53.530Z</time>
      </trkpt>
      <trkpt lat="47.551381" lon="7.783626">
        <ele>277.368916</ele>
        <time>2021-11-20T22:27:59.377Z</time>
      </trkpt>
      <trkpt lat="47.551302" lon="7.782671">
        <ele>277.042191</ele>
        <time>2021-11-20T22:28:08.166Z</time>
      </trkpt>
      <trkpt lat="47.551230" lon="7.781831">
        <ele>276.880915</ele>
        <time>2021-11-20T22:28:16.348Z</time>
      </trkpt>
      <trkpt lat="47.551198" lon="7.781475">
        <ele>276.812511</ele>
        <time>2021-11-20T22:28:19.853Z</time>
      </trkpt>
      <trkpt lat="47.551270" lon="7.781390">
        <ele>276.786531</ele>
        <time>2021-11-20T22:28:21.629Z</time>
      </trkpt>
      <trkpt lat="47.551208" lon="7.780694">
        <ele>276.652516</ele>
        <time>2021-11-20T22:28:28.365Z</time>
      </trkpt>
      <trkpt lat="47.551085" lon="7.779125">
        <ele>276.196336</ele>
        <time>2021-11-20T22:28:42.845Z</time>
      </trkpt>
      <trkpt lat="47.550982" lon="7.777915">
        <ele>275.883057</ele>
        <time>2021-11-20T22:28:53.410Z</time>
      </trkpt>
      <trkpt lat="47.550963" lon="7.777797">
        <ele>275.882436</ele>
        <time>2021-11-20T22:28:54.422Z</time>
      </trkpt>
      <trkpt lat="47.550782" lon="7.776690">
        <ele>275.876601</ele>
        <time>2021-11-20T22:29:05.195Z</time>
      </trkpt>
      <trkpt lat="47.550756" lon="7.776569">
        <ele>275.875951</ele>
        <time>2021-11-20T22:29:06.558Z</time>
      </trkpt>
      <trkpt lat="47.550607" lon="7.775871">
        <ele>275.872201</ele>
        <time>2021-11-20T22:29:14.531Z</time>
      </trkpt>
      <trkpt lat="47.550598" lon="7.775828">
        <ele>275.871970</ele>
        <time>2021-11-20T22:29:15.016Z</time>
      </trkpt>
      <trkpt lat="47.550505" lon="7.775364">
        <ele>275.911911</ele>
        <time>2021-11-20T22:29:20.530Z</time>
      </trkpt>
      <trkpt lat="47.550320" lon="7.774602">
        <ele>276.192107</ele>
        <time>2021-11-20T22:29:30.021Z</time>
      </trkpt>
      <trkpt lat="47.550090" lon="7.773646">
        <ele>276.543278</ele>
        <time>2021-11-20T22:29:41.887Z</time>
      </trkpt>
      <trkpt lat="47.550061" lon="7.773283">
        <ele>276.669756</ele>
        <time>2021-11-20T22:29:46.025Z</time>
      </trkpt>
      <trkpt lat="47.550203" lon="7.772543">
        <ele>276.906767</ele>
        <time>2021-11-20T22:29:54.235Z</time>
      </trkpt>
      <trkpt lat="47.550199" lon="7.772076">
        <ele>277.035565</ele>
        <time>2021-11-20T22:29:59.223Z</time>
      </trkpt>
      <trkpt lat="47.550069" lon="7.771373">
        <ele>277.236580</ele>
        <time>2021-11-20T22:30:07.037Z</time>
      </trkpt>
      <trkpt lat="47.549845" lon="7.770734">
        <ele>277.435151</ele>
        <time>2021-11-20T22:30:15.189Z</time>
      </trkpt>
      <trkpt lat="47.549714" lon="7.770276">
        <ele>277.646826</ele>
        <time>2021-11-20T22:30:20.941Z</time>
      </trkpt>
      <trkpt lat="47.549678" lon="7.770148">
        <ele>277.748035</ele>
        <time>2021-11-20T22:30:22.736Z</time>
      </trkpt>
      <trkpt lat="47.549363" lon="7.768846">
        <ele>278.757527</ele>
        <time>2021-11-20T22:30:39.920Z</time>
      </trkpt>
      <trkpt lat="47.549228" lon="7.768224">
        <ele>279.234400</ele>
        <time>2021-11-20T22:30:49.063Z</time>
      </trkpt>
      <trkpt lat="47.549184" lon="7.768021">
        <ele>279.390016</ele>
        <time>2021-11-20T22:30:52.369Z</time>
      </trkpt>
      <trkpt lat="47.548990" lon="7.767248">
        <ele>279.666587</ele>
        <time>2021-11-20T22:31:04.029Z</time>
      </trkpt>
      <trkpt lat="47.548565" lon="7.765680">
        <ele>280.128030</ele>
        <time>2021-11-20T22:31:22.864Z</time>
      </trkpt>
      <trkpt lat="47.547909" lon="7.763208">
        <ele>278.034093</ele>
        <time>2021-11-20T22:31:43.711Z</time>
      </trkpt>
      <trkpt lat="47.547848" lon="7.762928">
        <ele>277.766557</ele>
        <time>2021-11-20T22:31:45.855Z</time>
      </trkpt>
      <trkpt lat="47.547778" lon="7.762713">
        <ele>277.536985</ele>
        <time>2021-11-20T22:31:47.670Z</time>
      </trkpt>
      <trkpt lat="47.547577" lon="7.762307">
        <ele>277.052748</ele>
        <time>2021-11-20T22:31:51.448Z</time>
      </trkpt>
      <trkpt lat="47.547553" lon="7.762245">
        <ele>276.984010</ele>
        <time>2021-11-20T22:31:51.976Z</time>
      </trkpt>
      <trkpt lat="47.547194" lon="7.761352">
        <ele>275.984381</ele>
        <time>2021-11-20T22:31:59.946Z</time>
      </trkpt>
      <trkpt lat="47.546989" lon="7.760612">
        <ele>275.232666</ele>
        <time>2021-11-20T22:32:06.423Z</time>
      </trkpt>
      <trkpt lat="47.546948" lon="7.760482">
        <ele>275.322884</ele>
        <time>2021-11-20T22:32:07.683Z</time>
      </trkpt>
      <trkpt lat="47.546870" lon="7.760301">
        <ele>275.457902</ele>
        <time>2021-11-20T22:32:09.555Z</time>
      </trkpt>
      <trkpt lat="47.546804" lon="7.760164">
        <ele>275.563728</ele>
        <time>2021-11-20T22:32:11.022Z</time>
      </trkpt>
      <trkpt lat="47.546552" lon="7.759727">
        <ele>275.925106</ele>
        <time>2021-11-20T22:32:17.075Z</time>
      </trkpt>
      <trkpt lat="47.546312" lon="7.759326">
        <ele>276.262071</ele>
        <time>2021-11-20T22:32:23.457Z</time>
      </trkpt>
      <trkpt lat="47.546264" lon="7.759224">
        <ele>276.340250</ele>
        <time>2021-11-20T22:32:25.092Z</time>
      </trkpt>
      <trkpt lat="47.545911" lon="7.758393">
        <ele>277.102336</ele>
        <time>2021-11-20T22:32:41.492Z</time>
      </trkpt>
      <trkpt lat="47.545677" lon="7.757815">
        <ele>278.612226</ele>
        <time>2021-11-20T22:32:53.943Z</time>
      </trkpt>
      <trkpt lat="47.545429" lon="7.757231">
        <ele>280.157897</ele>
        <time>2021-11-20T22:33:07.200Z</time>
      </trkpt>
      <trkpt lat="47.545360" lon="7.757065">
        <ele>280.594631</ele>
        <time>2021-11-20T22:33:11.909Z</time>
      </trkpt>
      <trkpt lat="47.545326" lon="7.756949">
        <ele>280.877942</ele>
        <time>2021-11-20T22:33:14.660Z</time>
      </trkpt>
      <trkpt lat="47.545304" lon="7.756852">
        <ele>281.107184</ele>
        <time>2021-11-20T22:33:16.861Z</time>
      </trkpt>
      <trkpt lat="47.545279" lon="7.756730">
        <ele>281.392811</ele>
        <time>2021-11-20T22:33:19.382Z</time>
      </trkpt>
      <trkpt lat="47.545260" lon="7.756637">
        <ele>281.610488</ele>
        <time>2021-11-20T22:33:21.919Z</time>
      </trkpt>
      <trkpt lat="47.545021" lon="7.756243">
        <ele>282.797192</ele>
        <time>2021-11-20T22:33:33.007Z</time>
      </trkpt>
      <trkpt lat="47.544022" lon="7.753705">
        <ele>287.560570</ele>
        <time>2021-11-20T22:34:21.479Z</time>
      </trkpt>
      <trkpt lat="47.543798" lon="7.753068">
        <ele>288.143506</ele>
        <time>2021-11-20T22:34:31.219Z</time>
      </trkpt>
      <trkpt lat="47.543319" lon="7.751355">
        <ele>289.563972</ele>
        <time>2021-11-20T22:34:54.350Z</time>
      </trkpt>
      <trkpt lat="47.543222" lon="7.751091">
        <ele>289.637128</ele>
        <time>2021-11-20T22:34:57.622Z</time>
      </trkpt>
      <trkpt lat="47.543115" lon="7.750826">
        <ele>289.712284</ele>
        <time>2021-11-20T22:35:02.373Z</time>
      </trkpt>
      <trkpt lat="47.543033" lon="7.750614">
        <ele>289.771753</ele>
        <time>2021-11-20T22:35:04.956Z</time>
      </trkpt>
      <trkpt lat="47.542614" lon="7.749755">
        <ele>290.029695</ele>
        <time>2021-11-20T22:35:16.497Z</time>
      </trkpt>
      <trkpt lat="47.542390" lon="7.749307">
        <ele>290.165388</ele>
        <time>2021-11-20T22:35:22.308Z</time>
      </trkpt>
      <trkpt lat="47.542347" lon="7.749227">
        <ele>290.177208</ele>
        <time>2021-11-20T22:35:23.849Z</time>
      </trkpt>
      <trkpt lat="47.542132" lon="7.748742">
        <ele>290.185989</ele>
        <time>2021-11-20T22:35:31.413Z</time>
      </trkpt>
      <trkpt lat="47.541758" lon="7.747784">
        <ele>290.202735</ele>
        <time>2021-11-20T22:35:46.148Z</time>
      </trkpt>
      <trkpt lat="47.541583" lon="7.747186">
        <ele>290.212598</ele>
        <time>2021-11-20T22:35:55.327Z</time>
      </trkpt>
      <trkpt lat="47.541511" lon="7.746885">
        <ele>290.218013</ele>
        <time>2021-11-20T22:35:59.797Z</time>
      </trkpt>
      <trkpt lat="47.541432" lon="7.746552">
        <ele>290.227399</ele>
        <time>2021-11-20T22:36:04.908Z</time>
      </trkpt>
      <trkpt lat="47.541167" lon="7.745463">
        <ele>290.258183</ele>
        <time>2021-11-20T22:36:20.720Z</time>
      </trkpt>
      <trkpt lat="47.541160" lon="7.745250">
        <ele>290.263854</ele>
        <time>2021-11-20T22:36:23.573Z</time>
      </trkpt>
      <trkpt lat="47.541148" lon="7.745144">
        <ele>290.266712</ele>
        <time>2021-11-20T22:36:25.102Z</time>
      </trkpt>
      <trkpt lat="47.541130" lon="7.745083">
        <ele>290.268483</ele>
        <time>2021-11-20T22:36:26.024Z</time>
      </trkpt>
      <trkpt lat="47.541038" lon="7.744940">
        <ele>290.273736</ele>
        <time>2021-11-20T22:36:28.407Z</time>
      </trkpt>
      <trkpt lat="47.541019" lon="7.744859">
        <ele>290.276016</ele>
        <time>2021-11-20T22:36:29.643Z</time>
      </trkpt>
      <trkpt lat="47.540913" lon="7.744421">
        <ele>290.286155</ele>
        <time>2021-11-20T22:36:36.194Z</time>
      </trkpt>
      <trkpt lat="47.540738" lon="7.743641">
        <ele>290.252067</ele>
        <time>2021-11-20T22:36:48.008Z</time>
      </trkpt>
      <trkpt lat="47.540617" lon="7.742875">
        <ele>290.219442</ele>
        <time>2021-11-20T22:36:58.967Z</time>
      </trkpt>
      <trkpt lat="47.540589" lon="7.742558">
        <ele>290.206183</ele>
        <time>2021-11-20T22:37:03.333Z</time>
      </trkpt>
      <trkpt lat="47.540552" lon="7.742240">
        <ele>290.192801</ele>
        <time>2021-11-20T22:37:07.599Z</time>
      </trkpt>
      <trkpt lat="47.540528" lon="7.741868">
        <ele>290.177303</ele>
        <time>2021-11-20T22:37:12.443Z</time>
      </trkpt>
      <trkpt lat="47.540438" lon="7.740453">
        <ele>289.241611</ele>
        <time>2021-11-20T22:37:29.491Z</time>
      </trkpt>
      <trkpt lat="47.540374" lon="7.739620">
        <ele>288.687169</ele>
        <time>2021-11-20T22:37:38.954Z</time>
      </trkpt>
      <trkpt lat="47.540372" lon="7.739490">
        <ele>288.601174</ele>
        <time>2021-11-20T22:37:40.503Z</time>
      </trkpt>
      <trkpt lat="47.540387" lon="7.739372">
        <ele>288.521765</ele>
        <time>2021-11-20T22:37:41.988Z</time>
      </trkpt>
      <trkpt lat="47.540394" lon="7.739259">
        <ele>288.446721</ele>
        <time>2021-11-20T22:37:43.318Z</time>
      </trkpt>
      <trkpt lat="47.540388" lon="7.739213">
        <ele>288.415737</ele>
        <time>2021-11-20T22:37:43.710Z</time>
      </trkpt>
      <trkpt lat="47.540201" lon="7.738125">
        <ele>287.778328</ele>
        <time>2021-11-20T22:37:56.592Z</time>
      </trkpt>
      <trkpt lat="47.540032" lon="7.737141">
        <ele>287.201966</ele>
        <time>2021-11-20T22:38:08.433Z</time>
      </trkpt>
      <trkpt lat="47.539836" lon="7.736335">
        <ele>286.994404</ele>
        <time>2021-11-20T22:38:20.246Z</time>
      </trkpt>
      <trkpt lat="47.539305" lon="7.734151">
        <ele>287.641905</ele>
        <time>2021-11-20T22:38:55.138Z</time>
      </trkpt>
      <trkpt lat="47.539263" lon="7.733885">
        <ele>287.784436</ele>
        <time>2021-11-20T22:38:59.466Z</time>
      </trkpt>
      <trkpt lat="47.539178" lon="7.733656">
        <ele>287.924150</ele>
        <time>2021-11-20T22:39:03.546Z</time>
      </trkpt>
      <trkpt lat="47.538887" lon="7.732454">
        <ele>288.606845</ele>
        <time>2021-11-20T22:39:24.042Z</time>
      </trkpt>
      <trkpt lat="47.538512" lon="7.730958">
        <ele>289.185035</ele>
        <time>2021-11-20T22:39:49.524Z</time>
      </trkpt>
      <trkpt lat="47.538339" lon="7.730082">
        <ele>289.328827</ele>
        <time>2021-11-20T22:40:02.898Z</time>
      </trkpt>
      <trkpt lat="47.538275" lon="7.729744">
        <ele>289.384131</ele>
        <time>2021-11-20T22:40:07.762Z</time>
      </trkpt>
      <trkpt lat="47.538248" lon="7.729713">
        <ele>289.392103</ele>
        <time>2021-11-20T22:40:08.376Z</time>
      </trkpt>
      <trkpt lat="47.538168" lon="7.729263">
        <ele>289.465415</ele>
        <time>2021-11-20T22:40:14.461Z</time>
      </trkpt>
      <trkpt lat="47.538148" lon="7.729131">
        <ele>289.486728</ele>
        <time>2021-11-20T22:40:16.129Z</time>
      </trkpt>
      <trkpt lat="47.538123" lon="7.729100">
        <ele>289.457277</ele>
        <time>2021-11-20T22:40:16.724Z</time>
      </trkpt>
      <trkpt lat="47.538083" lon="7.728919">
        <ele>289.236981</ele>
        <time>2021-11-20T22:40:19.055Z</time>
      </trkpt>
      <trkpt lat="47.538038" lon="7.728622">
        <ele>288.884892</ele>
        <time>2021-11-20T22:40:22.764Z</time>
      </trkpt>
      <trkpt lat="47.537932" lon="7.727936">
        <ele>288.070868</ele>
        <time>2021-11-20T22:40:30.869Z</time>
      </trkpt>
      <trkpt lat="47.537861" lon="7.727909">
        <ele>287.945272</ele>
        <time>2021-11-20T22:40:32.056Z</time>
      </trkpt>
      <trkpt lat="47.537824" lon="7.727674">
        <ele>287.666150</ele>
        <time>2021-11-20T22:40:33.909Z</time>
      </trkpt>
      <trkpt lat="47.537675" lon="7.726458">
        <ele>286.037049</ele>
        <time>2021-11-20T22:40:42.851Z</time>
      </trkpt>
      <trkpt lat="47.537323" lon="7.724748">
        <ele>281.563223</ele>
        <time>2021-11-20T22:40:54.593Z</time>
      </trkpt>
      <trkpt lat="47.537127" lon="7.723974">
        <ele>279.551532</ele>
        <time>2021-11-20T22:41:00.029Z</time>
      </trkpt>
      <trkpt lat="47.537106" lon="7.723875">
        <ele>279.351988</ele>
        <time>2021-11-20T22:41:00.713Z</time>
      </trkpt>
      <trkpt lat="47.537075" lon="7.723694">
        <ele>278.992915</ele>
        <time>2021-11-20T22:41:01.942Z</time>
      </trkpt>
      <trkpt lat="47.536854" lon="7.722329">
        <ele>276.293705</ele>
        <time>2021-11-20T22:41:11.856Z</time>
      </trkpt>
      <trkpt lat="47.536667" lon="7.721718">
        <ele>275.003703</ele>
        <time>2021-11-20T22:41:16.978Z</time>
      </trkpt>
      <trkpt lat="47.536590" lon="7.721558">
        <ele>274.625866</ele>
        <time>2021-11-20T22:41:18.438Z</time>
      </trkpt>
      <trkpt lat="47.536471" lon="7.721389">
        <ele>274.172080</ele>
        <time>2021-11-20T22:41:19.958Z</time>
      </trkpt>
      <trkpt lat="47.536092" lon="7.720862">
        <ele>272.742081</ele>
        <time>2021-11-20T22:41:25.818Z</time>
      </trkpt>
      <trkpt lat="47.535988" lon="7.720671">
        <ele>272.286365</ele>
        <time>2021-11-20T22:41:27.304Z</time>
      </trkpt>
      <trkpt lat="47.535897" lon="7.720461">
        <ele>271.822929</ele>
        <time>2021-11-20T22:41:29.659Z</time>
      </trkpt>
      <trkpt lat="47.535876" lon="7.720409">
        <ele>271.710396</ele>
        <time>2021-11-20T22:41:30.311Z</time>
      </trkpt>
      <trkpt lat="47.535806" lon="7.720212">
        <ele>271.296948</ele>
        <time>2021-11-20T22:41:31.651Z</time>
      </trkpt>
      <trkpt lat="47.535746" lon="7.719899">
        <ele>270.692667</ele>
        <time>2021-11-20T22:41:35.351Z</time>
      </trkpt>
      <trkpt lat="47.535713" lon="7.719682">
        <ele>270.279557</ele>
        <time>2021-11-20T22:41:36.679Z</time>
      </trkpt>
      <trkpt lat="47.535661" lon="7.719317">
        <ele>269.634700</ele>
        <time>2021-11-20T22:41:40.779Z</time>
      </trkpt>
      <trkpt lat="47.535608" lon="7.718948">
        <ele>269.338053</ele>
        <time>2021-11-20T22:41:43.453Z</time>
      </trkpt>
      <trkpt lat="47.535572" lon="7.718705">
        <ele>269.142431</ele>
        <time>2021-11-20T22:41:45.051Z</time>
      </trkpt>
      <trkpt lat="47.535558" lon="7.718578">
        <ele>269.041245</ele>
        <time>2021-11-20T22:41:45.988Z</time>
      </trkpt>
      <trkpt lat="47.535516" lon="7.718273">
        <ele>268.796479</ele>
        <time>2021-11-20T22:41:49.050Z</time>
      </trkpt>
      <trkpt lat="47.535494" lon="7.718111">
        <ele>268.666543</ele>
        <time>2021-11-20T22:41:50.028Z</time>
      </trkpt>
      <trkpt lat="47.535490" lon="7.718086">
        <ele>268.646340</ele>
        <time>2021-11-20T22:41:50.804Z</time>
      </trkpt>
      <trkpt lat="47.535419" lon="7.717562">
        <ele>268.226090</ele>
        <time>2021-11-20T22:41:54.829Z</time>
      </trkpt>
      <trkpt lat="47.535384" lon="7.717243">
        <ele>267.971961</ele>
        <time>2021-11-20T22:42:00.206Z</time>
      </trkpt>
      <trkpt lat="47.535370" lon="7.716931">
        <ele>267.726086</ele>
        <time>2021-11-20T22:42:03.643Z</time>
      </trkpt>
      <trkpt lat="47.535347" lon="7.716584">
        <ele>267.732547</ele>
        <time>2021-11-20T22:42:07.263Z</time>
      </trkpt>
      <trkpt lat="47.535313" lon="7.716133">
        <ele>268.189058</ele>
        <time>2021-11-20T22:42:14.413Z</time>
      </trkpt>
      <trkpt lat="47.535254" lon="7.715336">
        <ele>268.995620</ele>
        <time>2021-11-20T22:42:26.962Z</time>
      </trkpt>
      <trkpt lat="47.535269" lon="7.714924">
        <ele>269.410681</ele>
        <time>2021-11-20T22:42:33.095Z</time>
      </trkpt>
      <trkpt lat="47.535269" lon="7.714705">
        <ele>269.630988</ele>
        <time>2021-11-20T22:42:36.304Z</time>
      </trkpt>
      <trkpt lat="47.535269" lon="7.714432">
        <ele>269.905618</ele>
        <time>2021-11-20T22:42:39.904Z</time>
      </trkpt>
      <trkpt lat="47.535222" lon="7.713738">
        <ele>270.416600</ele>
        <time>2021-11-20T22:42:48.941Z</time>
      </trkpt>
      <trkpt lat="47.535202" lon="7.713540">
        <ele>270.508974</ele>
        <time>2021-11-20T22:42:51.359Z</time>
      </trkpt>
      <trkpt lat="47.535174" lon="7.713262">
        <ele>270.638661</ele>
        <time>2021-11-20T22:42:54.779Z</time>
      </trkpt>
      <trkpt lat="47.535128" lon="7.712889">
        <ele>270.813610</ele>
        <time>2021-11-20T22:42:59.437Z</time>
      </trkpt>
      <trkpt lat="47.535110" lon="7.712748">
        <ele>270.879820</ele>
        <time>2021-11-20T22:43:01.063Z</time>
      </trkpt>
      <trkpt lat="47.535110" lon="7.712748">
        <ele>270.879820</ele>
        <time>2021-11-20T22:43:01.085Z</time>
      </trkpt>
      <trkpt lat="47.534950" lon="7.712810">
        <ele>270.992846</ele>
        <time>2021-11-20T22:43:03.959Z</time>
      </trkpt>
      <trkpt lat="47.534760" lon="7.712896">
        <ele>271.128622</ele>
        <time>2021-11-20T22:43:07.244Z</time>
      </trkpt>
      <trkpt lat="47.534597" lon="7.712970">
        <ele>271.245134</ele>
        <time>2021-11-20T22:43:10.154Z</time>
      </trkpt>
      <trkpt lat="47.534528" lon="7.713002">
        <ele>271.294547</ele>
        <time>2021-11-20T22:43:11.366Z</time>
      </trkpt>
      <trkpt lat="47.534344" lon="7.713085">
        <ele>271.425997</ele>
        <time>2021-11-20T22:43:14.383Z</time>
      </trkpt>
      <trkpt lat="47.534242" lon="7.713132">
        <ele>271.492093</ele>
        <time>2021-11-20T22:43:16.175Z</time>
      </trkpt>
      <trkpt lat="47.534150" lon="7.712751">
        <ele>271.591232</ele>
        <time>2021-11-20T22:43:20.313Z</time>
      </trkpt>
      <trkpt lat="47.534103" lon="7.712557">
        <ele>271.641732</ele>
        <time>2021-11-20T22:43:22.805Z</time>
      </trkpt>
      <trkpt lat="47.533850" lon="7.712715">
        <ele>271.741372</ele>
        <time>2021-11-20T22:43:26.992Z</time>
      </trkpt>
      <trkpt lat="47.533712" lon="7.712802">
        <ele>271.795800</ele>
        <time>2021-11-20T22:43:29.430Z</time>
      </trkpt>
      <trkpt lat="47.533585" lon="7.712861">
        <ele>271.844101</ele>
        <time>2021-11-20T22:43:31.393Z</time>
      </trkpt>
      <trkpt lat="47.533204" lon="7.712930">
        <ele>271.983395</ele>
        <time>2021-11-20T22:43:37.442Z</time>
      </trkpt>
      <trkpt lat="47.532918" lon="7.712834">
        <ele>272.089815</ele>
        <time>2021-11-20T22:43:42.373Z</time>
      </trkpt>
      <trkpt lat="47.532835" lon="7.712791">
        <ele>272.121725</ele>
        <time>2021-11-20T22:43:43.885Z</time>
      </trkpt>
      <trkpt lat="47.532756" lon="7.712690">
        <ele>272.190883</ele>
        <time>2021-11-20T22:43:45.952Z</time>
      </trkpt>
      <trkpt lat="47.532382" lon="7.712125">
        <ele>272.653096</ele>
        <time>2021-11-20T22:43:55.421Z</time>
      </trkpt>
      <trkpt lat="47.531932" lon="7.711461">
        <ele>273.202678</ele>
        <time>2021-11-20T22:44:07.614Z</time>
      </trkpt>
      <trkpt lat="47.531434" lon="7.710621">
        <ele>273.758780</ele>
        <time>2021-11-20T22:44:21.309Z</time>
      </trkpt>
      <trkpt lat="47.531400" lon="7.710563">
        <ele>273.776892</ele>
        <time>2021-11-20T22:44:22.509Z</time>
      </trkpt>
      <trkpt lat="47.531289" lon="7.710373">
        <ele>273.836135</ele>
        <time>2021-11-20T22:44:25.382Z</time>
      </trkpt>
      <trkpt lat="47.531278" lon="7.710355">
        <ele>273.841859</ele>
        <time>2021-11-20T22:44:25.783Z</time>
      </trkpt>
      <trkpt lat="47.531138" lon="7.710116">
        <ele>273.916467</ele>
        <time>2021-11-20T22:44:29.502Z</time>
      </trkpt>
      <trkpt lat="47.531092" lon="7.710037">
        <ele>273.941064</ele>
        <time>2021-11-20T22:44:30.608Z</time>
      </trkpt>
      <trkpt lat="47.531010" lon="7.709856">
        <ele>273.992460</ele>
        <time>2021-11-20T22:44:33.040Z</time>
      </trkpt>
      <trkpt lat="47.530924" lon="7.709643">
        <ele>274.050979</ele>
        <time>2021-11-20T22:44:35.817Z</time>
      </trkpt>
      <trkpt lat="47.530863" lon="7.709389">
        <ele>274.114547</ele>
        <time>2021-11-20T22:44:38.608Z</time>
      </trkpt>
      <trkpt lat="47.530680" lon="7.709102">
        <ele>274.207627</ele>
        <time>2021-11-20T22:44:42.684Z</time>
      </trkpt>
      <trkpt lat="47.530477" lon="7.708668">
        <ele>274.316511</ele>
        <time>2021-11-20T22:44:47.866Z</time>
      </trkpt>
      <trkpt lat="47.530376" lon="7.708542">
        <ele>274.296002</ele>
        <time>2021-11-20T22:44:49.692Z</time>
      </trkpt>
      <trkpt lat="47.530090" lon="7.708115">
        <ele>274.232932</ele>
        <time>2021-11-20T22:44:55.081Z</time>
      </trkpt>
      <trkpt lat="47.530040" lon="7.708071">
        <ele>274.223899</ele>
        <time>2021-11-20T22:44:55.845Z</time>
      </trkpt>
      <trkpt lat="47.529814" lon="7.708010">
        <ele>274.188222</ele>
        <time>2021-11-20T22:44:59.087Z</time>
      </trkpt>
      <trkpt lat="47.528916" lon="7.707267">
        <ele>274.051239</ele>
        <time>2021-11-20T22:45:13.902Z</time>
      </trkpt>
      <trkpt lat="47.528783" lon="7.707096">
        <ele>274.069998</ele>
        <time>2021-11-20T22:45:16.686Z</time>
      </trkpt>
      <trkpt lat="47.528280" lon="7.706338">
        <ele>274.146433</ele>
        <time>2021-11-20T22:45:27.473Z</time>
      </trkpt>
      <trkpt lat="47.527953" lon="7.705596">
        <ele>274.210157</ele>
        <time>2021-11-20T22:45:36.348Z</time>
      </trkpt>
      <trkpt lat="47.527843" lon="7.705480">
        <ele>274.224541</ele>
        <time>2021-11-20T22:45:38.862Z</time>
      </trkpt>
      <trkpt lat="47.527726" lon="7.705561">
        <ele>274.265623</ele>
        <time>2021-11-20T22:45:40.782Z</time>
      </trkpt>
      <trkpt lat="47.527591" lon="7.705744">
        <ele>274.397385</ele>
        <time>2021-11-20T22:45:43.838Z</time>
      </trkpt>
      <trkpt lat="47.527501" lon="7.705847">
        <ele>274.479275</ele>
        <time>2021-11-20T22:45:45.642Z</time>
      </trkpt>
      <trkpt lat="47.527348" lon="7.705987">
        <ele>274.608759</ele>
        <time>2021-11-20T22:45:48.275Z</time>
      </trkpt>
      <trkpt lat="47.527314" lon="7.705980">
        <ele>274.633473</ele>
        <time>2021-11-20T22:45:49.132Z</time>
      </trkpt>
      <trkpt lat="47.526914" lon="7.705009">
        <ele>275.186435</ele>
        <time>2021-11-20T22:46:01.693Z</time>
      </trkpt>
      <trkpt lat="47.526775" lon="7.704691">
        <ele>275.370594</ele>
        <time>2021-11-20T22:46:06.182Z</time>
      </trkpt>
      <trkpt lat="47.526360" lon="7.704025">
        <ele>276.914249</ele>
        <time>2021-11-20T22:46:19.668Z</time>
      </trkpt>
      <trkpt lat="47.526313" lon="7.703953">
        <ele>277.152929</ele>
        <time>2021-11-20T22:46:21.282Z</time>
      </trkpt>
      <trkpt lat="47.526010" lon="7.703497">
        <ele>278.677712</ele>
        <time>2021-11-20T22:46:33.451Z</time>
      </trkpt>
      <trkpt lat="47.525589" lon="7.702861">
        <ele>280.800421</ele>
        <time>2021-11-20T22:46:53.822Z</time>
      </trkpt>
      <trkpt lat="47.525119" lon="7.702443">
        <ele>282.854662</ele>
        <time>2021-11-20T22:47:12.102Z</time>
      </trkpt>
      <trkpt lat="47.524997" lon="7.702331">
        <ele>283.431624</ele>
        <time>2021-11-20T22:47:17.698Z</time>
      </trkpt>
      <trkpt lat="47.524706" lon="7.702264">
        <ele>284.615353</ele>
        <time>2021-11-20T22:47:27.722Z</time>
      </trkpt>
      <trkpt lat="47.524615" lon="7.702250">
        <ele>284.983096</ele>
        <time>2021-11-20T22:47:30.870Z</time>
      </trkpt>
      <trkpt lat="47.524401" lon="7.702218">
        <ele>285.847644</ele>
        <time>2021-11-20T22:47:37.163Z</time>
      </trkpt>
      <trkpt lat="47.524013" lon="7.702161">
        <ele>287.414868</ele>
        <time>2021-11-20T22:47:49.188Z</time>
      </trkpt>
      <trkpt lat="47.523926" lon="7.702155">
        <ele>287.764943</ele>
        <time>2021-11-20T22:47:52.079Z</time>
      </trkpt>
      <trkpt lat="47.523800" lon="7.702197">
        <ele>288.284073</ele>
        <time>2021-11-20T22:47:55.733Z</time>
      </trkpt>
      <trkpt lat="47.523758" lon="7.702269">
        <ele>288.542323</ele>
        <time>2021-11-20T22:47:57.176Z</time>
      </trkpt>
      <trkpt lat="47.523683" lon="7.702416">
        <ele>289.042406</ele>
        <time>2021-11-20T22:48:00.817Z</time>
      </trkpt>
      <trkpt lat="47.523539" lon="7.702744">
        <ele>289.393671</ele>
        <time>2021-11-20T22:48:07.740Z</time>
      </trkpt>
      <trkpt lat="47.523476" lon="7.702988">
        <ele>289.597642</ele>
        <time>2021-11-20T22:48:11.326Z</time>
      </trkpt>
      <trkpt lat="47.523207" lon="7.702948">
        <ele>289.910243</ele>
        <time>2021-11-20T22:48:16.284Z</time>
      </trkpt>
      <trkpt lat="47.523064" lon="7.702927">
        <ele>290.076401</ele>
        <time>2021-11-20T22:48:19.347Z</time>
      </trkpt>
      <trkpt lat="47.522974" lon="7.702913">
        <ele>290.181038</ele>
        <time>2021-11-20T22:48:20.609Z</time>
      </trkpt>
      <trkpt lat="47.522297" lon="7.702808">
        <ele>290.968117</ele>
        <time>2021-11-20T22:48:31.676Z</time>
      </trkpt>
      <trkpt lat="47.521475" lon="7.702832">
        <ele>291.520242</ele>
        <time>2021-11-20T22:48:45.203Z</time>
      </trkpt>
      <trkpt lat="47.521318" lon="7.702862">
        <ele>291.603678</ele>
        <time>2021-11-20T22:48:47.858Z</time>
      </trkpt>
      <trkpt lat="47.521249" lon="7.702881">
        <ele>291.640670</ele>
        <time>2021-11-20T22:48:49.306Z</time>
      </trkpt>
      <trkpt lat="47.520558" lon="7.703039">
        <ele>292.009193</ele>
        <time>2021-11-20T22:49:01.198Z</time>
      </trkpt>
      <trkpt lat="47.520529" lon="7.703049">
        <ele>292.024887</ele>
        <time>2021-11-20T22:49:01.960Z</time>
      </trkpt>
      <trkpt lat="47.520070" lon="7.703148">
        <ele>292.187441</ele>
        <time>2021-11-20T22:49:09.800Z</time>
      </trkpt>
      <trkpt lat="47.519889" lon="7.703086">
        <ele>292.225911</ele>
        <time>2021-11-20T22:49:12.808Z</time>
      </trkpt>
      <trkpt lat="47.519841" lon="7.703049">
        <ele>292.237117</ele>
        <time>2021-11-20T22:49:13.953Z</time>
      </trkpt>
      <trkpt lat="47.519785" lon="7.702990">
        <ele>292.251349</ele>
        <time>2021-11-20T22:49:15.059Z</time>
      </trkpt>
      <trkpt lat="47.519733" lon="7.702919">
        <ele>292.265996</ele>
        <time>2021-11-20T22:49:16.052Z</time>
      </trkpt>
      <trkpt lat="47.519674" lon="7.702803">
        <ele>292.286304</ele>
        <time>2021-11-20T22:49:17.404Z</time>
      </trkpt>
      <trkpt lat="47.519636" lon="7.702692">
        <ele>292.303707</ele>
        <time>2021-11-20T22:49:18.440Z</time>
      </trkpt>
      <trkpt lat="47.519594" lon="7.702549">
        <ele>292.325515</ele>
        <time>2021-11-20T22:49:20.424Z</time>
      </trkpt>
      <trkpt lat="47.519430" lon="7.701959">
        <ele>292.414739</ele>
        <time>2021-11-20T22:49:27.099Z</time>
      </trkpt>
      <trkpt lat="47.519352" lon="7.701645">
        <ele>292.461527</ele>
        <time>2021-11-20T22:49:30.516Z</time>
      </trkpt>
      <trkpt lat="47.519286" lon="7.701329">
        <ele>292.506357</ele>
        <time>2021-11-20T22:49:33.942Z</time>
      </trkpt>
      <trkpt lat="47.519286" lon="7.701329">
        <ele>292.506357</ele>
        <time>2021-11-20T22:49:33.951Z</time>
      </trkpt>
      <trkpt lat="47.519258" lon="7.701170">
        <ele>292.493067</ele>
        <time>2021-11-20T22:49:35.468Z</time>
      </trkpt>
      <trkpt lat="47.519233" lon="7.701014">
        <ele>292.480099</ele>
        <time>2021-11-20T22:49:37.188Z</time>
      </trkpt>
      <trkpt lat="47.519195" lon="7.700709">
        <ele>292.455013</ele>
        <time>2021-11-20T22:49:40.133Z</time>
      </trkpt>
      <trkpt lat="47.519193" lon="7.700688">
        <ele>292.453298</ele>
        <time>2021-11-20T22:49:40.266Z</time>
      </trkpt>
      <trkpt lat="47.519157" lon="7.700380">
        <ele>292.428016</ele>
        <time>2021-11-20T22:49:43.265Z</time>
      </trkpt>
      <trkpt lat="47.519132" lon="7.700172">
        <ele>292.410928</ele>
        <time>2021-11-20T22:49:45.083Z</time>
      </trkpt>
      <trkpt lat="47.519087" lon="7.699786">
        <ele>292.379245</ele>
        <time>2021-11-20T22:49:48.700Z</time>
      </trkpt>
      <trkpt lat="47.519042" lon="7.699496">
        <ele>292.355178</ele>
        <time>2021-11-20T22:49:51.378Z</time>
      </trkpt>
      <trkpt lat="47.518952" lon="7.699040">
        <ele>292.316753</ele>
        <time>2021-11-20T22:49:56.012Z</time>
      </trkpt>
      <trkpt lat="47.518806" lon="7.698235">
        <ele>292.585525</ele>
        <time>2021-11-20T22:50:05.396Z</time>
      </trkpt>
      <trkpt lat="47.518776" lon="7.698074">
        <ele>292.679813</ele>
        <time>2021-11-20T22:50:07.075Z</time>
      </trkpt>
      <trkpt lat="47.518729" lon="7.697828">
        <ele>292.824141</ele>
        <time>2021-11-20T22:50:10.198Z</time>
      </trkpt>
      <trkpt lat="47.518589" lon="7.696973">
        <ele>293.320811</ele>
        <time>2021-11-20T22:50:20.808Z</time>
      </trkpt>
      <trkpt lat="47.518568" lon="7.696830">
        <ele>293.403428</ele>
        <time>2021-11-20T22:50:22.539Z</time>
      </trkpt>
      <trkpt lat="47.518460" lon="7.696098">
        <ele>293.861643</ele>
        <time>2021-11-20T22:50:33.129Z</time>
      </trkpt>
      <trkpt lat="47.518415" lon="7.695818">
        <ele>294.206284</ele>
        <time>2021-11-20T22:50:36.390Z</time>
      </trkpt>
      <trkpt lat="47.518400" lon="7.695716">
        <ele>294.331283</ele>
        <time>2021-11-20T22:50:38.843Z</time>
      </trkpt>
      <trkpt lat="47.518365" lon="7.695509">
        <ele>294.586799</ele>
        <time>2021-11-20T22:50:41.929Z</time>
      </trkpt>
      <trkpt lat="47.518320" lon="7.695198">
        <ele>294.967649</ele>
        <time>2021-11-20T22:50:46.884Z</time>
      </trkpt>
      <trkpt lat="47.518310" lon="7.695086">
        <ele>295.102927</ele>
        <time>2021-11-20T22:50:48.387Z</time>
      </trkpt>
      <trkpt lat="47.518299" lon="7.694930">
        <ele>295.290740</ele>
        <time>2021-11-20T22:50:49.986Z</time>
      </trkpt>
      <trkpt lat="47.518294" lon="7.694610">
        <ele>295.674019</ele>
        <time>2021-11-20T22:50:54.889Z</time>
      </trkpt>
      <trkpt lat="47.518253" lon="7.694150">
        <ele>296.229610</ele>
        <time>2021-11-20T22:51:01.531Z</time>
      </trkpt>
      <trkpt lat="47.518232" lon="7.693988">
        <ele>296.427134</ele>
        <time>2021-11-20T22:51:03.638Z</time>
      </trkpt>
      <trkpt lat="47.518232" lon="7.693988">
        <ele>296.427134</ele>
        <time>2021-11-20T22:51:03.680Z</time>
      </trkpt>
      <trkpt lat="47.518146" lon="7.693998">
        <ele>296.580084</ele>
        <time>2021-11-20T22:51:04.995Z</time>
      </trkpt>
      <trkpt lat="47.517957" lon="7.694109">
        <ele>296.940583</ele>
        <time>2021-11-20T22:51:10.912Z</time>
      </trkpt>
      <trkpt lat="47.517646" lon="7.694392">
        <ele>298.419575</ele>
        <time>2021-11-20T22:51:20.443Z</time>
      </trkpt>
      <trkpt lat="47.517503" lon="7.694516">
        <ele>299.118188</ele>
        <time>2021-11-20T22:51:23.593Z</time>
      </trkpt>
      <trkpt lat="47.517239" lon="7.694746">
        <ele>300.409488</ele>
        <time>2021-11-20T22:51:33.450Z</time>
      </trkpt>
      <trkpt lat="47.517157" lon="7.694812">
        <ele>300.802946</ele>
        <time>2021-11-20T22:51:35.955Z</time>
      </trkpt>
      <trkpt lat="47.517084" lon="7.694861">
        <ele>301.140837</ele>
        <time>2021-11-20T22:51:39.786Z</time>
      </trkpt>
      <trkpt lat="47.516829" lon="7.694882">
        <ele>302.217499</ele>
        <time>2021-11-20T22:51:48.613Z</time>
      </trkpt>
      <trkpt lat="47.516717" lon="7.694874">
        <ele>302.690205</ele>
        <time>2021-11-20T22:51:54.605Z</time>
      </trkpt>
      <trkpt lat="47.516677" lon="7.694863">
        <ele>302.861717</ele>
        <time>2021-11-20T22:51:56.508Z</time>
      </trkpt>
      <trkpt lat="47.516556" lon="7.694611">
        <ele>303.742052</ele>
        <time>2021-11-20T22:52:03.665Z</time>
      </trkpt>
      <trkpt lat="47.516523" lon="7.694583">
        <ele>303.902392</ele>
        <time>2021-11-20T22:52:05.653Z</time>
      </trkpt>
      <trkpt lat="47.516457" lon="7.694583">
        <ele>304.180628</ele>
        <time>2021-11-20T22:52:09.376Z</time>
      </trkpt>
      <trkpt lat="47.516171" lon="7.694629">
        <ele>305.667065</ele>
        <time>2021-11-20T22:52:21.305Z</time>
      </trkpt>
      <trkpt lat="47.516061" lon="7.694636">
        <ele>306.284840</ele>
        <time>2021-11-20T22:52:27.358Z</time>
      </trkpt>
      <trkpt lat="47.515914" lon="7.694689">
        <ele>307.133751</ele>
        <time>2021-11-20T22:52:33.829Z</time>
      </trkpt>
      <trkpt lat="47.515594" lon="7.694838">
        <ele>309.015946</ele>
        <time>2021-11-20T22:52:49.602Z</time>
      </trkpt>
      <trkpt lat="47.515415" lon="7.694867">
        <ele>310.026301</ele>
        <time>2021-11-20T22:52:57.462Z</time>
      </trkpt>
      <trkpt lat="47.515285" lon="7.694889">
        <ele>310.760473</ele>
        <time>2021-11-20T22:53:03.772Z</time>
      </trkpt>
      <trkpt lat="47.515054" lon="7.694872">
        <ele>312.058203</ele>
        <time>2021-11-20T22:53:13.144Z</time>
      </trkpt>
      <trkpt lat="47.514816" lon="7.694816">
        <ele>313.410366</ele>
        <time>2021-11-20T22:53:22.988Z</time>
      </trkpt>
      <trkpt lat="47.514725" lon="7.694795">
        <ele>313.927127</ele>
        <time>2021-11-20T22:53:26.377Z</time>
      </trkpt>
      <trkpt lat="47.514592" lon="7.694781">
        <ele>314.670195</ele>
        <time>2021-11-20T22:53:31.900Z</time>
      </trkpt>
      <trkpt lat="47.514592" lon="7.694781">
        <ele>314.670195</ele>
        <time>2021-11-20T22:53:31.945Z</time>
      </trkpt>
      <trkpt lat="47.513936" lon="7.693997">
        <ele>317.955200</ele>
        <time>2021-11-20T22:54:01.522Z</time>
      </trkpt>
      <trkpt lat="47.513623" lon="7.693653">
        <ele>319.474131</ele>
        <time>2021-11-20T22:54:15.119Z</time>
      </trkpt>
      <trkpt lat="47.512753" lon="7.693164">
        <ele>323.689790</ele>
        <time>2021-11-20T22:54:47.022Z</time>
      </trkpt>
      <trkpt lat="47.512654" lon="7.693072">
        <ele>324.332628</ele>
        <time>2021-11-20T22:54:51.739Z</time>
      </trkpt>
      <trkpt lat="47.512475" lon="7.692907">
        <ele>325.492288</ele>
        <time>2021-11-20T22:55:00.466Z</time>
      </trkpt>
      <trkpt lat="47.511838" lon="7.691791">
        <ele>330.919921</ele>
        <time>2021-11-20T22:55:43.323Z</time>
      </trkpt>
      <trkpt lat="47.511667" lon="7.691581">
        <ele>332.526594</ele>
        <time>2021-11-20T22:55:55.744Z</time>
      </trkpt>
      <trkpt lat="47.511548" lon="7.691477">
        <ele>333.788588</ele>
        <time>2021-11-20T22:56:02.462Z</time>
      </trkpt>
      <trkpt lat="47.511185" lon="7.691269">
        <ele>337.343334</ele>
        <time>2021-11-20T22:56:22.056Z</time>
      </trkpt>
      <trkpt lat="47.510865" lon="7.691084">
        <ele>340.480661</ele>
        <time>2021-11-20T22:56:39.933Z</time>
      </trkpt>
      <trkpt lat="47.510633" lon="7.690805">
        <ele>343.210329</ele>
        <time>2021-11-20T22:56:56.115Z</time>
      </trkpt>
      <trkpt lat="47.510637" lon="7.690723">
        <ele>343.717472</ele>
        <time>2021-11-20T22:56:58.897Z</time>
      </trkpt>
      <trkpt lat="47.510606" lon="7.690494">
        <ele>345.158175</ele>
        <time>2021-11-20T22:57:08.523Z</time>
      </trkpt>
      <trkpt lat="47.510602" lon="7.690223">
        <ele>346.830269</ele>
        <time>2021-11-20T22:57:18.785Z</time>
      </trkpt>
      <trkpt lat="47.510403" lon="7.689323">
        <ele>354.777697</ele>
        <time>2021-11-20T22:58:00.223Z</time>
      </trkpt>
      <trkpt lat="47.510313" lon="7.689084">
        <ele>357.224083</ele>
        <time>2021-11-20T22:58:13.274Z</time>
      </trkpt>
      <trkpt lat="47.510209" lon="7.688788">
        <ele>360.207060</ele>
        <time>2021-11-20T22:58:29.173Z</time>
      </trkpt>
      <trkpt lat="47.510147" lon="7.688532">
        <ele>362.638486</ele>
        <time>2021-11-20T22:58:41.909Z</time>
      </trkpt>
      <trkpt lat="47.510127" lon="7.688247">
        <ele>365.200227</ele>
        <time>2021-11-20T22:58:56.049Z</time>
      </trkpt>
      <trkpt lat="47.510130" lon="7.688042">
        <ele>367.033448</ele>
        <time>2021-11-20T22:59:04.651Z</time>
      </trkpt>
      <trkpt lat="47.510117" lon="7.687677">
        <ele>370.301245</ele>
        <time>2021-11-20T22:59:22.984Z</time>
      </trkpt>
      <trkpt lat="47.509884" lon="7.686341">
        <ele>383.432907</ele>
        <time>2021-11-20T23:00:28.206Z</time>
      </trkpt>
      <trkpt lat="47.509939" lon="7.685485">
        <ele>391.684394</ele>
        <time>2021-11-20T23:01:12.365Z</time>
      </trkpt>
      <trkpt lat="47.509798" lon="7.684144">
        <ele>404.913070</ele>
        <time>2021-11-20T23:02:15.759Z</time>
      </trkpt>
      <trkpt lat="47.509798" lon="7.683903">
        <ele>407.290200</ele>
        <time>2021-11-20T23:02:28.263Z</time>
      </trkpt>
      <trkpt lat="47.509852" lon="7.683665">
        <ele>409.766638</ele>
        <time>2021-11-20T23:02:41.468Z</time>
      </trkpt>
      <trkpt lat="47.509894" lon="7.683204">
        <ele>414.354932</ele>
        <time>2021-11-20T23:03:05.178Z</time>
      </trkpt>
      <trkpt lat="47.509891" lon="7.682887">
        <ele>417.481998</ele>
        <time>2021-11-20T23:03:20.597Z</time>
      </trkpt>
      <trkpt lat="47.509848" lon="7.682678">
        <ele>419.636999</ele>
        <time>2021-11-20T23:03:32.159Z</time>
      </trkpt>
      <trkpt lat="47.509706" lon="7.682330">
        <ele>423.640100</ele>
        <time>2021-11-20T23:03:51.936Z</time>
      </trkpt>
      <trkpt lat="47.509678" lon="7.682278">
        <ele>424.167445</ele>
        <time>2021-11-20T23:03:56.234Z</time>
      </trkpt>
      <trkpt lat="47.509450" lon="7.681851">
        <ele>428.483731</ele>
        <time>2021-11-20T23:04:23.650Z</time>
      </trkpt>
      <trkpt lat="47.509233" lon="7.681400">
        <ele>432.874730</ele>
        <time>2021-11-20T23:04:48.052Z</time>
      </trkpt>
      <trkpt lat="47.509095" lon="7.680864">
        <ele>437.423504</ele>
        <time>2021-11-20T23:05:13.360Z</time>
      </trkpt>
      <trkpt lat="47.509059" lon="7.680504">
        <ele>440.309425</ele>
        <time>2021-11-20T23:05:27.332Z</time>
      </trkpt>
      <trkpt lat="47.509244" lon="7.678419">
        <ele>451.535728</ele>
        <time>2021-11-20T23:06:30.673Z</time>
      </trkpt>
      <trkpt lat="47.509271" lon="7.678316">
        <ele>452.022368</ele>
        <time>2021-11-20T23:06:34.587Z</time>
      </trkpt>
      <trkpt lat="47.509362" lon="7.677972">
        <ele>453.649604</ele>
        <time>2021-11-20T23:06:41.731Z</time>
      </trkpt>
      <trkpt lat="47.509545" lon="7.677432">
        <ele>456.310646</ele>
        <time>2021-11-20T23:06:55.051Z</time>
      </trkpt>
      <trkpt lat="47.509746" lon="7.677084">
        <ele>458.539103</ele>
        <time>2021-11-20T23:07:05.112Z</time>
      </trkpt>
      <trkpt lat="47.509821" lon="7.676771">
        <ele>460.167321</ele>
        <time>2021-11-20T23:07:13.059Z</time>
      </trkpt>
      <trkpt lat="47.509879" lon="7.676596">
        <ele>461.122996</ele>
        <time>2021-11-20T23:07:20.781Z</time>
      </trkpt>
      <trkpt lat="47.510007" lon="7.676193">
        <ele>463.306281</ele>
        <time>2021-11-20T23:07:39.379Z</time>
      </trkpt>
      <trkpt lat="47.510078" lon="7.675938">
        <ele>464.658493</ele>
        <time>2021-11-20T23:07:51.856Z</time>
      </trkpt>
      <trkpt lat="47.510097" lon="7.675649">
        <ele>466.082041</ele>
        <time>2021-11-20T23:08:06.097Z</time>
      </trkpt>
      <trkpt lat="47.510088" lon="7.675532">
        <ele>466.659354</ele>
        <time>2021-11-20T23:08:11.872Z</time>
      </trkpt>
      <trkpt lat="47.510063" lon="7.675198">
        <ele>468.306847</ele>
        <time>2021-11-20T23:08:25.347Z</time>
      </trkpt>
      <trkpt lat="47.510013" lon="7.675071">
        <ele>469.027522</ele>
        <time>2021-11-20T23:08:35.981Z</time>
      </trkpt>
      <trkpt lat="47.509927" lon="7.674954">
        <ele>470.012883</ele>
        <time>2021-11-20T23:08:43.543Z</time>
      </trkpt>
      <trkpt lat="47.509869" lon="7.674897">
        <ele>470.708657</ele>
        <time>2021-11-20T23:08:47.725Z</time>
      </trkpt>
      <trkpt lat="47.509860" lon="7.674889">
        <ele>470.813576</ele>
        <time>2021-11-20T23:08:48.545Z</time>
      </trkpt>
      <trkpt lat="47.509805" lon="7.674838">
        <ele>471.462194</ele>
        <time>2021-11-20T23:08:52.712Z</time>
      </trkpt>
      <trkpt lat="47.509805" lon="7.674838">
        <ele>471.462194</ele>
        <time>2021-11-20T23:08:52.776Z</time>
      </trkpt>
      <trkpt lat="47.509752" lon="7.674789">
        <ele>472.086707</ele>
        <time>2021-11-20T23:09:00.815Z</time>
      </trkpt>
      <trkpt lat="47.509582" lon="7.674682">
        <ele>473.932947</ele>
        <time>2021-11-20T23:09:13.728Z</time>
      </trkpt>
      <trkpt lat="47.508679" lon="7.674698">
        <ele>482.958613</ele>
        <time>2021-11-20T23:10:30.767Z</time>
      </trkpt>
      <trkpt lat="47.508583" lon="7.674629">
        <ele>484.025185</ele>
        <time>2021-11-20T23:10:38.052Z</time>
      </trkpt>
      <trkpt lat="47.508515" lon="7.674474">
        <ele>485.272934</ele>
        <time>2021-11-20T23:10:46.206Z</time>
      </trkpt>
      <trkpt lat="47.508505" lon="7.674451">
        <ele>485.457594</ele>
        <time>2021-11-20T23:10:47.633Z</time>
      </trkpt>
      <trkpt lat="47.508425" lon="7.674070">
        <ele>487.739772</ele>
        <time>2021-11-20T23:11:07.911Z</time>
      </trkpt>
      <trkpt lat="47.508401" lon="7.673736">
        <ele>488.603405</ele>
        <time>2021-11-20T23:11:22.516Z</time>
      </trkpt>
      <trkpt lat="47.508436" lon="7.673406">
        <ele>489.462304</ele>
        <time>2021-11-20T23:11:35.383Z</time>
      </trkpt>
      <trkpt lat="47.508446" lon="7.672692">
        <ele>491.298549</ele>
        <time>2021-11-20T23:12:01.558Z</time>
      </trkpt>
      <trkpt lat="47.508497" lon="7.672266">
        <ele>492.410958</ele>
        <time>2021-11-20T23:12:15.402Z</time>
      </trkpt>
      <trkpt lat="47.508476" lon="7.671476">
        <ele>494.335875</ele>
        <time>2021-11-20T23:12:38.142Z</time>
      </trkpt>
      <trkpt lat="47.508439" lon="7.670868">
        <ele>494.373306</ele>
        <time>2021-11-20T23:12:51.341Z</time>
      </trkpt>
      <trkpt lat="47.508400" lon="7.670630">
        <ele>494.388322</ele>
        <time>2021-11-20T23:12:53.325Z</time>
      </trkpt>
      <trkpt lat="47.508334" lon="7.668961">
        <ele>494.490831</ele>
        <time>2021-11-20T23:13:09.809Z</time>
      </trkpt>
      <trkpt lat="47.508311" lon="7.668787">
        <ele>494.703614</ele>
        <time>2021-11-20T23:13:11.506Z</time>
      </trkpt>
      <trkpt lat="47.508285" lon="7.668641">
        <ele>495.072529</ele>
        <time>2021-11-20T23:13:12.747Z</time>
      </trkpt>
      <trkpt lat="47.508251" lon="7.668646">
        <ele>495.196118</ele>
        <time>2021-11-20T23:13:13.665Z</time>
      </trkpt>
      <trkpt lat="47.508215" lon="7.668664">
        <ele>495.333562</ele>
        <time>2021-11-20T23:13:14.670Z</time>
      </trkpt>
      <trkpt lat="47.508195" lon="7.668698">
        <ele>495.443719</ele>
        <time>2021-11-20T23:13:15.826Z</time>
      </trkpt>
      <trkpt lat="47.508096" lon="7.668696">
        <ele>495.801851</ele>
        <time>2021-11-20T23:13:17.944Z</time>
      </trkpt>
      <trkpt lat="47.507055" lon="7.668067">
        <ele>499.868873</ele>
        <time>2021-11-20T23:13:49.886Z</time>
      </trkpt>
      <trkpt lat="47.506716" lon="7.667934">
        <ele>501.307738</ele>
        <time>2021-11-20T23:14:03.289Z</time>
      </trkpt>
      <trkpt lat="47.506336" lon="7.667946">
        <ele>504.417815</ele>
        <time>2021-11-20T23:14:21.978Z</time>
      </trkpt>
      <trkpt lat="47.505893" lon="7.667768">
        <ele>508.173837</ele>
        <time>2021-11-20T23:14:46.510Z</time>
      </trkpt>
      <trkpt lat="47.505709" lon="7.667844">
        <ele>509.736934</ele>
        <time>2021-11-20T23:14:53.420Z</time>
      </trkpt>
      <trkpt lat="47.505364" lon="7.668163">
        <ele>513.065344</ele>
        <time>2021-11-20T23:15:12.165Z</time>
      </trkpt>
      <trkpt lat="47.505295" lon="7.668259">
        <ele>513.840165</ele>
        <time>2021-11-20T23:15:17.808Z</time>
      </trkpt>
      <trkpt lat="47.505273" lon="7.668282">
        <ele>514.060547</ele>
        <time>2021-11-20T23:15:20.638Z</time>
      </trkpt>
      <trkpt lat="47.505003" lon="7.668423">
        <ele>516.550737</ele>
        <time>2021-11-20T23:15:33.759Z</time>
      </trkpt>
      <trkpt lat="47.504784" lon="7.668451">
        <ele>518.737537</ele>
        <time>2021-11-20T23:15:46.215Z</time>
      </trkpt>
      <trkpt lat="47.503852" lon="7.668457">
        <ele>528.009488</ele>
        <time>2021-11-20T23:16:39.323Z</time>
      </trkpt>
      <trkpt lat="47.503644" lon="7.668446">
        <ele>530.080065</ele>
        <time>2021-11-20T23:16:49.024Z</time>
      </trkpt>
      <trkpt lat="47.503078" lon="7.668512">
        <ele>535.624012</ele>
        <time>2021-11-20T23:17:21.203Z</time>
      </trkpt>
      <trkpt lat="47.502894" lon="7.668475">
        <ele>537.380245</ele>
        <time>2021-11-20T23:17:30.061Z</time>
      </trkpt>
      <trkpt lat="47.502567" lon="7.667896">
        <ele>542.202134</ele>
        <time>2021-11-20T23:18:00.228Z</time>
      </trkpt>
      <trkpt lat="47.502382" lon="7.667723">
        <ele>544.271744</ele>
        <time>2021-11-20T23:18:10.468Z</time>
      </trkpt>
      <trkpt lat="47.502331" lon="7.667705">
        <ele>544.767617</ele>
        <time>2021-11-20T23:18:14.571Z</time>
      </trkpt>
      <trkpt lat="47.502292" lon="7.667688">
        <ele>545.152135</ele>
        <time>2021-11-20T23:18:17.651Z</time>
      </trkpt>
      <trkpt lat="47.502151" lon="7.667642">
        <ele>546.517699</ele>
        <time>2021-11-20T23:18:23.404Z</time>
      </trkpt>
      <trkpt lat="47.502006" lon="7.667624">
        <ele>547.893905</ele>
        <time>2021-11-20T23:18:30.437Z</time>
      </trkpt>
      <trkpt lat="47.501882" lon="7.667549">
        <ele>549.160808</ele>
        <time>2021-11-20T23:18:38.381Z</time>
      </trkpt>
      <trkpt lat="47.501738" lon="7.667367">
        <ele>550.902994</ele>
        <time>2021-11-20T23:18:45.344Z</time>
      </trkpt>
      <trkpt lat="47.501725" lon="7.667123">
        <ele>552.233991</ele>
        <time>2021-11-20T23:18:54.912Z</time>
      </trkpt>
      <trkpt lat="47.502047" lon="7.666538">
        <ele>556.337460</ele>
        <time>2021-11-20T23:19:17.100Z</time>
      </trkpt>
      <trkpt lat="47.502211" lon="7.666089">
        <ele>559.113139</ele>
        <time>2021-11-20T23:19:33.441Z</time>
      </trkpt>
      <trkpt lat="47.502398" lon="7.665168">
        <ele>564.342814</ele>
        <time>2021-11-20T23:20:04.794Z</time>
      </trkpt>
      <trkpt lat="47.502680" lon="7.664603">
        <ele>568.485296</ele>
        <time>2021-11-20T23:20:26.145Z</time>
      </trkpt>
      <trkpt lat="47.502656" lon="7.664371">
        <ele>569.896104</ele>
        <time>2021-11-20T23:20:33.628Z</time>
      </trkpt>
      <trkpt lat="47.502470" lon="7.664143">
        <ele>572.044902</ele>
        <time>2021-11-20T23:20:46.006Z</time>
      </trkpt>
      <trkpt lat="47.502341" lon="7.664057">
        <ele>573.303765</ele>
        <time>2021-11-20T23:20:54.093Z</time>
      </trkpt>
      <trkpt lat="47.502215" lon="7.663950">
        <ele>574.596289</ele>
        <time>2021-11-20T23:21:02.616Z</time>
      </trkpt>
      <trkpt lat="47.502113" lon="7.663831">
        <ele>575.751876</ele>
        <time>2021-11-20T23:21:09.074Z</time>
      </trkpt>
      <trkpt lat="47.501982" lon="7.663470">
        <ele>578.215117</ele>
        <time>2021-11-20T23:21:24.214Z</time>
      </trkpt>
      <trkpt lat="47.501929" lon="7.662724">
        <ele>582.059731</ele>
        <time>2021-11-20T23:21:50.146Z</time>
      </trkpt>
      <trkpt lat="47.501880" lon="7.662547">
        <ele>582.737102</ele>
        <time>2021-11-20T23:21:56.579Z</time>
      </trkpt>
      <trkpt lat="47.501814" lon="7.662406">
        <ele>583.344549</ele>
        <time>2021-11-20T23:22:00.859Z</time>
      </trkpt>
      <trkpt lat="47.501739" lon="7.662303">
        <ele>583.880824</ele>
        <time>2021-11-20T23:22:05.688Z</time>
      </trkpt>
      <trkpt lat="47.501540" lon="7.662165">
        <ele>585.032735</ele>
        <time>2021-11-20T23:22:14.913Z</time>
      </trkpt>
      <trkpt lat="47.501427" lon="7.662094">
        <ele>585.676209</ele>
        <time>2021-11-20T23:22:18.442Z</time>
      </trkpt>
      <trkpt lat="47.501357" lon="7.661880">
        <ele>586.518183</ele>
        <time>2021-11-20T23:22:22.542Z</time>
      </trkpt>
      <trkpt lat="47.501296" lon="7.661615">
        <ele>587.509582</ele>
        <time>2021-11-20T23:22:27.387Z</time>
      </trkpt>
      <trkpt lat="47.501272" lon="7.661516">
        <ele>587.882050</ele>
        <time>2021-11-20T23:22:29.202Z</time>
      </trkpt>
      <trkpt lat="47.501255" lon="7.661462">
        <ele>588.093018</ele>
        <time>2021-11-20T23:22:30.345Z</time>
      </trkpt>
      <trkpt lat="47.501224" lon="7.661406">
        <ele>588.349398</ele>
        <time>2021-11-20T23:22:31.594Z</time>
      </trkpt>
      <trkpt lat="47.501172" lon="7.661341">
        <ele>588.706159</ele>
        <time>2021-11-20T23:22:33.186Z</time>
      </trkpt>
      <trkpt lat="47.501134" lon="7.661306">
        <ele>588.940760</ele>
        <time>2021-11-20T23:22:34.343Z</time>
      </trkpt>
      <trkpt lat="47.500892" lon="7.661159">
        <ele>590.311929</ele>
        <time>2021-11-20T23:22:42.846Z</time>
      </trkpt>
      <trkpt lat="47.500378" lon="7.660739">
        <ele>592.645690</ele>
        <time>2021-11-20T23:23:00.283Z</time>
      </trkpt>
      <trkpt lat="47.500168" lon="7.660591">
        <ele>593.547158</ele>
        <time>2021-11-20T23:23:05.466Z</time>
      </trkpt>
      <trkpt lat="47.499828" lon="7.660558">
        <ele>594.867763</ele>
        <time>2021-11-20T23:23:14.388Z</time>
      </trkpt>
      <trkpt lat="47.499384" lon="7.660566">
        <ele>596.588750</ele>
        <time>2021-11-20T23:23:28.360Z</time>
      </trkpt>
      <trkpt lat="47.498649" lon="7.660737">
        <ele>600.475216</ele>
        <time>2021-11-20T23:23:56.901Z</time>
      </trkpt>
      <trkpt lat="47.498030" lon="7.660538">
        <ele>604.182525</ele>
        <time>2021-11-20T23:24:24.990Z</time>
      </trkpt>
      <trkpt lat="47.497005" lon="7.659684">
        <ele>609.647295</ele>
        <time>2021-11-20T23:25:05.635Z</time>
      </trkpt>
      <trkpt lat="47.496700" lon="7.659355">
        <ele>610.822507</ele>
        <time>2021-11-20T23:25:16.264Z</time>
      </trkpt>
      <trkpt lat="47.496419" lon="7.658896">
        <ele>612.125653</ele>
        <time>2021-11-20T23:25:26.911Z</time>
      </trkpt>
      <trkpt lat="47.495370" lon="7.658146">
        <ele>613.161670</ele>
        <time>2021-11-20T23:25:50.221Z</time>
      </trkpt>
      <trkpt lat="47.495295" lon="7.658106">
        <ele>613.106301</ele>
        <time>2021-11-20T23:25:51.629Z</time>
      </trkpt>
      <trkpt lat="47.495132" lon="7.658047">
        <ele>612.989754</ele>
        <time>2021-11-20T23:25:54.373Z</time>
      </trkpt>
      <trkpt lat="47.494878" lon="7.657874">
        <ele>612.795557</ele>
        <time>2021-11-20T23:25:57.528Z</time>
      </trkpt>
      <trkpt lat="47.493869" lon="7.656901">
        <ele>610.995389</ele>
        <time>2021-11-20T23:26:09.886Z</time>
      </trkpt>
      <trkpt lat="47.493727" lon="7.656848">
        <ele>610.663533</ele>
        <time>2021-11-20T23:26:11.319Z</time>
      </trkpt>
      <trkpt lat="47.493625" lon="7.656806">
        <ele>610.423616</ele>
        <time>2021-11-20T23:26:12.337Z</time>
      </trkpt>
      <trkpt lat="47.493454" lon="7.656654">
        <ele>609.971602</ele>
        <time>2021-11-20T23:26:14.569Z</time>
      </trkpt>
      <trkpt lat="47.493323" lon="7.656425">
        <ele>609.512187</ele>
        <time>2021-11-20T23:26:16.798Z</time>
      </trkpt>
      <trkpt lat="47.492960" lon="7.655784">
        <ele>608.361791</ele>
        <time>2021-11-20T23:26:23.493Z</time>
      </trkpt>
      <trkpt lat="47.492898" lon="7.656011">
        <ele>608.615618</ele>
        <time>2021-11-20T23:26:25.561Z</time>
      </trkpt>
      <trkpt lat="47.492834" lon="7.656127">
        <ele>608.770871</ele>
        <time>2021-11-20T23:26:26.858Z</time>
      </trkpt>
      <trkpt lat="47.492655" lon="7.656259">
        <ele>609.077711</ele>
        <time>2021-11-20T23:26:29.116Z</time>
      </trkpt>
      <trkpt lat="47.492368" lon="7.656441">
        <ele>609.556770</ele>
        <time>2021-11-20T23:26:35.106Z</time>
      </trkpt>
      <trkpt lat="47.492098" lon="7.656633">
        <ele>610.016365</ele>
        <time>2021-11-20T23:26:41.627Z</time>
      </trkpt>
      <trkpt lat="47.491848" lon="7.656926">
        <ele>610.505643</ele>
        <time>2021-11-20T23:26:50.207Z</time>
      </trkpt>
      <trkpt lat="47.491315" lon="7.657218">
        <ele>611.948429</ele>
        <time>2021-11-20T23:27:08.147Z</time>
      </trkpt>
      <trkpt lat="47.490868" lon="7.657356">
        <ele>613.944017</ele>
        <time>2021-11-20T23:27:23.214Z</time>
      </trkpt>
      <trkpt lat="47.490491" lon="7.657402">
        <ele>615.597219</ele>
        <time>2021-11-20T23:27:34.580Z</time>
      </trkpt>
      <trkpt lat="47.490095" lon="7.657387">
        <ele>617.328434</ele>
        <time>2021-11-20T23:27:46.686Z</time>
      </trkpt>
      <trkpt lat="47.489998" lon="7.657426">
        <ele>617.767722</ele>
        <time>2021-11-20T23:27:49.622Z</time>
      </trkpt>
      <trkpt lat="47.489839" lon="7.657570">
        <ele>618.582398</ele>
        <time>2021-11-20T23:27:56.287Z</time>
      </trkpt>
      <trkpt lat="47.489641" lon="7.657751">
        <ele>619.984411</ele>
        <time>2021-11-20T23:28:03.667Z</time>
      </trkpt>
      <trkpt lat="47.488222" lon="7.658466">
        <ele>630.299172</ele>
        <time>2021-11-20T23:29:07.913Z</time>
      </trkpt>
      <trkpt lat="47.488006" lon="7.658683">
        <ele>632.301299</ele>
        <time>2021-11-20T23:29:20.980Z</time>
      </trkpt>
      <trkpt lat="47.487823" lon="7.658963">
        <ele>634.584469</ele>
        <time>2021-11-20T23:29:34.509Z</time>
      </trkpt>
      <trkpt lat="47.487746" lon="7.659067">
        <ele>635.488702</ele>
        <time>2021-11-20T23:29:39.671Z</time>
      </trkpt>
      <trkpt lat="47.487696" lon="7.659164">
        <ele>636.203772</ele>
        <time>2021-11-20T23:29:44.133Z</time>
      </trkpt>
      <trkpt lat="47.487466" lon="7.659584">
        <ele>639.372370</ele>
        <time>2021-11-20T23:30:02.726Z</time>
      </trkpt>
      <trkpt lat="47.487708" lon="7.660023">
        <ele>642.693039</ele>
        <time>2021-11-20T23:30:22.133Z</time>
      </trkpt>
      <trkpt lat="47.487727" lon="7.660149">
        <ele>643.449722</ele>
        <time>2021-11-20T23:30:26.623Z</time>
      </trkpt>
      <trkpt lat="47.487727" lon="7.660396">
        <ele>644.897454</ele>
        <time>2021-11-20T23:30:35.211Z</time>
      </trkpt>
      <trkpt lat="47.487791" lon="7.660726">
        <ele>646.909467</ele>
        <time>2021-11-20T23:30:47.271Z</time>
      </trkpt>
      <trkpt lat="47.488398" lon="7.662127">
        <ele>655.601959</ele>
        <time>2021-11-20T23:31:37.700Z</time>
      </trkpt>
      <trkpt lat="47.488562" lon="7.662648">
        <ele>658.603941</ele>
        <time>2021-11-20T23:31:55.844Z</time>
      </trkpt>
      <trkpt lat="47.488788" lon="7.663703">
        <ele>663.984689</ele>
        <time>2021-11-20T23:32:28.949Z</time>
      </trkpt>
      <trkpt lat="47.488770" lon="7.663949">
        <ele>665.132525</ele>
        <time>2021-11-20T23:32:36.038Z</time>
      </trkpt>
      <trkpt lat="47.488654" lon="7.664239">
        <ele>666.695828</ele>
        <time>2021-11-20T23:32:45.626Z</time>
      </trkpt>
      <trkpt lat="47.488619" lon="7.664308">
        <ele>667.096059</ele>
        <time>2021-11-20T23:32:48.839Z</time>
      </trkpt>
      <trkpt lat="47.488583" lon="7.664379">
        <ele>667.507831</ele>
        <time>2021-11-20T23:32:50.924Z</time>
      </trkpt>
      <trkpt lat="47.488568" lon="7.664426">
        <ele>667.748953</ele>
        <time>2021-11-20T23:32:52.046Z</time>
      </trkpt>
      <trkpt lat="47.488554" lon="7.664485">
        <ele>668.039033</ele>
        <time>2021-11-20T23:32:53.578Z</time>
      </trkpt>
      <trkpt lat="47.488545" lon="7.664580">
        <ele>668.484038</ele>
        <time>2021-11-20T23:32:57.468Z</time>
      </trkpt>
      <trkpt lat="47.488490" lon="7.665159">
        <ele>671.196372</ele>
        <time>2021-11-20T23:33:13.273Z</time>
      </trkpt>
      <trkpt lat="47.488064" lon="7.665788">
        <ele>674.897377</ele>
        <time>2021-11-20T23:33:37.184Z</time>
      </trkpt>
      <trkpt lat="47.487374" lon="7.666070">
        <ele>678.837536</ele>
        <time>2021-11-20T23:34:03.938Z</time>
      </trkpt>
      <trkpt lat="47.487095" lon="7.666096">
        <ele>680.376283</ele>
        <time>2021-11-20T23:34:12.029Z</time>
      </trkpt>
      <trkpt lat="47.487040" lon="7.666069">
        <ele>680.695244</ele>
        <time>2021-11-20T23:34:14.154Z</time>
      </trkpt>
      <trkpt lat="47.486993" lon="7.666016">
        <ele>681.020498</ele>
        <time>2021-11-20T23:34:16.384Z</time>
      </trkpt>
      <trkpt lat="47.486777" lon="7.665741">
        <ele>682.588892</ele>
        <time>2021-11-20T23:34:27.264Z</time>
      </trkpt>
      <trkpt lat="47.486496" lon="7.665749">
        <ele>684.146817</ele>
        <time>2021-11-20T23:34:37.195Z</time>
      </trkpt>
      <trkpt lat="47.486336" lon="7.665642">
        <ele>685.123054</ele>
        <time>2021-11-20T23:34:44.273Z</time>
      </trkpt>
      <trkpt lat="47.485979" lon="7.664993">
        <ele>688.267306</ele>
        <time>2021-11-20T23:35:05.604Z</time>
      </trkpt>
      <trkpt lat="47.485810" lon="7.664592">
        <ele>690.042996</ele>
        <time>2021-11-20T23:35:16.718Z</time>
      </trkpt>
      <trkpt lat="47.485784" lon="7.664530">
        <ele>690.317162</ele>
        <time>2021-11-20T23:35:19.890Z</time>
      </trkpt>
      <trkpt lat="47.485656" lon="7.664426">
        <ele>691.129073</ele>
        <time>2021-11-20T23:35:24.634Z</time>
      </trkpt>
      <trkpt lat="47.485138" lon="7.664477">
        <ele>693.856129</ele>
        <time>2021-11-20T23:35:43.179Z</time>
      </trkpt>
      <trkpt lat="47.484870" lon="7.664431">
        <ele>695.106438</ele>
        <time>2021-11-20T23:35:53.670Z</time>
      </trkpt>
      <trkpt lat="47.484767" lon="7.664543">
        <ele>695.698783</ele>
        <time>2021-11-20T23:35:58.869Z</time>
      </trkpt>
      <trkpt lat="47.484557" lon="7.664979">
        <ele>697.375557</ele>
        <time>2021-11-20T23:36:12.284Z</time>
      </trkpt>
      <trkpt lat="47.484447" lon="7.664992">
        <ele>697.886949</ele>
        <time>2021-11-20T23:36:15.936Z</time>
      </trkpt>
      <trkpt lat="47.484129" lon="7.663998">
        <ele>701.331158</ele>
        <time>2021-11-20T23:36:36.790Z</time>
      </trkpt>
      <trkpt lat="47.483410" lon="7.662800">
        <ele>705.957145</ele>
        <time>2021-11-20T23:37:08.518Z</time>
      </trkpt>
      <trkpt lat="47.483387" lon="7.662711">
        <ele>706.231963</ele>
        <time>2021-11-20T23:37:11.091Z</time>
      </trkpt>
      <trkpt lat="47.483385" lon="7.662632">
        <ele>706.459971</ele>
        <time>2021-11-20T23:37:12.469Z</time>
      </trkpt>
      <trkpt lat="47.483510" lon="7.661814">
        <ele>708.878776</ele>
        <time>2021-11-20T23:37:31.841Z</time>
      </trkpt>
      <trkpt lat="47.483499" lon="7.661747">
        <ele>709.083199</ele>
        <time>2021-11-20T23:37:33.379Z</time>
      </trkpt>
      <trkpt lat="47.483475" lon="7.661696">
        <ele>709.386874</ele>
        <time>2021-11-20T23:37:35.294Z</time>
      </trkpt>
      <trkpt lat="47.483446" lon="7.661648">
        <ele>709.701488</ele>
        <time>2021-11-20T23:37:36.708Z</time>
      </trkpt>
      <trkpt lat="47.483407" lon="7.661609">
        <ele>710.041836</ele>
        <time>2021-11-20T23:37:38.257Z</time>
      </trkpt>
      <trkpt lat="47.483337" lon="7.661573">
        <ele>710.577673</ele>
        <time>2021-11-20T23:37:41.730Z</time>
      </trkpt>
      <trkpt lat="47.482820" lon="7.661376">
        <ele>714.437829</ele>
        <time>2021-11-20T23:38:02.954Z</time>
      </trkpt>
      <trkpt lat="47.481650" lon="7.660270">
        <ele>723.278459</ele>
        <time>2021-11-20T23:39:10.324Z</time>
      </trkpt>
      <trkpt lat="47.481441" lon="7.660134">
        <ele>724.105791</ele>
        <time>2021-11-20T23:39:20.539Z</time>
      </trkpt>
      <trkpt lat="47.480947" lon="7.659840">
        <ele>726.035219</ele>
        <time>2021-11-20T23:39:38.156Z</time>
      </trkpt>
      <trkpt lat="47.480453" lon="7.659599">
        <ele>727.920066</ele>
        <time>2021-11-20T23:39:52.181Z</time>
      </trkpt>
      <trkpt lat="47.479804" lon="7.659052">
        <ele>723.026255</ele>
        <time>2021-11-20T23:39:59.304Z</time>
      </trkpt>
      <trkpt lat="47.479124" lon="7.658616">
        <ele>715.678019</ele>
        <time>2021-11-20T23:40:05.584Z</time>
      </trkpt>
      <trkpt lat="47.479069" lon="7.658557">
        <ele>715.004431</ele>
        <time>2021-11-20T23:40:06.143Z</time>
      </trkpt>
      <trkpt lat="47.479037" lon="7.658508">
        <ele>714.547817</ele>
        <time>2021-11-20T23:40:06.516Z</time>
      </trkpt>
      <trkpt lat="47.478885" lon="7.658127">
        <ele>711.582967</ele>
        <time>2021-11-20T23:40:09.061Z</time>
      </trkpt>
      <trkpt lat="47.478869" lon="7.658105">
        <ele>711.366395</ele>
        <time>2021-11-20T23:40:09.245Z</time>
      </trkpt>
      <trkpt lat="47.478855" lon="7.658094">
        <ele>711.209222</ele>
        <time>2021-11-20T23:40:09.375Z</time>
      </trkpt>
      <trkpt lat="47.478819" lon="7.658086">
        <ele>710.848268</ele>
        <time>2021-11-20T23:40:09.677Z</time>
      </trkpt>
      <trkpt lat="47.478630" lon="7.658136">
        <ele>708.403472</ele>
        <time>2021-11-20T23:40:11.387Z</time>
      </trkpt>
      <trkpt lat="47.478528" lon="7.658207">
        <ele>706.952347</ele>
        <time>2021-11-20T23:40:12.307Z</time>
      </trkpt>
      <trkpt lat="47.478399" lon="7.658328">
        <ele>704.986111</ele>
        <time>2021-11-20T23:40:13.581Z</time>
      </trkpt>
      <trkpt lat="47.478311" lon="7.658423">
        <ele>703.583777</ele>
        <time>2021-11-20T23:40:14.534Z</time>
      </trkpt>
      <trkpt lat="47.478222" lon="7.658520">
        <ele>702.160771</ele>
        <time>2021-11-20T23:40:15.430Z</time>
      </trkpt>
      <trkpt lat="47.477975" lon="7.658805">
        <ele>698.128488</ele>
        <time>2021-11-20T23:40:18.069Z</time>
      </trkpt>
      <trkpt lat="47.477714" lon="7.659073">
        <ele>694.038709</ele>
        <time>2021-11-20T23:40:20.722Z</time>
      </trkpt>
      <trkpt lat="47.477346" lon="7.659332">
        <ele>688.792683</ele>
        <time>2021-11-20T23:40:24.184Z</time>
      </trkpt>
      <trkpt lat="47.477220" lon="7.659353">
        <ele>687.391407</ele>
        <time>2021-11-20T23:40:25.299Z</time>
      </trkpt>
      <trkpt lat="47.477160" lon="7.659316">
        <ele>686.990438</ele>
        <time>2021-11-20T23:40:25.847Z</time>
      </trkpt>
      <trkpt lat="47.477138" lon="7.659290">
        <ele>686.816753</ele>
        <time>2021-11-20T23:40:26.197Z</time>
      </trkpt>
      <trkpt lat="47.477102" lon="7.659181">
        <ele>686.310958</ele>
        <time>2021-11-20T23:40:27.239Z</time>
      </trkpt>
      <trkpt lat="47.477066" lon="7.659026">
        <ele>685.627645</ele>
        <time>2021-11-20T23:40:28.624Z</time>
      </trkpt>
      <trkpt lat="47.477025" lon="7.658869">
        <ele>684.925924</ele>
        <time>2021-11-20T23:40:30.062Z</time>
      </trkpt>
      <trkpt lat="47.476937" lon="7.658689">
        <ele>683.999727</ele>
        <time>2021-11-20T23:40:32.012Z</time>
      </trkpt>
      <trkpt lat="47.476789" lon="7.658596">
        <ele>683.007867</ele>
        <time>2021-11-20T23:40:34.175Z</time>
      </trkpt>
      <trkpt lat="47.476684" lon="7.658598">
        <ele>682.360123</ele>
        <time>2021-11-20T23:40:35.498Z</time>
      </trkpt>
      <trkpt lat="47.476609" lon="7.658624">
        <ele>681.884958</ele>
        <time>2021-11-20T23:40:36.571Z</time>
      </trkpt>
      <trkpt lat="47.476280" lon="7.658852">
        <ele>679.643934</ele>
        <time>2021-11-20T23:40:41.577Z</time>
      </trkpt>
      <trkpt lat="47.476193" lon="7.658883">
        <ele>679.091933</ele>
        <time>2021-11-20T23:40:42.814Z</time>
      </trkpt>
      <trkpt lat="47.476158" lon="7.658895">
        <ele>678.870315</ele>
        <time>2021-11-20T23:40:43.287Z</time>
      </trkpt>
      <trkpt lat="47.476012" lon="7.658932">
        <ele>677.956602</ele>
        <time>2021-11-20T23:40:45.273Z</time>
      </trkpt>
      <trkpt lat="47.475631" lon="7.658882">
        <ele>676.167228</ele>
        <time>2021-11-20T23:40:50.743Z</time>
      </trkpt>
      <trkpt lat="47.475506" lon="7.658879">
        <ele>675.878145</ele>
        <time>2021-11-20T23:40:52.568Z</time>
      </trkpt>
      <trkpt lat="47.475485" lon="7.658824">
        <ele>675.779416</ele>
        <time>2021-11-20T23:40:52.956Z</time>
      </trkpt>
      <trkpt lat="47.475375" lon="7.658713">
        <ele>675.471526</ele>
        <time>2021-11-20T23:40:54.351Z</time>
      </trkpt>
      <trkpt lat="47.475022" lon="7.658614">
        <ele>674.640727</ele>
        <time>2021-11-20T23:40:57.981Z</time>
      </trkpt>
      <trkpt lat="47.474815" lon="7.658597">
        <ele>674.161332</ele>
        <time>2021-11-20T23:41:00.202Z</time>
      </trkpt>
      <trkpt lat="47.474725" lon="7.658608">
        <ele>673.952511</ele>
        <time>2021-11-20T23:41:01.129Z</time>
      </trkpt>
      <trkpt lat="47.474502" lon="7.658671">
        <ele>673.427538</ele>
        <time>2021-11-20T23:41:03.864Z</time>
      </trkpt>
      <trkpt lat="47.474374" lon="7.658673">
        <ele>673.131539</ele>
        <time>2021-11-20T23:41:05.355Z</time>
      </trkpt>
      <trkpt lat="47.474283" lon="7.658674">
        <ele>672.921109</ele>
        <time>2021-11-20T23:41:06.377Z</time>
      </trkpt>
      <trkpt lat="47.473883" lon="7.658635">
        <ele>672.547783</ele>
        <time>2021-11-20T23:41:11.566Z</time>
      </trkpt>
      <trkpt lat="47.473725" lon="7.658562">
        <ele>672.760608</ele>
        <time>2021-11-20T23:41:14.591Z</time>
      </trkpt>
      <trkpt lat="47.473626" lon="7.658488">
        <ele>672.903221</ele>
        <time>2021-11-20T23:41:15.948Z</time>
      </trkpt>
      <trkpt lat="47.473566" lon="7.658404">
        <ele>673.009432</ele>
        <time>2021-11-20T23:41:17.171Z</time>
      </trkpt>
      <trkpt lat="47.473513" lon="7.658280">
        <ele>673.136935</ele>
        <time>2021-11-20T23:41:19.122Z</time>
      </trkpt>
      <trkpt lat="47.473421" lon="7.658372">
        <ele>673.279712</ele>
        <time>2021-11-20T23:41:21.805Z</time>
      </trkpt>
      <trkpt lat="47.473291" lon="7.658442">
        <ele>673.457586</ele>
        <time>2021-11-20T23:41:24.473Z</time>
      </trkpt>
      <trkpt lat="47.473172" lon="7.658463">
        <ele>673.611675</ele>
        <time>2021-11-20T23:41:27.959Z</time>
      </trkpt>
      <trkpt lat="47.473080" lon="7.658445">
        <ele>673.730994</ele>
        <time>2021-11-20T23:41:30.634Z</time>
      </trkpt>
      <trkpt lat="47.472996" lon="7.658403">
        <ele>673.844999</ele>
        <time>2021-11-20T23:41:32.407Z</time>
      </trkpt>
      <trkpt lat="47.472938" lon="7.658331">
        <ele>673.942348</ele>
        <time>2021-11-20T23:41:34.598Z</time>
      </trkpt>
      <trkpt lat="47.472791" lon="7.658077">
        <ele>674.232956</ele>
        <time>2021-11-20T23:41:41.817Z</time>
      </trkpt>
      <trkpt lat="47.472515" lon="7.657579">
        <ele>674.962301</ele>
        <time>2021-11-20T23:41:55.664Z</time>
      </trkpt>
      <trkpt lat="47.472110" lon="7.656801">
        <ele>676.928735</ele>
        <time>2021-11-20T23:42:18.894Z</time>
      </trkpt>
      <trkpt lat="47.471992" lon="7.656569">
        <ele>677.510156</ele>
        <time>2021-11-20T23:42:25.580Z</time>
      </trkpt>
      <trkpt lat="47.471543" lon="7.655643">
        <ele>679.792270</ele>
        <time>2021-11-20T23:42:50.055Z</time>
      </trkpt>
      <trkpt lat="47.470196" lon="7.652792">
        <ele>683.324312</ele>
        <time>2021-11-20T23:43:53.524Z</time>
      </trkpt>
      <trkpt lat="47.469818" lon="7.652243">
        <ele>683.438068</ele>
        <time>2021-11-20T23:44:05.339Z</time>
      </trkpt>
      <trkpt lat="47.469453" lon="7.651906">
        <ele>683.530463</ele>
        <time>2021-11-20T23:44:14.290Z</time>
      </trkpt>
      <trkpt lat="47.469233" lon="7.651510">
        <ele>683.604871</ele>
        <time>2021-11-20T23:44:20.671Z</time>
      </trkpt>
      <trkpt lat="47.468783" lon="7.650244">
        <ele>679.351349</ele>
        <time>2021-11-20T23:44:34.789Z</time>
      </trkpt>
      <trkpt lat="47.468342" lon="7.649503">
        <ele>676.394042</ele>
        <time>2021-11-20T23:44:43.632Z</time>
      </trkpt>
      <trkpt lat="47.468103" lon="7.649101">
        <ele>674.001487</ele>
        <time>2021-11-20T23:44:48.223Z</time>
      </trkpt>
      <trkpt lat="47.467764" lon="7.648726">
        <ele>670.376001</ele>
        <time>2021-11-20T23:44:53.469Z</time>
      </trkpt>
      <trkpt lat="47.467233" lon="7.648490">
        <ele>665.627262</ele>
        <time>2021-11-20T23:45:00.258Z</time>
      </trkpt>
      <trkpt lat="47.466467" lon="7.648086">
        <ele>659.021277</ele>
        <time>2021-11-20T23:45:10.343Z</time>
      </trkpt>
      <trkpt lat="47.466337" lon="7.648012">
        <ele>658.101367</ele>
        <time>2021-11-20T23:45:12.105Z</time>
      </trkpt>
      <trkpt lat="47.465940" lon="7.647735">
        <ele>655.202500</ele>
        <time>2021-11-20T23:45:17.706Z</time>
      </trkpt>
      <trkpt lat="47.465660" lon="7.647420">
        <ele>652.879314</ele>
        <time>2021-11-20T23:45:22.230Z</time>
      </trkpt>
      <trkpt lat="47.464677" lon="7.645735">
        <ele>644.187770</ele>
        <time>2021-11-20T23:45:42.605Z</time>
      </trkpt>
      <trkpt lat="47.463527" lon="7.644363">
        <ele>636.894530</ele>
        <time>2021-11-20T23:46:02.436Z</time>
      </trkpt>
      <trkpt lat="47.463179" lon="7.643999">
        <ele>634.914369</ele>
        <time>2021-11-20T23:46:08.230Z</time>
      </trkpt>
      <trkpt lat="47.462868" lon="7.643675">
        <ele>633.147092</ele>
        <time>2021-11-20T23:46:13.418Z</time>
      </trkpt>
      <trkpt lat="47.462346" lon="7.643246">
        <ele>630.621151</ele>
        <time>2021-11-20T23:46:21.738Z</time>
      </trkpt>
      <trkpt lat="47.461821" lon="7.642927">
        <ele>629.351437</ele>
        <time>2021-11-20T23:46:30.011Z</time>
      </trkpt>
      <trkpt lat="47.461684" lon="7.642870">
        <ele>629.033061</ele>
        <time>2021-11-20T23:46:32.187Z</time>
      </trkpt>
      <trkpt lat="47.461287" lon="7.642706">
        <ele>628.110945</ele>
        <time>2021-11-20T23:46:38.973Z</time>
      </trkpt>
      <trkpt lat="47.460769" lon="7.642491">
        <ele>626.907367</ele>
        <time>2021-11-20T23:46:48.196Z</time>
      </trkpt>
      <trkpt lat="47.460652" lon="7.642375">
        <ele>626.727400</ele>
        <time>2021-11-20T23:46:50.531Z</time>
      </trkpt>
      <trkpt lat="47.460535" lon="7.642209">
        <ele>626.572523</ele>
        <time>2021-11-20T23:46:53.456Z</time>
      </trkpt>
      <trkpt lat="47.460419" lon="7.642261">
        <ele>626.456732</ele>
        <time>2021-11-20T23:46:54.974Z</time>
      </trkpt>
      <trkpt lat="47.460338" lon="7.642274">
        <ele>626.378899</ele>
        <time>2021-11-20T23:46:55.921Z</time>
      </trkpt>
      <trkpt lat="47.460268" lon="7.642275">
        <ele>626.312026</ele>
        <time>2021-11-20T23:46:56.891Z</time>
      </trkpt>
      <trkpt lat="47.460185" lon="7.642266">
        <ele>626.232525</ele>
        <time>2021-11-20T23:46:57.913Z</time>
      </trkpt>
      <trkpt lat="47.459021" lon="7.641836">
        <ele>625.081756</ele>
        <time>2021-11-20T23:47:12.904Z</time>
      </trkpt>
      <trkpt lat="47.458698" lon="7.641686">
        <ele>624.694220</ele>
        <time>2021-11-20T23:47:16.931Z</time>
      </trkpt>
      <trkpt lat="47.458678" lon="7.641675">
        <ele>624.669795</ele>
        <time>2021-11-20T23:47:17.177Z</time>
      </trkpt>
      <trkpt lat="47.458278" lon="7.641384">
        <ele>624.159522</ele>
        <time>2021-11-20T23:47:22.259Z</time>
      </trkpt>
      <trkpt lat="47.457789" lon="7.640921">
        <ele>623.494886</ele>
        <time>2021-11-20T23:47:29.412Z</time>
      </trkpt>
      <trkpt lat="47.457516" lon="7.640674">
        <ele>623.128547</ele>
        <time>2021-11-20T23:47:33.401Z</time>
      </trkpt>
      <trkpt lat="47.457465" lon="7.640623">
        <ele>623.058075</ele>
        <time>2021-11-20T23:47:34.075Z</time>
      </trkpt>
      <trkpt lat="47.457280" lon="7.640455">
        <ele>622.782934</ele>
        <time>2021-11-20T23:47:36.824Z</time>
      </trkpt>
      <trkpt lat="47.457054" lon="7.640289">
        <ele>622.462213</ele>
        <time>2021-11-20T23:47:39.674Z</time>
      </trkpt>
      <trkpt lat="47.456721" lon="7.640125">
        <ele>622.016119</ele>
        <time>2021-11-20T23:47:43.844Z</time>
      </trkpt>
      <trkpt lat="47.456617" lon="7.640059">
        <ele>621.872279</ele>
        <time>2021-11-20T23:47:45.505Z</time>
      </trkpt>
      <trkpt lat="47.456458" lon="7.639945">
        <ele>621.647693</ele>
        <time>2021-11-20T23:47:47.447Z</time>
      </trkpt>
      <trkpt lat="47.456258" lon="7.639801">
        <ele>621.364969</ele>
        <time>2021-11-20T23:47:50.067Z</time>
      </trkpt>
      <trkpt lat="47.456116" lon="7.639715">
        <ele>621.169940</ele>
        <time>2021-11-20T23:47:51.738Z</time>
      </trkpt>
      <trkpt lat="47.456084" lon="7.639695">
        <ele>621.125785</ele>
        <time>2021-11-20T23:47:52.118Z</time>
      </trkpt>
      <trkpt lat="47.455959" lon="7.639632">
        <ele>620.957937</ele>
        <time>2021-11-20T23:47:53.819Z</time>
      </trkpt>
      <trkpt lat="47.455509" lon="7.639383">
        <ele>620.399463</ele>
        <time>2021-11-20T23:47:59.457Z</time>
      </trkpt>
      <trkpt lat="47.455394" lon="7.639289">
        <ele>620.253332</ele>
        <time>2021-11-20T23:48:00.989Z</time>
      </trkpt>
      <trkpt lat="47.455336" lon="7.639241">
        <ele>620.179415</ele>
        <time>2021-11-20T23:48:01.876Z</time>
      </trkpt>
      <trkpt lat="47.455159" lon="7.639095">
        <ele>619.954017</ele>
        <time>2021-11-20T23:48:04.158Z</time>
      </trkpt>
      <trkpt lat="47.455045" lon="7.639015">
        <ele>619.813683</ele>
        <time>2021-11-20T23:48:05.625Z</time>
      </trkpt>
      <trkpt lat="47.454993" lon="7.638998">
        <ele>619.754456</ele>
        <time>2021-11-20T23:48:06.180Z</time>
      </trkpt>
      <trkpt lat="47.454931" lon="7.638993">
        <ele>619.685400</ele>
        <time>2021-11-20T23:48:06.906Z</time>
      </trkpt>
      <trkpt lat="47.454865" lon="7.639007">
        <ele>619.611247</ele>
        <time>2021-11-20T23:48:07.704Z</time>
      </trkpt>
      <trkpt lat="47.454822" lon="7.639022">
        <ele>619.562113</ele>
        <time>2021-11-20T23:48:08.228Z</time>
      </trkpt>
      <trkpt lat="47.454146" lon="7.639431">
        <ele>618.771959</ele>
        <time>2021-11-20T23:48:17.161Z</time>
      </trkpt>
      <trkpt lat="47.453840" lon="7.639415">
        <ele>618.943400</ele>
        <time>2021-11-20T23:48:21.445Z</time>
      </trkpt>
      <trkpt lat="47.453152" lon="7.639081">
        <ele>619.348844</ele>
        <time>2021-11-20T23:48:34.422Z</time>
      </trkpt>
      <trkpt lat="47.453069" lon="7.639048">
        <ele>619.396967</ele>
        <time>2021-11-20T23:48:36.089Z</time>
      </trkpt>
      <trkpt lat="47.452952" lon="7.639007">
        <ele>619.464291</ele>
        <time>2021-11-20T23:48:38.311Z</time>
      </trkpt>
      <trkpt lat="47.452743" lon="7.638948">
        <ele>619.583426</ele>
        <time>2021-11-20T23:48:42.481Z</time>
      </trkpt>
      <trkpt lat="47.452050" lon="7.638797">
        <ele>620.074605</ele>
        <time>2021-11-20T23:48:55.929Z</time>
      </trkpt>
      <trkpt lat="47.450110" lon="7.638156">
        <ele>621.490240</ele>
        <time>2021-11-20T23:49:31.301Z</time>
      </trkpt>
      <trkpt lat="47.449128" lon="7.637956">
        <ele>621.889498</ele>
        <time>2021-11-20T23:49:47.307Z</time>
      </trkpt>
      <trkpt lat="47.448933" lon="7.637860">
        <ele>621.972277</ele>
        <time>2021-11-20T23:49:50.557Z</time>
      </trkpt>
      <trkpt lat="47.448686" lon="7.637727">
        <ele>621.965245</ele>
        <time>2021-11-20T23:49:54.500Z</time>
      </trkpt>
      <trkpt lat="47.447161" lon="7.636799">
        <ele>621.801684</ele>
        <time>2021-11-20T23:50:17.615Z</time>
      </trkpt>
      <trkpt lat="47.446601" lon="7.636513">
        <ele>622.093434</ele>
        <time>2021-11-20T23:50:26.399Z</time>
      </trkpt>
      <trkpt lat="47.446161" lon="7.636283">
        <ele>622.323246</ele>
        <time>2021-11-20T23:50:34.198Z</time>
      </trkpt>
      <trkpt lat="47.445883" lon="7.636077">
        <ele>622.476372</ele>
        <time>2021-11-20T23:50:39.663Z</time>
      </trkpt>
      <trkpt lat="47.445026" lon="7.635048">
        <ele>623.560679</ele>
        <time>2021-11-20T23:51:01.871Z</time>
      </trkpt>
      <trkpt lat="47.444765" lon="7.634765">
        <ele>623.956402</ele>
        <time>2021-11-20T23:51:08.512Z</time>
      </trkpt>
      <trkpt lat="47.443593" lon="7.633722">
        <ele>625.562352</ele>
        <time>2021-11-20T23:51:34.747Z</time>
      </trkpt>
      <trkpt lat="47.443538" lon="7.633673">
        <ele>625.634116</ele>
        <time>2021-11-20T23:51:35.950Z</time>
      </trkpt>
      <trkpt lat="47.442593" lon="7.632506">
        <ele>626.997931</ele>
        <time>2021-11-20T23:52:00.111Z</time>
      </trkpt>
      <trkpt lat="47.441875" lon="7.631629">
        <ele>627.951288</ele>
        <time>2021-11-20T23:52:16.766Z</time>
      </trkpt>
      <trkpt lat="47.441749" lon="7.631464">
        <ele>628.123586</ele>
        <time>2021-11-20T23:52:20.160Z</time>
      </trkpt>
      <trkpt lat="47.441653" lon="7.631281">
        <ele>628.283930</ele>
        <time>2021-11-20T23:52:23.082Z</time>
      </trkpt>
      <trkpt lat="47.441088" lon="7.629797">
        <ele>629.560453</ele>
        <time>2021-11-20T23:52:45.996Z</time>
      </trkpt>
      <trkpt lat="47.441020" lon="7.629655">
        <ele>629.696425</ele>
        <time>2021-11-20T23:52:48.344Z</time>
      </trkpt>
      <trkpt lat="47.440936" lon="7.629531">
        <ele>629.833578</ele>
        <time>2021-11-20T23:52:50.717Z</time>
      </trkpt>
      <trkpt lat="47.440882" lon="7.629460">
        <ele>629.917075</ele>
        <time>2021-11-20T23:52:51.897Z</time>
      </trkpt>
      <trkpt lat="47.439370" lon="7.627732">
        <ele>631.720480</ele>
        <time>2021-11-20T23:53:28.297Z</time>
      </trkpt>
      <trkpt lat="47.439058" lon="7.627370">
        <ele>632.040431</ele>
        <time>2021-11-20T23:53:35.516Z</time>
      </trkpt>
      <trkpt lat="47.438827" lon="7.627241">
        <ele>632.229388</ele>
        <time>2021-11-20T23:53:39.561Z</time>
      </trkpt>
      <trkpt lat="47.438668" lon="7.627275">
        <ele>632.059470</ele>
        <time>2021-11-20T23:53:42.313Z</time>
      </trkpt>
      <trkpt lat="47.438593" lon="7.627324">
        <ele>631.972746</ele>
        <time>2021-11-20T23:53:43.312Z</time>
      </trkpt>
      <trkpt lat="47.438345" lon="7.627559">
        <ele>631.661196</ele>
        <time>2021-11-20T23:53:47.746Z</time>
      </trkpt>
      <trkpt lat="47.437942" lon="7.627847">
        <ele>631.187775</ele>
        <time>2021-11-20T23:53:53.255Z</time>
      </trkpt>
      <trkpt lat="47.437345" lon="7.627952">
        <ele>630.551900</ele>
        <time>2021-11-20T23:54:00.270Z</time>
      </trkpt>
      <trkpt lat="47.436404" lon="7.627730">
        <ele>627.615630</ele>
        <time>2021-11-20T23:54:10.028Z</time>
      </trkpt>
      <trkpt lat="47.436074" lon="7.627778">
        <ele>626.407510</ele>
        <time>2021-11-20T23:54:13.244Z</time>
      </trkpt>
      <trkpt lat="47.435838" lon="7.628041">
        <ele>625.330750</ele>
        <time>2021-11-20T23:54:16.075Z</time>
      </trkpt>
      <trkpt lat="47.435678" lon="7.628613">
        <ele>623.805312</ele>
        <time>2021-11-20T23:54:20.074Z</time>
      </trkpt>
      <trkpt lat="47.435451" lon="7.630353">
        <ele>619.119115</ele>
        <time>2021-11-20T23:54:31.784Z</time>
      </trkpt>
      <trkpt lat="47.435369" lon="7.631033">
        <ele>617.291777</ele>
        <time>2021-11-20T23:54:36.441Z</time>
      </trkpt>
      <trkpt lat="47.435279" lon="7.631606">
        <ele>615.621053</ele>
        <time>2021-11-20T23:54:40.396Z</time>
      </trkpt>
      <trkpt lat="47.435100" lon="7.632137">
        <ele>613.873467</ele>
        <time>2021-11-20T23:54:44.419Z</time>
      </trkpt>
      <trkpt lat="47.434993" lon="7.632378">
        <ele>613.024316</ele>
        <time>2021-11-20T23:54:46.379Z</time>
      </trkpt>
      <trkpt lat="47.434553" lon="7.633333">
        <ele>609.620693</ele>
        <time>2021-11-20T23:54:53.752Z</time>
      </trkpt>
      <trkpt lat="47.434170" lon="7.634291">
        <ele>606.103289</ele>
        <time>2021-11-20T23:55:00.758Z</time>
      </trkpt>
      <trkpt lat="47.434143" lon="7.634386">
        <ele>605.771472</ele>
        <time>2021-11-20T23:55:01.372Z</time>
      </trkpt>
      <trkpt lat="47.434111" lon="7.634539">
        <ele>605.255778</ele>
        <time>2021-11-20T23:55:02.374Z</time>
      </trkpt>
      <trkpt lat="47.434062" lon="7.634912">
        <ele>604.032227</ele>
        <time>2021-11-20T23:55:04.812Z</time>
      </trkpt>
      <trkpt lat="47.434050" lon="7.635138">
        <ele>603.302237</ele>
        <time>2021-11-20T23:55:06.281Z</time>
      </trkpt>
      <trkpt lat="47.434051" lon="7.635282">
        <ele>602.838513</ele>
        <time>2021-11-20T23:55:07.251Z</time>
      </trkpt>
      <trkpt lat="47.434114" lon="7.635859">
        <ele>600.956446</ele>
        <time>2021-11-20T23:55:11.136Z</time>
      </trkpt>
      <trkpt lat="47.434285" lon="7.636434">
        <ele>599.403152</ele>
        <time>2021-11-20T23:55:15.229Z</time>
      </trkpt>
      <trkpt lat="47.434520" lon="7.636876">
        <ele>598.192686</ele>
        <time>2021-11-20T23:55:19.229Z</time>
      </trkpt>
      <trkpt lat="47.435033" lon="7.637576">
        <ele>595.970532</ele>
        <time>2021-11-20T23:55:27.065Z</time>
      </trkpt>
      <trkpt lat="47.435270" lon="7.638186">
        <ele>594.272775</ele>
        <time>2021-11-20T23:55:31.742Z</time>
      </trkpt>
      <trkpt lat="47.435277" lon="7.638451">
        <ele>593.083495</ele>
        <time>2021-11-20T23:55:33.362Z</time>
      </trkpt>
      <trkpt lat="47.435185" lon="7.638618">
        <ele>592.117648</ele>
        <time>2021-11-20T23:55:34.840Z</time>
      </trkpt>
      <trkpt lat="47.435017" lon="7.638652">
        <ele>590.993482</ele>
        <time>2021-11-20T23:55:36.367Z</time>
      </trkpt>
      <trkpt lat="47.434725" lon="7.638524">
        <ele>588.974322</ele>
        <time>2021-11-20T23:55:39.250Z</time>
      </trkpt>
      <trkpt lat="47.434422" lon="7.638371">
        <ele>586.851598</ele>
        <time>2021-11-20T23:55:42.087Z</time>
      </trkpt>
      <trkpt lat="47.434312" lon="7.638324">
        <ele>586.092490</ele>
        <time>2021-11-20T23:55:43.048Z</time>
      </trkpt>
      <trkpt lat="47.434081" lon="7.638293">
        <ele>584.554749</ele>
        <time>2021-11-20T23:55:45.166Z</time>
      </trkpt>
      <trkpt lat="47.433911" lon="7.638401">
        <ele>583.328051</ele>
        <time>2021-11-20T23:55:46.755Z</time>
      </trkpt>
      <trkpt lat="47.433760" lon="7.638685">
        <ele>581.742415</ele>
        <time>2021-11-20T23:55:48.942Z</time>
      </trkpt>
      <trkpt lat="47.433657" lon="7.639180">
        <ele>579.500191</ele>
        <time>2021-11-20T23:55:52.036Z</time>
      </trkpt>
      <trkpt lat="47.433640" lon="7.639464">
        <ele>578.265797</ele>
        <time>2021-11-20T23:55:53.708Z</time>
      </trkpt>
      <trkpt lat="47.433635" lon="7.639798">
        <ele>576.819377</ele>
        <time>2021-11-20T23:55:55.695Z</time>
      </trkpt>
      <trkpt lat="47.433683" lon="7.640574">
        <ele>573.445637</ele>
        <time>2021-11-20T23:56:00.709Z</time>
      </trkpt>
      <trkpt lat="47.433779" lon="7.641104">
        <ele>571.098093</ele>
        <time>2021-11-20T23:56:04.396Z</time>
      </trkpt>
      <trkpt lat="47.433961" lon="7.641567">
        <ele>569.326724</ele>
        <time>2021-11-20T23:56:07.875Z</time>
      </trkpt>
      <trkpt lat="47.434566" lon="7.642616">
        <ele>564.766748</ele>
        <time>2021-11-20T23:56:16.927Z</time>
      </trkpt>
      <trkpt lat="47.434639" lon="7.642943">
        <ele>563.627701</ele>
        <time>2021-11-20T23:56:19.033Z</time>
      </trkpt>
      <trkpt lat="47.434619" lon="7.643039">
        <ele>563.295429</ele>
        <time>2021-11-20T23:56:20.887Z</time>
      </trkpt>
      <trkpt lat="47.434585" lon="7.643099">
        <ele>563.036520</ele>
        <time>2021-11-20T23:56:21.324Z</time>
      </trkpt>
      <trkpt lat="47.434512" lon="7.643171">
        <ele>562.607385</ele>
        <time>2021-11-20T23:56:22.174Z</time>
      </trkpt>
      <trkpt lat="47.434393" lon="7.643175">
        <ele>561.856511</ele>
        <time>2021-11-20T23:56:23.195Z</time>
      </trkpt>
      <trkpt lat="47.433993" lon="7.642883">
        <ele>558.673467</ele>
        <time>2021-11-20T23:56:27.348Z</time>
      </trkpt>
      <trkpt lat="47.433850" lon="7.642889">
        <ele>557.652735</ele>
        <time>2021-11-20T23:56:28.613Z</time>
      </trkpt>
      <trkpt lat="47.433807" lon="7.642928">
        <ele>557.292785</ele>
        <time>2021-11-20T23:56:29.028Z</time>
      </trkpt>
      <trkpt lat="47.433772" lon="7.642968">
        <ele>556.977132</ele>
        <time>2021-11-20T23:56:29.403Z</time>
      </trkpt>
      <trkpt lat="47.433551" lon="7.644389">
        <ele>549.939737</ele>
        <time>2021-11-20T23:56:38.260Z</time>
      </trkpt>
      <trkpt lat="47.433538" lon="7.644822">
        <ele>548.563304</ele>
        <time>2021-11-20T23:56:40.871Z</time>
      </trkpt>
      <trkpt lat="47.433576" lon="7.645073">
        <ele>547.840814</ele>
        <time>2021-11-20T23:56:42.369Z</time>
      </trkpt>
      <trkpt lat="47.433934" lon="7.646125">
        <ele>544.532933</ele>
        <time>2021-11-20T23:56:50.478Z</time>
      </trkpt>
      <trkpt lat="47.433988" lon="7.646620">
        <ele>543.124546</ele>
        <time>2021-11-20T23:56:54.027Z</time>
      </trkpt>
      <trkpt lat="47.433994" lon="7.646673">
        <ele>542.973602</ele>
        <time>2021-11-20T23:56:54.393Z</time>
      </trkpt>
      <trkpt lat="47.434032" lon="7.647396">
        <ele>541.616103</ele>
        <time>2021-11-20T23:56:59.678Z</time>
      </trkpt>
      <trkpt lat="47.434054" lon="7.647612">
        <ele>541.363827</ele>
        <time>2021-11-20T23:57:01.268Z</time>
      </trkpt>
      <trkpt lat="47.434085" lon="7.647848">
        <ele>541.086174</ele>
        <time>2021-11-20T23:57:03.046Z</time>
      </trkpt>
      <trkpt lat="47.434115" lon="7.648032">
        <ele>540.867582</ele>
        <time>2021-11-20T23:57:04.449Z</time>
      </trkpt>
      <trkpt lat="47.434353" lon="7.649561">
        <ele>539.055560</ele>
        <time>2021-11-20T23:57:16.716Z</time>
      </trkpt>
      <trkpt lat="47.434349" lon="7.649587">
        <ele>539.024765</ele>
        <time>2021-11-20T23:57:16.917Z</time>
      </trkpt>
      <trkpt lat="47.434338" lon="7.649614">
        <ele>539.016030</ele>
        <time>2021-11-20T23:57:17.184Z</time>
      </trkpt>
      <trkpt lat="47.434313" lon="7.649642">
        <ele>539.009874</ele>
        <time>2021-11-20T23:57:17.548Z</time>
      </trkpt>
      <trkpt lat="47.434393" lon="7.649974">
        <ele>538.963081</ele>
        <time>2021-11-20T23:57:20.636Z</time>
      </trkpt>
      <trkpt lat="47.434521" lon="7.650847">
        <ele>538.844480</ele>
        <time>2021-11-20T23:57:28.633Z</time>
      </trkpt>
      <trkpt lat="47.434561" lon="7.651598">
        <ele>538.744461</ele>
        <time>2021-11-20T23:57:36.280Z</time>
      </trkpt>
      <trkpt lat="47.434554" lon="7.651838">
        <ele>538.712567</ele>
        <time>2021-11-20T23:57:38.801Z</time>
      </trkpt>
      <trkpt lat="47.434545" lon="7.651951">
        <ele>538.697460</ele>
        <time>2021-11-20T23:57:40.182Z</time>
      </trkpt>
      <trkpt lat="47.434522" lon="7.652176">
        <ele>538.667247</ele>
        <time>2021-11-20T23:57:42.682Z</time>
      </trkpt>
      <trkpt lat="47.434475" lon="7.652704">
        <ele>539.095219</ele>
        <time>2021-11-20T23:57:49.096Z</time>
      </trkpt>
      <trkpt lat="47.434463" lon="7.652974">
        <ele>539.315061</ele>
        <time>2021-11-20T23:57:52.976Z</time>
      </trkpt>
      <trkpt lat="47.434461" lon="7.653222">
        <ele>539.516569</ele>
        <time>2021-11-20T23:57:56.025Z</time>
      </trkpt>
      <trkpt lat="47.434469" lon="7.653527">
        <ele>539.764560</ele>
        <time>2021-11-20T23:58:00.432Z</time>
      </trkpt>
      <trkpt lat="47.434636" lon="7.654926">
        <ele>540.991220</ele>
        <time>2021-11-20T23:58:19.767Z</time>
      </trkpt>
      <trkpt lat="47.434655" lon="7.655002">
        <ele>541.108996</ele>
        <time>2021-11-20T23:58:21.780Z</time>
      </trkpt>
      <trkpt lat="47.434684" lon="7.655121">
        <ele>541.292856</ele>
        <time>2021-11-20T23:58:23.578Z</time>
      </trkpt>
      <trkpt lat="47.434700" lon="7.655203">
        <ele>541.416910</ele>
        <time>2021-11-20T23:58:24.648Z</time>
      </trkpt>
      <trkpt lat="47.434724" lon="7.655366">
        <ele>541.659393</ele>
        <time>2021-11-20T23:58:26.720Z</time>
      </trkpt>
      <trkpt lat="47.434788" lon="7.655893">
        <ele>542.437679</ele>
        <time>2021-11-20T23:58:34.735Z</time>
      </trkpt>
      <trkpt lat="47.434874" lon="7.656543">
        <ele>543.400412</ele>
        <time>2021-11-20T23:58:45.903Z</time>
      </trkpt>
      <trkpt lat="47.434967" lon="7.656985">
        <ele>544.073259</ele>
        <time>2021-11-20T23:58:53.540Z</time>
      </trkpt>
      <trkpt lat="47.434972" lon="7.657027">
        <ele>544.135248</ele>
        <time>2021-11-20T23:58:54.501Z</time>
      </trkpt>
      <trkpt lat="47.434978" lon="7.657092">
        <ele>544.230606</ele>
        <time>2021-11-20T23:58:55.944Z</time>
      </trkpt>
      <trkpt lat="47.434947" lon="7.657807">
        <ele>545.399288</ele>
        <time>2021-11-20T23:59:07.311Z</time>
      </trkpt>
      <trkpt lat="47.434926" lon="7.658284">
        <ele>546.246552</ele>
        <time>2021-11-20T23:59:15.114Z</time>
      </trkpt>
      <trkpt lat="47.434918" lon="7.658372">
        <ele>546.403934</ele>
        <time>2021-11-20T23:59:17.002Z</time>
      </trkpt>
      <trkpt lat="47.434888" lon="7.658482">
        <ele>546.614158</ele>
        <time>2021-11-20T23:59:19.184Z</time>
      </trkpt>
      <trkpt lat="47.434743" lon="7.658784">
        <ele>547.270589</ele>
        <time>2021-11-20T23:59:25.028Z</time>
      </trkpt>
      <trkpt lat="47.434694" lon="7.658816">
        <ele>547.410957</ele>
        <time>2021-11-20T23:59:26.937Z</time>
      </trkpt>
      <trkpt lat="47.434660" lon="7.658830">
        <ele>547.503441</ele>
        <time>2021-11-20T23:59:27.782Z</time>
      </trkpt>
      <trkpt lat="47.434278" lon="7.658890">
        <ele>548.510054</ele>
        <time>2021-11-20T23:59:37.488Z</time>
      </trkpt>
      <trkpt lat="47.434228" lon="7.658941">
        <ele>548.669232</ele>
        <time>2021-11-20T23:59:38.596Z</time>
      </trkpt>
      <trkpt lat="47.434200" lon="7.658986">
        <ele>548.777608</ele>
        <time>2021-11-20T23:59:39.478Z</time>
      </trkpt>
      <trkpt lat="47.434084" lon="7.659216">
        <ele>549.286130</ele>
        <time>2021-11-20T23:59:44.480Z</time>
      </trkpt>
      <trkpt lat="47.434021" lon="7.659378">
        <ele>549.696688</ele>
        <time>2021-11-20T23:59:47.831Z</time>
      </trkpt>
      <trkpt lat="47.433811" lon="7.660025">
        <ele>551.444374</ele>
        <time>2021-11-21T00:00:01.325Z</time>
      </trkpt>
      <trkpt lat="47.433783" lon="7.660107">
        <ele>551.668076</ele>
        <time>2021-11-21T00:00:03.509Z</time>
      </trkpt>
      <trkpt lat="47.433425" lon="7.661161">
        <ele>554.540394</ele>
        <time>2021-11-21T00:00:25.924Z</time>
      </trkpt>
      <trkpt lat="47.433375" lon="7.661263">
        <ele>554.847172</ele>
        <time>2021-11-21T00:00:28.595Z</time>
      </trkpt>
      <trkpt lat="47.433323" lon="7.661365">
        <ele>555.158230</ele>
        <time>2021-11-21T00:00:30.762Z</time>
      </trkpt>
      <trkpt lat="47.433245" lon="7.661519">
        <ele>555.626764</ele>
        <time>2021-11-21T00:00:35.309Z</time>
      </trkpt>
      <trkpt lat="47.433040" lon="7.661786">
        <ele>557.130979</ele>
        <time>2021-11-21T00:00:43.879Z</time>
      </trkpt>
      <trkpt lat="47.432812" lon="7.661916">
        <ele>558.638514</ele>
        <time>2021-11-21T00:00:53.321Z</time>
      </trkpt>
      <trkpt lat="47.431859" lon="7.662126">
        <ele>564.582565</ele>
        <time>2021-11-21T00:01:33.768Z</time>
      </trkpt>
      <trkpt lat="47.431423" lon="7.662273">
        <ele>567.347886</ele>
        <time>2021-11-21T00:01:51.840Z</time>
      </trkpt>
      <trkpt lat="47.431237" lon="7.662333">
        <ele>568.543426</ele>
        <time>2021-11-21T00:02:00.734Z</time>
      </trkpt>
      <trkpt lat="47.430248" lon="7.662388">
        <ele>574.758593</ele>
        <time>2021-11-21T00:02:43.423Z</time>
      </trkpt>
      <trkpt lat="47.429735" lon="7.662451">
        <ele>577.991255</ele>
        <time>2021-11-21T00:03:03.483Z</time>
      </trkpt>
      <trkpt lat="47.429321" lon="7.662502">
        <ele>578.762341</ele>
        <time>2021-11-21T00:03:15.890Z</time>
      </trkpt>
      <trkpt lat="47.427955" lon="7.662742">
        <ele>580.582040</ele>
        <time>2021-11-21T00:03:41.645Z</time>
      </trkpt>
      <trkpt lat="47.427132" lon="7.662811">
        <ele>577.917955</ele>
        <time>2021-11-21T00:03:49.913Z</time>
      </trkpt>
      <trkpt lat="47.425818" lon="7.663438">
        <ele>573.312121</ele>
        <time>2021-11-21T00:04:03.104Z</time>
      </trkpt>
      <trkpt lat="47.425650" lon="7.663587">
        <ele>572.774781</ele>
        <time>2021-11-21T00:04:04.974Z</time>
      </trkpt>
      <trkpt lat="47.425614" lon="7.663617">
        <ele>572.661437</ele>
        <time>2021-11-21T00:04:05.396Z</time>
      </trkpt>
      <trkpt lat="47.425596" lon="7.663633">
        <ele>572.603830</ele>
        <time>2021-11-21T00:04:05.846Z</time>
      </trkpt>
      <trkpt lat="47.425207" lon="7.663976">
        <ele>571.361541</ele>
        <time>2021-11-21T00:04:10.569Z</time>
      </trkpt>
      <trkpt lat="47.424925" lon="7.664067">
        <ele>570.569907</ele>
        <time>2021-11-21T00:04:13.677Z</time>
      </trkpt>
      <trkpt lat="47.424397" lon="7.664048">
        <ele>569.346841</ele>
        <time>2021-11-21T00:04:19.804Z</time>
      </trkpt>
      <trkpt lat="47.424319" lon="7.664045">
        <ele>569.343439</ele>
        <time>2021-11-21T00:04:20.665Z</time>
      </trkpt>
      <trkpt lat="47.424143" lon="7.664043">
        <ele>569.335765</ele>
        <time>2021-11-21T00:04:23.821Z</time>
      </trkpt>
      <trkpt lat="47.424082" lon="7.664042">
        <ele>569.333106</ele>
        <time>2021-11-21T00:04:24.578Z</time>
      </trkpt>
      <trkpt lat="47.423516" lon="7.664003">
        <ele>569.308402</ele>
        <time>2021-11-21T00:04:33.373Z</time>
      </trkpt>
      <trkpt lat="47.423461" lon="7.663981">
        <ele>569.305918</ele>
        <time>2021-11-21T00:04:34.624Z</time>
      </trkpt>
      <trkpt lat="47.423339" lon="7.663911">
        <ele>569.300213</ele>
        <time>2021-11-21T00:04:36.425Z</time>
      </trkpt>
      <trkpt lat="47.423150" lon="7.663794">
        <ele>569.291279</ele>
        <time>2021-11-21T00:04:39.711Z</time>
      </trkpt>
      <trkpt lat="47.422900" lon="7.663633">
        <ele>569.279390</ele>
        <time>2021-11-21T00:04:43.985Z</time>
      </trkpt>
      <trkpt lat="47.422849" lon="7.663600">
        <ele>569.276962</ele>
        <time>2021-11-21T00:04:44.750Z</time>
      </trkpt>
      <trkpt lat="47.422767" lon="7.663553">
        <ele>569.273128</ele>
        <time>2021-11-21T00:04:46.548Z</time>
      </trkpt>
      <trkpt lat="47.422716" lon="7.663529">
        <ele>569.346473</ele>
        <time>2021-11-21T00:04:47.225Z</time>
      </trkpt>
      <trkpt lat="47.422665" lon="7.663506">
        <ele>569.482605</ele>
        <time>2021-11-21T00:04:48.035Z</time>
      </trkpt>
      <trkpt lat="47.422602" lon="7.663494">
        <ele>569.644777</ele>
        <time>2021-11-21T00:04:49.079Z</time>
      </trkpt>
      <trkpt lat="47.422573" lon="7.663490">
        <ele>569.719136</ele>
        <time>2021-11-21T00:04:49.541Z</time>
      </trkpt>
      <trkpt lat="47.422472" lon="7.663483">
        <ele>569.977277</ele>
        <time>2021-11-21T00:04:51.208Z</time>
      </trkpt>
      <trkpt lat="47.422253" lon="7.663506">
        <ele>570.537803</ele>
        <time>2021-11-21T00:04:55.018Z</time>
      </trkpt>
      <trkpt lat="47.422093" lon="7.663554">
        <ele>570.954619</ele>
        <time>2021-11-21T00:04:57.954Z</time>
      </trkpt>
      <trkpt lat="47.421833" lon="7.663646">
        <ele>571.637168</ele>
        <time>2021-11-21T00:05:02.777Z</time>
      </trkpt>
      <trkpt lat="47.420627" lon="7.664074">
        <ele>576.879817</ele>
        <time>2021-11-21T00:05:41.262Z</time>
      </trkpt>
      <trkpt lat="47.419921" lon="7.664331">
        <ele>582.837974</ele>
        <time>2021-11-21T00:06:23.944Z</time>
      </trkpt>
      <trkpt lat="47.419643" lon="7.664425">
        <ele>585.174881</ele>
        <time>2021-11-21T00:06:37.354Z</time>
      </trkpt>
      <trkpt lat="47.419533" lon="7.664445">
        <ele>586.083062</ele>
        <time>2021-11-21T00:06:46.037Z</time>
      </trkpt>
      <trkpt lat="47.419287" lon="7.664397">
        <ele>588.116381</ele>
        <time>2021-11-21T00:06:55.127Z</time>
      </trkpt>
      <trkpt lat="47.419153" lon="7.664328">
        <ele>588.910830</ele>
        <time>2021-11-21T00:07:04.774Z</time>
      </trkpt>
      <trkpt lat="47.419061" lon="7.664229">
        <ele>589.335448</ele>
        <time>2021-11-21T00:07:08.541Z</time>
      </trkpt>
      <trkpt lat="47.418772" lon="7.663845">
        <ele>590.785477</ele>
        <time>2021-11-21T00:07:24.350Z</time>
      </trkpt>
      <trkpt lat="47.418718" lon="7.663746">
        <ele>591.106513</ele>
        <time>2021-11-21T00:07:27.569Z</time>
      </trkpt>
      <trkpt lat="47.418388" lon="7.663143">
        <ele>593.064479</ele>
        <time>2021-11-21T00:07:47.953Z</time>
      </trkpt>
      <trkpt lat="47.418071" lon="7.662727">
        <ele>594.646250</ele>
        <time>2021-11-21T00:07:55.239Z</time>
      </trkpt>
      <trkpt lat="47.417566" lon="7.662225">
        <ele>593.573727</ele>
        <time>2021-11-21T00:08:01.102Z</time>
      </trkpt>
      <trkpt lat="47.416116" lon="7.661470">
        <ele>587.849993</ele>
        <time>2021-11-21T00:08:15.689Z</time>
      </trkpt>
      <trkpt lat="47.415764" lon="7.661144">
        <ele>587.407999</ele>
        <time>2021-11-21T00:08:20.014Z</time>
      </trkpt>
      <trkpt lat="47.415739" lon="7.661109">
        <ele>587.371358</ele>
        <time>2021-11-21T00:08:20.320Z</time>
      </trkpt>
      <trkpt lat="47.415256" lon="7.660438">
        <ele>586.666027</ele>
        <time>2021-11-21T00:08:28.128Z</time>
      </trkpt>
      <trkpt lat="47.414679" lon="7.659673">
        <ele>587.861349</ele>
        <time>2021-11-21T00:08:45.140Z</time>
      </trkpt>
      <trkpt lat="47.414418" lon="7.659441">
        <ele>589.925030</ele>
        <time>2021-11-21T00:08:55.402Z</time>
      </trkpt>
      <trkpt lat="47.414241" lon="7.659372">
        <ele>591.165328</ele>
        <time>2021-11-21T00:09:02.333Z</time>
      </trkpt>
      <trkpt lat="47.414078" lon="7.659335">
        <ele>592.282696</ele>
        <time>2021-11-21T00:09:09.262Z</time>
      </trkpt>
      <trkpt lat="47.413690" lon="7.659264">
        <ele>594.931689</ele>
        <time>2021-11-21T00:09:27.534Z</time>
      </trkpt>
      <trkpt lat="47.412935" lon="7.659118">
        <ele>601.215785</ele>
        <time>2021-11-21T00:10:10.981Z</time>
      </trkpt>
      <trkpt lat="47.411430" lon="7.658838">
        <ele>617.957545</ele>
        <time>2021-11-21T00:11:45.875Z</time>
      </trkpt>
      <trkpt lat="47.411288" lon="7.658795">
        <ele>618.949817</ele>
        <time>2021-11-21T00:11:53.764Z</time>
      </trkpt>
      <trkpt lat="47.411254" lon="7.658783">
        <ele>619.168630</ele>
        <time>2021-11-21T00:11:55.656Z</time>
      </trkpt>
      <trkpt lat="47.411100" lon="7.658696">
        <ele>620.200656</ele>
        <time>2021-11-21T00:12:04.043Z</time>
      </trkpt>
      <trkpt lat="47.409630" lon="7.657850">
        <ele>629.407758</ele>
        <time>2021-11-21T00:13:01.965Z</time>
      </trkpt>
      <trkpt lat="47.409057" lon="7.657611">
        <ele>629.380714</ele>
        <time>2021-11-21T00:13:13.532Z</time>
      </trkpt>
      <trkpt lat="47.408460" lon="7.657638">
        <ele>629.353584</ele>
        <time>2021-11-21T00:13:21.654Z</time>
      </trkpt>
      <trkpt lat="47.407189" lon="7.657399">
        <ele>625.863267</ele>
        <time>2021-11-21T00:13:34.477Z</time>
      </trkpt>
      <trkpt lat="47.407036" lon="7.657413">
        <ele>625.182819</ele>
        <time>2021-11-21T00:13:35.852Z</time>
      </trkpt>
      <trkpt lat="47.406453" lon="7.657567">
        <ele>622.553929</ele>
        <time>2021-11-21T00:13:41.354Z</time>
      </trkpt>
      <trkpt lat="47.406184" lon="7.657601">
        <ele>621.355512</ele>
        <time>2021-11-21T00:13:43.907Z</time>
      </trkpt>
      <trkpt lat="47.405922" lon="7.657606">
        <ele>621.106644</ele>
        <time>2021-11-21T00:13:46.364Z</time>
      </trkpt>
      <trkpt lat="47.405735" lon="7.657579">
        <ele>620.933061</ele>
        <time>2021-11-21T00:13:48.262Z</time>
      </trkpt>
      <trkpt lat="47.405470" lon="7.657500">
        <ele>620.683307</ele>
        <time>2021-11-21T00:13:50.981Z</time>
      </trkpt>
      <trkpt lat="47.405137" lon="7.657273">
        <ele>620.344501</ele>
        <time>2021-11-21T00:13:56.143Z</time>
      </trkpt>
      <trkpt lat="47.405023" lon="7.657141">
        <ele>620.210694</ele>
        <time>2021-11-21T00:13:58.028Z</time>
      </trkpt>
      <trkpt lat="47.404588" lon="7.656553">
        <ele>619.775644</ele>
        <time>2021-11-21T00:14:10.777Z</time>
      </trkpt>
      <trkpt lat="47.404445" lon="7.656404">
        <ele>620.535292</ele>
        <time>2021-11-21T00:14:16.047Z</time>
      </trkpt>
      <trkpt lat="47.404192" lon="7.656284">
        <ele>621.688843</ele>
        <time>2021-11-21T00:14:23.823Z</time>
      </trkpt>
      <trkpt lat="47.404079" lon="7.656272">
        <ele>622.180674</ele>
        <time>2021-11-21T00:14:28.854Z</time>
      </trkpt>
      <trkpt lat="47.403990" lon="7.656245">
        <ele>622.575108</ele>
        <time>2021-11-21T00:14:32.161Z</time>
      </trkpt>
      <trkpt lat="47.403322" lon="7.655657">
        <ele>625.950739</ele>
        <time>2021-11-21T00:14:59.754Z</time>
      </trkpt>
      <trkpt lat="47.402951" lon="7.655242">
        <ele>627.801998</ele>
        <time>2021-11-21T00:15:14.882Z</time>
      </trkpt>
      <trkpt lat="47.402816" lon="7.655106">
        <ele>628.260298</ele>
        <time>2021-11-21T00:15:21.260Z</time>
      </trkpt>
      <trkpt lat="47.402273" lon="7.654642">
        <ele>630.019718</ele>
        <time>2021-11-21T00:15:38.150Z</time>
      </trkpt>
      <trkpt lat="47.401515" lon="7.654152">
        <ele>632.340394</ele>
        <time>2021-11-21T00:15:58.380Z</time>
      </trkpt>
      <trkpt lat="47.400876" lon="7.653835">
        <ele>632.684154</ele>
        <time>2021-11-21T00:16:08.250Z</time>
      </trkpt>
      <trkpt lat="47.400666" lon="7.653783">
        <ele>632.735526</ele>
        <time>2021-11-21T00:16:11.569Z</time>
      </trkpt>
      <trkpt lat="47.400458" lon="7.653775">
        <ele>632.785726</ele>
        <time>2021-11-21T00:16:14.523Z</time>
      </trkpt>
      <trkpt lat="47.400168" lon="7.653830">
        <ele>632.856266</ele>
        <time>2021-11-21T00:16:18.170Z</time>
      </trkpt>
      <trkpt lat="47.399921" lon="7.653914">
        <ele>632.917416</ele>
        <time>2021-11-21T00:16:21.529Z</time>
      </trkpt>
      <trkpt lat="47.399719" lon="7.653951">
        <ele>632.966525</ele>
        <time>2021-11-21T00:16:26.244Z</time>
      </trkpt>
      <trkpt lat="47.399647" lon="7.653964">
        <ele>633.092101</ele>
        <time>2021-11-21T00:16:26.885Z</time>
      </trkpt>
      <trkpt lat="47.399546" lon="7.653948">
        <ele>633.346842</ele>
        <time>2021-11-21T00:16:30.131Z</time>
      </trkpt>
      <trkpt lat="47.399438" lon="7.653895">
        <ele>633.632237</ele>
        <time>2021-11-21T00:16:32.909Z</time>
      </trkpt>
      <trkpt lat="47.399196" lon="7.653654">
        <ele>634.364137</ele>
        <time>2021-11-21T00:16:37.851Z</time>
      </trkpt>
      <trkpt lat="47.399059" lon="7.653531">
        <ele>634.766176</ele>
        <time>2021-11-21T00:16:42.385Z</time>
      </trkpt>
      <trkpt lat="47.399045" lon="7.653518">
        <ele>634.807645</ele>
        <time>2021-11-21T00:16:42.527Z</time>
      </trkpt>
      <trkpt lat="47.398891" lon="7.653372">
        <ele>635.266531</ele>
        <time>2021-11-21T00:16:48.413Z</time>
      </trkpt>
      <trkpt lat="47.398512" lon="7.653086">
        <ele>636.333807</ele>
        <time>2021-11-21T00:17:00.310Z</time>
      </trkpt>
      <trkpt lat="47.398450" lon="7.653039">
        <ele>636.508566</ele>
        <time>2021-11-21T00:17:02.727Z</time>
      </trkpt>
      <trkpt lat="47.398386" lon="7.652989">
        <ele>636.690127</ele>
        <time>2021-11-21T00:17:03.393Z</time>
      </trkpt>
      <trkpt lat="47.398312" lon="7.652944">
        <ele>636.890812</ele>
        <time>2021-11-21T00:17:06.983Z</time>
      </trkpt>
      <trkpt lat="47.398270" lon="7.652925">
        <ele>637.000968</ele>
        <time>2021-11-21T00:17:08.934Z</time>
      </trkpt>
      <trkpt lat="47.398088" lon="7.652869">
        <ele>637.467185</ele>
        <time>2021-11-21T00:17:17.206Z</time>
      </trkpt>
      <trkpt lat="47.397860" lon="7.652801">
        <ele>638.951661</ele>
        <time>2021-11-21T00:17:23.858Z</time>
      </trkpt>
      <trkpt lat="47.397860" lon="7.652801">
        <ele>638.951661</ele>
        <time>2021-11-21T00:17:23.982Z</time>
      </trkpt>
      <trkpt lat="47.397857" lon="7.652846">
        <ele>639.150348</ele>
        <time>2021-11-21T00:17:26.099Z</time>
      </trkpt>
      <trkpt lat="47.397819" lon="7.653335">
        <ele>641.313139</ele>
        <time>2021-11-21T00:17:37.897Z</time>
      </trkpt>
      <trkpt lat="47.397699" lon="7.653831">
        <ele>643.627601</ele>
        <time>2021-11-21T00:17:52.722Z</time>
      </trkpt>
      <trkpt lat="47.397682" lon="7.653915">
        <ele>644.012844</ele>
        <time>2021-11-21T00:17:56.256Z</time>
      </trkpt>
      <trkpt lat="47.397678" lon="7.654016">
        <ele>644.457400</ele>
        <time>2021-11-21T00:17:58.962Z</time>
      </trkpt>
      <trkpt lat="47.397669" lon="7.654259">
        <ele>645.526748</ele>
        <time>2021-11-21T00:18:05.175Z</time>
      </trkpt>
      <trkpt lat="47.397671" lon="7.654573">
        <ele>646.906537</ele>
        <time>2021-11-21T00:18:14.289Z</time>
      </trkpt>
      <trkpt lat="47.397740" lon="7.654832">
        <ele>648.129561</ele>
        <time>2021-11-21T00:18:21.985Z</time>
      </trkpt>
      <trkpt lat="47.397870" lon="7.655078">
        <ele>649.548200</ele>
        <time>2021-11-21T00:18:33.187Z</time>
      </trkpt>
      <trkpt lat="47.397909" lon="7.655172">
        <ele>650.099654</ele>
        <time>2021-11-21T00:18:36.582Z</time>
      </trkpt>
      <trkpt lat="47.397915" lon="7.655208">
        <ele>650.285095</ele>
        <time>2021-11-21T00:18:37.550Z</time>
      </trkpt>
      <trkpt lat="47.397931" lon="7.655296">
        <ele>650.740852</ele>
        <time>2021-11-21T00:18:39.805Z</time>
      </trkpt>
      <trkpt lat="47.397940" lon="7.655404">
        <ele>651.285119</ele>
        <time>2021-11-21T00:18:44.071Z</time>
      </trkpt>
      <trkpt lat="47.397936" lon="7.655504">
        <ele>651.786168</ele>
        <time>2021-11-21T00:18:47.363Z</time>
      </trkpt>
      <trkpt lat="47.397878" lon="7.655744">
        <ele>653.060800</ele>
        <time>2021-11-21T00:18:54.913Z</time>
      </trkpt>
      <trkpt lat="47.397763" lon="7.656024">
        <ele>654.698930</ele>
        <time>2021-11-21T00:19:05.817Z</time>
      </trkpt>
      <trkpt lat="47.397724" lon="7.656120">
        <ele>655.258939</ele>
        <time>2021-11-21T00:19:09.839Z</time>
      </trkpt>
      <trkpt lat="47.397576" lon="7.656491">
        <ele>657.412875</ele>
        <time>2021-11-21T00:19:22.443Z</time>
      </trkpt>
      <trkpt lat="47.397507" lon="7.656702">
        <ele>658.584956</ele>
        <time>2021-11-21T00:19:29.199Z</time>
      </trkpt>
      <trkpt lat="47.397457" lon="7.656899">
        <ele>659.637298</ele>
        <time>2021-11-21T00:19:36.306Z</time>
      </trkpt>
      <trkpt lat="47.396955" lon="7.659967">
        <ele>672.402168</ele>
        <time>2021-11-21T00:20:59.903Z</time>
      </trkpt>
      <trkpt lat="47.396853" lon="7.660581">
        <ele>672.724676</ele>
        <time>2021-11-21T00:21:10.919Z</time>
      </trkpt>
      <trkpt lat="47.396770" lon="7.661084">
        <ele>672.798263</ele>
        <time>2021-11-21T00:21:20.028Z</time>
      </trkpt>
      <trkpt lat="47.396797" lon="7.661784">
        <ele>672.897920</ele>
        <time>2021-11-21T00:21:27.500Z</time>
      </trkpt>
      <trkpt lat="47.396948" lon="7.662645">
        <ele>672.917112</ele>
        <time>2021-11-21T00:21:33.549Z</time>
      </trkpt>
      <trkpt lat="47.396999" lon="7.662947">
        <ele>671.327616</ele>
        <time>2021-11-21T00:21:35.744Z</time>
      </trkpt>
      <trkpt lat="47.397022" lon="7.663072">
        <ele>670.666115</ele>
        <time>2021-11-21T00:21:36.494Z</time>
      </trkpt>
      <trkpt lat="47.397114" lon="7.663596">
        <ele>667.901657</ele>
        <time>2021-11-21T00:21:39.955Z</time>
      </trkpt>
      <trkpt lat="47.397328" lon="7.665912">
        <ele>655.067857</ele>
        <time>2021-11-21T00:21:53.657Z</time>
      </trkpt>
      <trkpt lat="47.397390" lon="7.666123">
        <ele>653.591066</ele>
        <time>2021-11-21T00:21:54.995Z</time>
      </trkpt>
      <trkpt lat="47.397481" lon="7.666362">
        <ele>651.830553</ele>
        <time>2021-11-21T00:21:56.596Z</time>
      </trkpt>
      <trkpt lat="47.398212" lon="7.667516">
        <ele>641.849394</ele>
        <time>2021-11-21T00:22:05.814Z</time>
      </trkpt>
      <trkpt lat="47.399305" lon="7.669946">
        <ele>627.906216</ele>
        <time>2021-11-21T00:22:23.561Z</time>
      </trkpt>
      <trkpt lat="47.399514" lon="7.670193">
        <ele>626.397564</ele>
        <time>2021-11-21T00:22:26.099Z</time>
      </trkpt>
      <trkpt lat="47.399828" lon="7.670385">
        <ele>624.482007</ele>
        <time>2021-11-21T00:22:29.355Z</time>
      </trkpt>
      <trkpt lat="47.400191" lon="7.670713">
        <ele>622.083497</ele>
        <time>2021-11-21T00:22:33.546Z</time>
      </trkpt>
      <trkpt lat="47.400604" lon="7.670875">
        <ele>619.674854</ele>
        <time>2021-11-21T00:22:37.378Z</time>
      </trkpt>
      <trkpt lat="47.400797" lon="7.671054">
        <ele>618.002990</ele>
        <time>2021-11-21T00:22:39.513Z</time>
      </trkpt>
      <trkpt lat="47.401141" lon="7.671613">
        <ele>613.711257</ele>
        <time>2021-11-21T00:22:44.042Z</time>
      </trkpt>
      <trkpt lat="47.401183" lon="7.671832">
        <ele>612.418220</ele>
        <time>2021-11-21T00:22:45.416Z</time>
      </trkpt>
      <trkpt lat="47.401130" lon="7.672033">
        <ele>611.192825</ele>
        <time>2021-11-21T00:22:46.738Z</time>
      </trkpt>
      <trkpt lat="47.401098" lon="7.672077">
        <ele>610.825945</ele>
        <time>2021-11-21T00:22:47.096Z</time>
      </trkpt>
      <trkpt lat="47.401025" lon="7.672141">
        <ele>610.113530</ele>
        <time>2021-11-21T00:22:47.807Z</time>
      </trkpt>
      <trkpt lat="47.400410" lon="7.672207">
        <ele>604.938452</ele>
        <time>2021-11-21T00:22:53.234Z</time>
      </trkpt>
      <trkpt lat="47.400168" lon="7.672313">
        <ele>602.906537</ele>
        <time>2021-11-21T00:22:55.420Z</time>
      </trkpt>
      <trkpt lat="47.400101" lon="7.672371">
        <ele>602.299291</ele>
        <time>2021-11-21T00:22:56.104Z</time>
      </trkpt>
      <trkpt lat="47.399984" lon="7.672465">
        <ele>601.257834</ele>
        <time>2021-11-21T00:22:57.196Z</time>
      </trkpt>
      <trkpt lat="47.399666" lon="7.672814">
        <ele>598.160066</ele>
        <time>2021-11-21T00:23:00.627Z</time>
      </trkpt>
      <trkpt lat="47.399518" lon="7.672876">
        <ele>596.957102</ele>
        <time>2021-11-21T00:23:02.107Z</time>
      </trkpt>
      <trkpt lat="47.399387" lon="7.672795">
        <ele>595.846602</ele>
        <time>2021-11-21T00:23:03.348Z</time>
      </trkpt>
      <trkpt lat="47.399248" lon="7.672394">
        <ele>593.461929</ele>
        <time>2021-11-21T00:23:06.098Z</time>
      </trkpt>
      <trkpt lat="47.399205" lon="7.672227">
        <ele>592.516181</ele>
        <time>2021-11-21T00:23:07.152Z</time>
      </trkpt>
      <trkpt lat="47.399177" lon="7.672092">
        <ele>591.768814</ele>
        <time>2021-11-21T00:23:08.110Z</time>
      </trkpt>
      <trkpt lat="47.399143" lon="7.671824">
        <ele>590.325551</ele>
        <time>2021-11-21T00:23:09.750Z</time>
      </trkpt>
      <trkpt lat="47.399121" lon="7.671569">
        <ele>589.523379</ele>
        <time>2021-11-21T00:23:11.370Z</time>
      </trkpt>
      <trkpt lat="47.399003" lon="7.671227">
        <ele>588.564800</ele>
        <time>2021-11-21T00:23:13.927Z</time>
      </trkpt>
      <trkpt lat="47.398840" lon="7.671122">
        <ele>587.908784</ele>
        <time>2021-11-21T00:23:15.734Z</time>
      </trkpt>
      <trkpt lat="47.398668" lon="7.671132">
        <ele>587.273754</ele>
        <time>2021-11-21T00:23:17.433Z</time>
      </trkpt>
      <trkpt lat="47.398486" lon="7.671168">
        <ele>586.596331</ele>
        <time>2021-11-21T00:23:19.283Z</time>
      </trkpt>
      <trkpt lat="47.398172" lon="7.671229">
        <ele>585.427955</ele>
        <time>2021-11-21T00:23:22.474Z</time>
      </trkpt>
      <trkpt lat="47.397889" lon="7.671104">
        <ele>584.338251</ele>
        <time>2021-11-21T00:23:25.726Z</time>
      </trkpt>
      <trkpt lat="47.397675" lon="7.671010">
        <ele>583.514608</ele>
        <time>2021-11-21T00:23:28.125Z</time>
      </trkpt>
      <trkpt lat="47.397259" lon="7.670991">
        <ele>581.913671</ele>
        <time>2021-11-21T00:23:32.351Z</time>
      </trkpt>
      <trkpt lat="47.397027" lon="7.671076">
        <ele>580.990813</ele>
        <time>2021-11-21T00:23:34.683Z</time>
      </trkpt>
      <trkpt lat="47.396853" lon="7.671334">
        <ele>580.038996</ele>
        <time>2021-11-21T00:23:37.132Z</time>
      </trkpt>
      <trkpt lat="47.396483" lon="7.672367">
        <ele>576.984607</ele>
        <time>2021-11-21T00:23:44.884Z</time>
      </trkpt>
      <trkpt lat="47.396367" lon="7.672640">
        <ele>576.020614</ele>
        <time>2021-11-21T00:23:46.911Z</time>
      </trkpt>
      <trkpt lat="47.396283" lon="7.672839">
        <ele>575.159384</ele>
        <time>2021-11-21T00:23:48.412Z</time>
      </trkpt>
      <trkpt lat="47.396273" lon="7.672873">
        <ele>575.023249</ele>
        <time>2021-11-21T00:23:48.626Z</time>
      </trkpt>
      <trkpt lat="47.396249" lon="7.672957">
        <ele>574.688423</ele>
        <time>2021-11-21T00:23:49.177Z</time>
      </trkpt>
      <trkpt lat="47.396220" lon="7.673088">
        <ele>574.182278</ele>
        <time>2021-11-21T00:23:50.057Z</time>
      </trkpt>
      <trkpt lat="47.396200" lon="7.673270">
        <ele>573.505166</ele>
        <time>2021-11-21T00:23:51.244Z</time>
      </trkpt>
      <trkpt lat="47.396140" lon="7.674354">
        <ele>569.511084</ele>
        <time>2021-11-21T00:23:58.047Z</time>
      </trkpt>
      <trkpt lat="47.396133" lon="7.674858">
        <ele>567.659844</ele>
        <time>2021-11-21T00:24:01.156Z</time>
      </trkpt>
      <trkpt lat="47.396128" lon="7.675051">
        <ele>566.950566</ele>
        <time>2021-11-21T00:24:02.346Z</time>
      </trkpt>
      <trkpt lat="47.396074" lon="7.675393">
        <ele>566.015726</ele>
        <time>2021-11-21T00:24:04.669Z</time>
      </trkpt>
      <trkpt lat="47.395871" lon="7.676038">
        <ele>564.308868</ele>
        <time>2021-11-21T00:24:09.246Z</time>
      </trkpt>
      <trkpt lat="47.395908" lon="7.676537">
        <ele>563.104298</ele>
        <time>2021-11-21T00:24:12.531Z</time>
      </trkpt>
      <trkpt lat="47.395990" lon="7.676971">
        <ele>562.023060</ele>
        <time>2021-11-21T00:24:15.621Z</time>
      </trkpt>
      <trkpt lat="47.395999" lon="7.677018">
        <ele>561.905853</ele>
        <time>2021-11-21T00:24:15.936Z</time>
      </trkpt>
      <trkpt lat="47.396110" lon="7.677848">
        <ele>560.318832</ele>
        <time>2021-11-21T00:24:22.444Z</time>
      </trkpt>
      <trkpt lat="47.396219" lon="7.678923">
        <ele>560.379538</ele>
        <time>2021-11-21T00:24:32.459Z</time>
      </trkpt>
      <trkpt lat="47.396233" lon="7.679116">
        <ele>560.390378</ele>
        <time>2021-11-21T00:24:35.292Z</time>
      </trkpt>
      <trkpt lat="47.396207" lon="7.679573">
        <ele>560.415991</ele>
        <time>2021-11-21T00:24:41.476Z</time>
      </trkpt>
      <trkpt lat="47.395970" lon="7.681039">
        <ele>559.299182</ele>
        <time>2021-11-21T00:24:59.530Z</time>
      </trkpt>
      <trkpt lat="47.395930" lon="7.681396">
        <ele>558.755238</ele>
        <time>2021-11-21T00:25:04.061Z</time>
      </trkpt>
      <trkpt lat="47.395914" lon="7.681511">
        <ele>558.578757</ele>
        <time>2021-11-21T00:25:05.053Z</time>
      </trkpt>
      <trkpt lat="47.395734" lon="7.682901">
        <ele>556.420730</ele>
        <time>2021-11-21T00:25:14.462Z</time>
      </trkpt>
      <trkpt lat="47.395711" lon="7.683904">
        <ele>550.930935</ele>
        <time>2021-11-21T00:25:20.506Z</time>
      </trkpt>
      <trkpt lat="47.395719" lon="7.684003">
        <ele>550.385536</ele>
        <time>2021-11-21T00:25:21.076Z</time>
      </trkpt>
      <trkpt lat="47.395743" lon="7.684304">
        <ele>548.727612</ele>
        <time>2021-11-21T00:25:22.869Z</time>
      </trkpt>
      <trkpt lat="47.395776" lon="7.684506">
        <ele>547.590902</ele>
        <time>2021-11-21T00:25:24.113Z</time>
      </trkpt>
      <trkpt lat="47.395809" lon="7.684661">
        <ele>546.702070</ele>
        <time>2021-11-21T00:25:25.046Z</time>
      </trkpt>
      <trkpt lat="47.395930" lon="7.685223">
        <ele>543.476053</ele>
        <time>2021-11-21T00:25:28.509Z</time>
      </trkpt>
      <trkpt lat="47.396229" lon="7.686573">
        <ele>536.179782</ele>
        <time>2021-11-21T00:25:36.949Z</time>
      </trkpt>
      <trkpt lat="47.396315" lon="7.686859">
        <ele>534.598232</ele>
        <time>2021-11-21T00:25:38.802Z</time>
      </trkpt>
      <trkpt lat="47.396347" lon="7.686974">
        <ele>533.969869</ele>
        <time>2021-11-21T00:25:39.580Z</time>
      </trkpt>
      <trkpt lat="47.396506" lon="7.687538">
        <ele>530.882279</ele>
        <time>2021-11-21T00:25:43.366Z</time>
      </trkpt>
      <trkpt lat="47.396606" lon="7.687975">
        <ele>528.551042</ele>
        <time>2021-11-21T00:25:46.234Z</time>
      </trkpt>
      <trkpt lat="47.396752" lon="7.688615">
        <ele>526.371092</ele>
        <time>2021-11-21T00:25:50.357Z</time>
      </trkpt>
      <trkpt lat="47.397009" lon="7.689318">
        <ele>523.814250</ele>
        <time>2021-11-21T00:25:55.466Z</time>
      </trkpt>
      <trkpt lat="47.397092" lon="7.689632">
        <ele>522.735503</ele>
        <time>2021-11-21T00:25:57.694Z</time>
      </trkpt>
      <trkpt lat="47.397148" lon="7.689925">
        <ele>521.761198</ele>
        <time>2021-11-21T00:25:59.900Z</time>
      </trkpt>
      <trkpt lat="47.397155" lon="7.689970">
        <ele>521.613438</ele>
        <time>2021-11-21T00:26:00.183Z</time>
      </trkpt>
      <trkpt lat="47.397174" lon="7.690103">
        <ele>521.178442</ele>
        <time>2021-11-21T00:26:01.093Z</time>
      </trkpt>
      <trkpt lat="47.397204" lon="7.690359">
        <ele>520.347017</ele>
        <time>2021-11-21T00:26:03.079Z</time>
      </trkpt>
      <trkpt lat="47.397271" lon="7.690647">
        <ele>519.525460</ele>
        <time>2021-11-21T00:26:05.059Z</time>
      </trkpt>
      <trkpt lat="47.397270" lon="7.690776">
        <ele>519.213758</ele>
        <time>2021-11-21T00:26:05.983Z</time>
      </trkpt>
      <trkpt lat="47.397248" lon="7.690922">
        <ele>518.852368</ele>
        <time>2021-11-21T00:26:06.950Z</time>
      </trkpt>
      <trkpt lat="47.397182" lon="7.691166">
        <ele>518.217506</ele>
        <time>2021-11-21T00:26:08.645Z</time>
      </trkpt>
      <trkpt lat="47.397142" lon="7.691378">
        <ele>517.685759</ele>
        <time>2021-11-21T00:26:10.130Z</time>
      </trkpt>
      <trkpt lat="47.397137" lon="7.691467">
        <ele>517.469984</ele>
        <time>2021-11-21T00:26:10.718Z</time>
      </trkpt>
      <trkpt lat="47.397128" lon="7.691560">
        <ele>517.242998</ele>
        <time>2021-11-21T00:26:11.309Z</time>
      </trkpt>
      <trkpt lat="47.397107" lon="7.691650">
        <ele>517.012989</ele>
        <time>2021-11-21T00:26:11.922Z</time>
      </trkpt>
      <trkpt lat="47.397105" lon="7.691704">
        <ele>516.882323</ele>
        <time>2021-11-21T00:26:12.291Z</time>
      </trkpt>
      <trkpt lat="47.397116" lon="7.691783">
        <ele>516.687451</ele>
        <time>2021-11-21T00:26:12.837Z</time>
      </trkpt>
      <trkpt lat="47.397130" lon="7.691812">
        <ele>516.601389</ele>
        <time>2021-11-21T00:26:13.122Z</time>
      </trkpt>
      <trkpt lat="47.397147" lon="7.691829">
        <ele>516.528116</ele>
        <time>2021-11-21T00:26:13.313Z</time>
      </trkpt>
      <trkpt lat="47.397173" lon="7.691843">
        <ele>516.429340</ele>
        <time>2021-11-21T00:26:13.582Z</time>
      </trkpt>
      <trkpt lat="47.397376" lon="7.691944">
        <ele>515.664773</ele>
        <time>2021-11-21T00:26:15.669Z</time>
      </trkpt>
      <trkpt lat="47.397587" lon="7.692033">
        <ele>514.881543</ele>
        <time>2021-11-21T00:26:17.833Z</time>
      </trkpt>
      <trkpt lat="47.397628" lon="7.692046">
        <ele>514.731867</ele>
        <time>2021-11-21T00:26:18.304Z</time>
      </trkpt>
      <trkpt lat="47.397699" lon="7.692034">
        <ele>514.476790</ele>
        <time>2021-11-21T00:26:19.112Z</time>
      </trkpt>
      <trkpt lat="47.397734" lon="7.692016">
        <ele>514.344509</ele>
        <time>2021-11-21T00:26:19.490Z</time>
      </trkpt>
      <trkpt lat="47.397828" lon="7.691916">
        <ele>513.931050</ele>
        <time>2021-11-21T00:26:20.651Z</time>
      </trkpt>
      <trkpt lat="47.397875" lon="7.691878">
        <ele>513.739810</ele>
        <time>2021-11-21T00:26:21.159Z</time>
      </trkpt>
      <trkpt lat="47.397949" lon="7.691806">
        <ele>513.419749</ele>
        <time>2021-11-21T00:26:22.303Z</time>
      </trkpt>
      <trkpt lat="47.398065" lon="7.691678">
        <ele>512.890191</ele>
        <time>2021-11-21T00:26:23.938Z</time>
      </trkpt>
      <trkpt lat="47.398124" lon="7.691614">
        <ele>512.622473</ele>
        <time>2021-11-21T00:26:24.661Z</time>
      </trkpt>
      <trkpt lat="47.398218" lon="7.691533">
        <ele>512.224455</ele>
        <time>2021-11-21T00:26:25.826Z</time>
      </trkpt>
      <trkpt lat="47.398316" lon="7.691462">
        <ele>511.825237</ele>
        <time>2021-11-21T00:26:27.066Z</time>
      </trkpt>
      <trkpt lat="47.398484" lon="7.691347">
        <ele>511.148018</ele>
        <time>2021-11-21T00:26:28.814Z</time>
      </trkpt>
      <trkpt lat="47.398670" lon="7.691275">
        <ele>510.444754</ele>
        <time>2021-11-21T00:26:30.707Z</time>
      </trkpt>
      <trkpt lat="47.398933" lon="7.691189">
        <ele>509.459546</ele>
        <time>2021-11-21T00:26:33.262Z</time>
      </trkpt>
      <trkpt lat="47.398958" lon="7.691181">
        <ele>509.365988</ele>
        <time>2021-11-21T00:26:33.512Z</time>
      </trkpt>
      <trkpt lat="47.399317" lon="7.691099">
        <ele>508.037339</ele>
        <time>2021-11-21T00:26:36.979Z</time>
      </trkpt>
      <trkpt lat="47.399385" lon="7.691098">
        <ele>507.788616</ele>
        <time>2021-11-21T00:26:37.627Z</time>
      </trkpt>
      <trkpt lat="47.399532" lon="7.691094">
        <ele>507.250870</ele>
        <time>2021-11-21T00:26:39.044Z</time>
      </trkpt>
      <trkpt lat="47.399622" lon="7.691107">
        <ele>506.956400</ele>
        <time>2021-11-21T00:26:40.050Z</time>
      </trkpt>
      <trkpt lat="47.399740" lon="7.691120">
        <ele>506.724169</ele>
        <time>2021-11-21T00:26:41.228Z</time>
      </trkpt>
      <trkpt lat="47.400040" lon="7.691104">
        <ele>506.135002</ele>
        <time>2021-11-21T00:26:44.421Z</time>
      </trkpt>
      <trkpt lat="47.400110" lon="7.691094">
        <ele>505.996979</ele>
        <time>2021-11-21T00:26:45.160Z</time>
      </trkpt>
      <trkpt lat="47.400356" lon="7.691060">
        <ele>505.512069</ele>
        <time>2021-11-21T00:26:47.889Z</time>
      </trkpt>
      <trkpt lat="47.400450" lon="7.691048">
        <ele>505.326896</ele>
        <time>2021-11-21T00:26:48.912Z</time>
      </trkpt>
      <trkpt lat="47.400527" lon="7.691033">
        <ele>505.174467</ele>
        <time>2021-11-21T00:26:49.782Z</time>
      </trkpt>
      <trkpt lat="47.400768" lon="7.690987">
        <ele>504.697547</ele>
        <time>2021-11-21T00:26:52.558Z</time>
      </trkpt>
      <trkpt lat="47.400845" lon="7.690972">
        <ele>504.545118</ele>
        <time>2021-11-21T00:26:53.357Z</time>
      </trkpt>
      <trkpt lat="47.401122" lon="7.690881">
        <ele>503.988197</ele>
        <time>2021-11-21T00:26:56.695Z</time>
      </trkpt>
      <trkpt lat="47.401725" lon="7.690651">
        <ele>503.792474</ele>
        <time>2021-11-21T00:27:04.505Z</time>
      </trkpt>
      <trkpt lat="47.402025" lon="7.690488">
        <ele>504.081927</ele>
        <time>2021-11-21T00:27:09.906Z</time>
      </trkpt>
      <trkpt lat="47.402237" lon="7.690361">
        <ele>504.289084</ele>
        <time>2021-11-21T00:27:13.572Z</time>
      </trkpt>
      <trkpt lat="47.402345" lon="7.690286">
        <ele>504.397149</ele>
        <time>2021-11-21T00:27:16.390Z</time>
      </trkpt>
      <trkpt lat="47.402725" lon="7.690046">
        <ele>504.771380</ele>
        <time>2021-11-21T00:27:24.843Z</time>
      </trkpt>
      <trkpt lat="47.402804" lon="7.690006">
        <ele>504.847003</ele>
        <time>2021-11-21T00:27:26.819Z</time>
      </trkpt>
      <trkpt lat="47.402885" lon="7.689966">
        <ele>504.924342</ele>
        <time>2021-11-21T00:27:28.397Z</time>
      </trkpt>
      <trkpt lat="47.402997" lon="7.689874">
        <ele>505.040384</ele>
        <time>2021-11-21T00:27:32.000Z</time>
      </trkpt>
      <trkpt lat="47.403335" lon="7.689790">
        <ele>505.953465</ele>
        <time>2021-11-21T00:27:40.958Z</time>
      </trkpt>
      <trkpt lat="47.403730" lon="7.689786">
        <ele>507.161184</ele>
        <time>2021-11-21T00:27:51.590Z</time>
      </trkpt>
      <trkpt lat="47.404392" lon="7.689953">
        <ele>509.214504</ele>
        <time>2021-11-21T00:28:09.270Z</time>
      </trkpt>
      <trkpt lat="47.404622" lon="7.690016">
        <ele>509.929699</ele>
        <time>2021-11-21T00:28:16.519Z</time>
      </trkpt>
      <trkpt lat="47.404690" lon="7.690034">
        <ele>510.140915</ele>
        <time>2021-11-21T00:28:18.365Z</time>
      </trkpt>
      <trkpt lat="47.405050" lon="7.690131">
        <ele>511.198175</ele>
        <time>2021-11-21T00:28:29.475Z</time>
      </trkpt>
      <trkpt lat="47.405432" lon="7.690226">
        <ele>512.272616</ele>
        <time>2021-11-21T00:28:40.831Z</time>
      </trkpt>
      <trkpt lat="47.405658" lon="7.690289">
        <ele>512.910520</ele>
        <time>2021-11-21T00:28:47.655Z</time>
      </trkpt>
      <trkpt lat="47.405697" lon="7.690298">
        <ele>513.020004</ele>
        <time>2021-11-21T00:28:48.836Z</time>
      </trkpt>
      <trkpt lat="47.406067" lon="7.690399">
        <ele>514.063624</ele>
        <time>2021-11-21T00:28:59.432Z</time>
      </trkpt>
      <trkpt lat="47.406440" lon="7.690602">
        <ele>515.166147</ele>
        <time>2021-11-21T00:29:09.337Z</time>
      </trkpt>
      <trkpt lat="47.407848" lon="7.691963">
        <ele>513.261852</ele>
        <time>2021-11-21T00:29:32.582Z</time>
      </trkpt>
      <trkpt lat="47.408838" lon="7.692426">
        <ele>506.663748</ele>
        <time>2021-11-21T00:29:41.857Z</time>
      </trkpt>
      <trkpt lat="47.409527" lon="7.692656">
        <ele>500.991680</ele>
        <time>2021-11-21T00:29:48.011Z</time>
      </trkpt>
      <trkpt lat="47.409539" lon="7.692660">
        <ele>500.892899</ele>
        <time>2021-11-21T00:29:48.117Z</time>
      </trkpt>
      <trkpt lat="47.410043" lon="7.692834">
        <ele>496.808423</ele>
        <time>2021-11-21T00:29:52.582Z</time>
      </trkpt>
      <trkpt lat="47.411029" lon="7.693196">
        <ele>488.998632</ele>
        <time>2021-11-21T00:30:01.438Z</time>
      </trkpt>
      <trkpt lat="47.411553" lon="7.693393">
        <ele>484.842339</ele>
        <time>2021-11-21T00:30:06.502Z</time>
      </trkpt>
      <trkpt lat="47.411590" lon="7.693407">
        <ele>484.575303</ele>
        <time>2021-11-21T00:30:06.841Z</time>
      </trkpt>
      <trkpt lat="47.412508" lon="7.693732">
        <ele>482.312490</ele>
        <time>2021-11-21T00:30:16.220Z</time>
      </trkpt>
      <trkpt lat="47.412965" lon="7.693760">
        <ele>481.216073</ele>
        <time>2021-11-21T00:30:21.306Z</time>
      </trkpt>
      <trkpt lat="47.413532" lon="7.693606">
        <ele>480.734936</ele>
        <time>2021-11-21T00:30:29.815Z</time>
      </trkpt>
      <trkpt lat="47.414695" lon="7.693061">
        <ele>483.775294</ele>
        <time>2021-11-21T00:31:00.079Z</time>
      </trkpt>
      <trkpt lat="47.414730" lon="7.693046">
        <ele>483.866105</ele>
        <time>2021-11-21T00:31:01.018Z</time>
      </trkpt>
      <trkpt lat="47.414847" lon="7.692993">
        <ele>484.171053</ele>
        <time>2021-11-21T00:31:04.125Z</time>
      </trkpt>
      <trkpt lat="47.415269" lon="7.692896">
        <ele>485.602337</ele>
        <time>2021-11-21T00:31:18.332Z</time>
      </trkpt>
      <trkpt lat="47.415637" lon="7.692919">
        <ele>487.225904</ele>
        <time>2021-11-21T00:31:31.965Z</time>
      </trkpt>
      <trkpt lat="47.415679" lon="7.692932">
        <ele>487.415054</ele>
        <time>2021-11-21T00:31:33.734Z</time>
      </trkpt>
      <trkpt lat="47.415755" lon="7.692955">
        <ele>487.757009</ele>
        <time>2021-11-21T00:31:38.739Z</time>
      </trkpt>
      <trkpt lat="47.416897" lon="7.693598">
        <ele>492.481903</ele>
        <time>2021-11-21T00:32:18.644Z</time>
      </trkpt>
      <trkpt lat="47.417462" lon="7.693812">
        <ele>491.334056</ele>
        <time>2021-11-21T00:32:27.725Z</time>
      </trkpt>
      <trkpt lat="47.417528" lon="7.693831">
        <ele>491.201728</ele>
        <time>2021-11-21T00:32:29.183Z</time>
      </trkpt>
      <trkpt lat="47.417797" lon="7.693908">
        <ele>490.662503</ele>
        <time>2021-11-21T00:32:31.823Z</time>
      </trkpt>
      <trkpt lat="47.418575" lon="7.694183">
        <ele>488.978287</ele>
        <time>2021-11-21T00:32:39.627Z</time>
      </trkpt>
      <trkpt lat="47.418681" lon="7.694210">
        <ele>488.367332</ele>
        <time>2021-11-21T00:32:40.545Z</time>
      </trkpt>
      <trkpt lat="47.418802" lon="7.694247">
        <ele>487.665497</ele>
        <time>2021-11-21T00:32:41.684Z</time>
      </trkpt>
      <trkpt lat="47.419821" lon="7.694566">
        <ele>481.749172</ele>
        <time>2021-11-21T00:32:51.075Z</time>
      </trkpt>
      <trkpt lat="47.420910" lon="7.695223">
        <ele>477.612409</ele>
        <time>2021-11-21T00:33:02.537Z</time>
      </trkpt>
      <trkpt lat="47.421489" lon="7.695404">
        <ele>476.465389</ele>
        <time>2021-11-21T00:33:09.249Z</time>
      </trkpt>
      <trkpt lat="47.421874" lon="7.695597">
        <ele>475.677445</ele>
        <time>2021-11-21T00:33:15.283Z</time>
      </trkpt>
      <trkpt lat="47.422158" lon="7.695794">
        <ele>475.318069</ele>
        <time>2021-11-21T00:33:21.575Z</time>
      </trkpt>
      <trkpt lat="47.422210" lon="7.695829">
        <ele>475.280801</ele>
        <time>2021-11-21T00:33:23.000Z</time>
      </trkpt>
      <trkpt lat="47.422998" lon="7.696591">
        <ele>474.666598</ele>
        <time>2021-11-21T00:33:40.548Z</time>
      </trkpt>
      <trkpt lat="47.423528" lon="7.696907">
        <ele>474.293841</ele>
        <time>2021-11-21T00:33:46.473Z</time>
      </trkpt>
      <trkpt lat="47.423563" lon="7.696919">
        <ele>474.263769</ele>
        <time>2021-11-21T00:33:48.217Z</time>
      </trkpt>
      <trkpt lat="47.423641" lon="7.696944">
        <ele>473.666598</ele>
        <time>2021-11-21T00:33:49.379Z</time>
      </trkpt>
      <trkpt lat="47.423910" lon="7.697035">
        <ele>471.601860</ele>
        <time>2021-11-21T00:33:53.138Z</time>
      </trkpt>
      <trkpt lat="47.424800" lon="7.697314">
        <ele>464.794636</ele>
        <time>2021-11-21T00:34:04.611Z</time>
      </trkpt>
      <trkpt lat="47.425147" lon="7.697549">
        <ele>461.938783</ele>
        <time>2021-11-21T00:34:09.214Z</time>
      </trkpt>
      <trkpt lat="47.425773" lon="7.698169">
        <ele>456.080311</ele>
        <time>2021-11-21T00:34:18.396Z</time>
      </trkpt>
      <trkpt lat="47.425884" lon="7.698248">
        <ele>455.113516</ele>
        <time>2021-11-21T00:34:19.879Z</time>
      </trkpt>
      <trkpt lat="47.425872" lon="7.698326">
        <ele>454.688826</ele>
        <time>2021-11-21T00:34:20.380Z</time>
      </trkpt>
      <trkpt lat="47.426150" lon="7.698478">
        <ele>452.362738</ele>
        <time>2021-11-21T00:34:22.995Z</time>
      </trkpt>
      <trkpt lat="47.426300" lon="7.698599">
        <ele>451.021722</ele>
        <time>2021-11-21T00:34:24.591Z</time>
      </trkpt>
      <trkpt lat="47.426380" lon="7.698755">
        <ele>449.982444</ele>
        <time>2021-11-21T00:34:25.777Z</time>
      </trkpt>
      <trkpt lat="47.426486" lon="7.699326">
        <ele>446.838868</ele>
        <time>2021-11-21T00:34:29.420Z</time>
      </trkpt>
      <trkpt lat="47.426614" lon="7.699686">
        <ele>445.973931</ele>
        <time>2021-11-21T00:34:32.112Z</time>
      </trkpt>
      <trkpt lat="47.426785" lon="7.699970">
        <ele>445.249525</ele>
        <time>2021-11-21T00:34:34.577Z</time>
      </trkpt>
      <trkpt lat="47.426839" lon="7.700045">
        <ele>445.040835</ele>
        <time>2021-11-21T00:34:35.437Z</time>
      </trkpt>
      <trkpt lat="47.427025" lon="7.700228">
        <ele>444.411550</ele>
        <time>2021-11-21T00:34:37.833Z</time>
      </trkpt>
      <trkpt lat="47.427200" lon="7.700373">
        <ele>443.846527</ele>
        <time>2021-11-21T00:34:40.314Z</time>
      </trkpt>
      <trkpt lat="47.427453" lon="7.700575">
        <ele>443.036674</ele>
        <time>2021-11-21T00:34:43.619Z</time>
      </trkpt>
      <trkpt lat="47.427610" lon="7.700727">
        <ele>442.508096</ele>
        <time>2021-11-21T00:34:45.720Z</time>
      </trkpt>
      <trkpt lat="47.427876" lon="7.701155">
        <ele>441.442784</ele>
        <time>2021-11-21T00:34:49.995Z</time>
      </trkpt>
      <trkpt lat="47.428025" lon="7.701397">
        <ele>440.932336</ele>
        <time>2021-11-21T00:34:52.494Z</time>
      </trkpt>
      <trkpt lat="47.428127" lon="7.701544">
        <ele>440.603850</ele>
        <time>2021-11-21T00:34:53.968Z</time>
      </trkpt>
      <trkpt lat="47.428395" lon="7.701911">
        <ele>439.761445</ele>
        <time>2021-11-21T00:34:57.793Z</time>
      </trkpt>
      <trkpt lat="47.428616" lon="7.702184">
        <ele>439.097330</ele>
        <time>2021-11-21T00:35:00.938Z</time>
      </trkpt>
      <trkpt lat="47.428931" lon="7.702542">
        <ele>438.181113</ele>
        <time>2021-11-21T00:35:05.211Z</time>
      </trkpt>
      <trkpt lat="47.429066" lon="7.702651">
        <ele>437.826411</ele>
        <time>2021-11-21T00:35:06.856Z</time>
      </trkpt>
      <trkpt lat="47.429518" lon="7.702735">
        <ele>436.515106</ele>
        <time>2021-11-21T00:35:11.718Z</time>
      </trkpt>
      <trkpt lat="47.429638" lon="7.702791">
        <ele>436.118238</ele>
        <time>2021-11-21T00:35:12.994Z</time>
      </trkpt>
      <trkpt lat="47.429706" lon="7.702845">
        <ele>435.874792</ele>
        <time>2021-11-21T00:35:13.791Z</time>
      </trkpt>
      <trkpt lat="47.429875" lon="7.703034">
        <ele>435.206451</ele>
        <time>2021-11-21T00:35:15.908Z</time>
      </trkpt>
      <trkpt lat="47.430055" lon="7.703420">
        <ele>434.206211</ele>
        <time>2021-11-21T00:35:19.141Z</time>
      </trkpt>
      <trkpt lat="47.430104" lon="7.703542">
        <ele>433.903504</ele>
        <time>2021-11-21T00:35:20.089Z</time>
      </trkpt>
      <trkpt lat="47.430128" lon="7.703597">
        <ele>433.763867</ele>
        <time>2021-11-21T00:35:20.521Z</time>
      </trkpt>
      <trkpt lat="47.430196" lon="7.703773">
        <ele>433.331443</ele>
        <time>2021-11-21T00:35:21.880Z</time>
      </trkpt>
      <trkpt lat="47.430561" lon="7.704385">
        <ele>431.610333</ele>
        <time>2021-11-21T00:35:27.367Z</time>
      </trkpt>
      <trkpt lat="47.430706" lon="7.704567">
        <ele>431.063316</ele>
        <time>2021-11-21T00:35:29.231Z</time>
      </trkpt>
      <trkpt lat="47.430768" lon="7.704645">
        <ele>430.829193</ele>
        <time>2021-11-21T00:35:30.046Z</time>
      </trkpt>
      <trkpt lat="47.431152" lon="7.704943">
        <ele>429.581998</ele>
        <time>2021-11-21T00:35:34.588Z</time>
      </trkpt>
      <trkpt lat="47.431237" lon="7.705015">
        <ele>429.300276</ele>
        <time>2021-11-21T00:35:35.638Z</time>
      </trkpt>
      <trkpt lat="47.431286" lon="7.705056">
        <ele>429.138359</ele>
        <time>2021-11-21T00:35:36.168Z</time>
      </trkpt>
      <trkpt lat="47.431446" lon="7.705407">
        <ele>428.314986</ele>
        <time>2021-11-21T00:35:39.253Z</time>
      </trkpt>
      <trkpt lat="47.431456" lon="7.705511">
        <ele>428.110637</ele>
        <time>2021-11-21T00:35:39.961Z</time>
      </trkpt>
      <trkpt lat="47.431448" lon="7.705624">
        <ele>427.889613</ele>
        <time>2021-11-21T00:35:40.742Z</time>
      </trkpt>
      <trkpt lat="47.431295" lon="7.706190">
        <ele>426.703894</ele>
        <time>2021-11-21T00:35:45.076Z</time>
      </trkpt>
      <trkpt lat="47.431256" lon="7.706292">
        <ele>426.530363</ele>
        <time>2021-11-21T00:35:45.947Z</time>
      </trkpt>
      <trkpt lat="47.431180" lon="7.706427">
        <ele>426.301753</ele>
        <time>2021-11-21T00:35:47.216Z</time>
      </trkpt>
      <trkpt lat="47.431059" lon="7.706618">
        <ele>425.961144</ele>
        <time>2021-11-21T00:35:49.064Z</time>
      </trkpt>
      <trkpt lat="47.431007" lon="7.706752">
        <ele>425.760064</ele>
        <time>2021-11-21T00:35:50.233Z</time>
      </trkpt>
      <trkpt lat="47.430982" lon="7.706822">
        <ele>425.657031</ele>
        <time>2021-11-21T00:35:50.805Z</time>
      </trkpt>
      <trkpt lat="47.430965" lon="7.706914">
        <ele>425.532892</ele>
        <time>2021-11-21T00:35:51.435Z</time>
      </trkpt>
      <trkpt lat="47.430932" lon="7.707381">
        <ele>424.921718</ele>
        <time>2021-11-21T00:35:55.161Z</time>
      </trkpt>
      <trkpt lat="47.430993" lon="7.708159">
        <ele>423.902262</ele>
        <time>2021-11-21T00:36:01.439Z</time>
      </trkpt>
      <trkpt lat="47.431014" lon="7.708349">
        <ele>423.651671</ele>
        <time>2021-11-21T00:36:02.761Z</time>
      </trkpt>
      <trkpt lat="47.431069" lon="7.708486">
        <ele>423.444308</ele>
        <time>2021-11-21T00:36:04.098Z</time>
      </trkpt>
      <trkpt lat="47.431129" lon="7.708615">
        <ele>423.240537</ele>
        <time>2021-11-21T00:36:05.526Z</time>
      </trkpt>
      <trkpt lat="47.431145" lon="7.708642">
        <ele>423.193815</ele>
        <time>2021-11-21T00:36:05.764Z</time>
      </trkpt>
      <trkpt lat="47.431218" lon="7.708768">
        <ele>422.925742</ele>
        <time>2021-11-21T00:36:06.909Z</time>
      </trkpt>
      <trkpt lat="47.431395" lon="7.709100">
        <ele>422.233247</ele>
        <time>2021-11-21T00:36:10.112Z</time>
      </trkpt>
      <trkpt lat="47.431436" lon="7.709183">
        <ele>422.064881</ele>
        <time>2021-11-21T00:36:10.783Z</time>
      </trkpt>
      <trkpt lat="47.431483" lon="7.709323">
        <ele>421.808841</ele>
        <time>2021-11-21T00:36:12.000Z</time>
      </trkpt>
      <trkpt lat="47.431600" lon="7.709867">
        <ele>420.873695</ele>
        <time>2021-11-21T00:36:15.986Z</time>
      </trkpt>
      <trkpt lat="47.431651" lon="7.710071">
        <ele>420.517407</ele>
        <time>2021-11-21T00:36:17.560Z</time>
      </trkpt>
      <trkpt lat="47.431662" lon="7.710114">
        <ele>420.442096</ele>
        <time>2021-11-21T00:36:17.826Z</time>
      </trkpt>
      <trkpt lat="47.432119" lon="7.711341">
        <ele>418.314372</ele>
        <time>2021-11-21T00:36:28.065Z</time>
      </trkpt>
      <trkpt lat="47.432229" lon="7.711639">
        <ele>417.895486</ele>
        <time>2021-11-21T00:36:30.431Z</time>
      </trkpt>
      <trkpt lat="47.432749" lon="7.713189">
        <ele>415.760655</ele>
        <time>2021-11-21T00:36:43.733Z</time>
      </trkpt>
      <trkpt lat="47.432995" lon="7.713939">
        <ele>415.150079</ele>
        <time>2021-11-21T00:36:50.392Z</time>
      </trkpt>
      <trkpt lat="47.433065" lon="7.714138">
        <ele>415.015982</ele>
        <time>2021-11-21T00:36:52.276Z</time>
      </trkpt>
      <trkpt lat="47.433737" lon="7.716123">
        <ele>414.345620</ele>
        <time>2021-11-21T00:37:10.962Z</time>
      </trkpt>
      <trkpt lat="47.434523" lon="7.718469">
        <ele>416.946449</ele>
        <time>2021-11-21T00:37:49.936Z</time>
      </trkpt>
      <trkpt lat="47.434530" lon="7.718491">
        <ele>416.984828</ele>
        <time>2021-11-21T00:37:51.031Z</time>
      </trkpt>
      <trkpt lat="47.434654" lon="7.718874">
        <ele>417.655108</ele>
        <time>2021-11-21T00:37:58.598Z</time>
      </trkpt>
      <trkpt lat="47.434848" lon="7.719466">
        <ele>418.693514</ele>
        <time>2021-11-21T00:38:11.479Z</time>
      </trkpt>
      <trkpt lat="47.435127" lon="7.720293">
        <ele>420.152347</ele>
        <time>2021-11-21T00:38:26.546Z</time>
      </trkpt>
      <trkpt lat="47.435175" lon="7.720447">
        <ele>420.420012</ele>
        <time>2021-11-21T00:38:29.821Z</time>
      </trkpt>
      <trkpt lat="47.435558" lon="7.721586">
        <ele>418.741484</ele>
        <time>2021-11-21T00:38:42.316Z</time>
      </trkpt>
      <trkpt lat="47.436765" lon="7.725173">
        <ele>409.561807</ele>
        <time>2021-11-21T00:39:08.322Z</time>
      </trkpt>
      <trkpt lat="47.437033" lon="7.725956">
        <ele>409.052391</ele>
        <time>2021-11-21T00:39:14.881Z</time>
      </trkpt>
      <trkpt lat="47.437077" lon="7.726084">
        <ele>409.008123</ele>
        <time>2021-11-21T00:39:15.901Z</time>
      </trkpt>
      <trkpt lat="47.437210" lon="7.726504">
        <ele>408.865144</ele>
        <time>2021-11-21T00:39:20.316Z</time>
      </trkpt>
      <trkpt lat="47.437247" lon="7.726609">
        <ele>408.828642</ele>
        <time>2021-11-21T00:39:21.547Z</time>
      </trkpt>
      <trkpt lat="47.437291" lon="7.726736">
        <ele>408.784649</ele>
        <time>2021-11-21T00:39:24.152Z</time>
      </trkpt>
      <trkpt lat="47.437400" lon="7.726969">
        <ele>408.697305</ele>
        <time>2021-11-21T00:39:28.542Z</time>
      </trkpt>
      <trkpt lat="47.437559" lon="7.727278">
        <ele>408.577603</ele>
        <time>2021-11-21T00:39:34.732Z</time>
      </trkpt>
      <trkpt lat="47.438029" lon="7.727947">
        <ele>407.507975</ele>
        <time>2021-11-21T00:39:45.284Z</time>
      </trkpt>
      <trkpt lat="47.438277" lon="7.728199">
        <ele>406.821594</ele>
        <time>2021-11-21T00:39:48.852Z</time>
      </trkpt>
      <trkpt lat="47.438420" lon="7.728330">
        <ele>406.437888</ele>
        <time>2021-11-21T00:39:52.375Z</time>
      </trkpt>
      <trkpt lat="47.438996" lon="7.728816">
        <ele>404.925205</ele>
        <time>2021-11-21T00:39:59.035Z</time>
      </trkpt>
      <trkpt lat="47.439484" lon="7.729234">
        <ele>402.239379</ele>
        <time>2021-11-21T00:40:04.103Z</time>
      </trkpt>
      <trkpt lat="47.440436" lon="7.730051">
        <ele>394.927120</ele>
        <time>2021-11-21T00:40:13.811Z</time>
      </trkpt>
      <trkpt lat="47.440666" lon="7.730243">
        <ele>393.172528</ele>
        <time>2021-11-21T00:40:16.235Z</time>
      </trkpt>
      <trkpt lat="47.441594" lon="7.731080">
        <ele>389.651819</ele>
        <time>2021-11-21T00:40:27.214Z</time>
      </trkpt>
      <trkpt lat="47.441706" lon="7.731181">
        <ele>389.278706</ele>
        <time>2021-11-21T00:40:28.746Z</time>
      </trkpt>
      <trkpt lat="47.442994" lon="7.732397">
        <ele>385.719236</ele>
        <time>2021-11-21T00:40:46.208Z</time>
      </trkpt>
      <trkpt lat="47.443020" lon="7.732425">
        <ele>385.658070</ele>
        <time>2021-11-21T00:40:46.475Z</time>
      </trkpt>
      <trkpt lat="47.443230" lon="7.732639">
        <ele>385.173079</ele>
        <time>2021-11-21T00:40:49.620Z</time>
      </trkpt>
      <trkpt lat="47.443386" lon="7.732819">
        <ele>384.796793</ele>
        <time>2021-11-21T00:40:51.691Z</time>
      </trkpt>
      <trkpt lat="47.443761" lon="7.733253">
        <ele>383.891227</ele>
        <time>2021-11-21T00:40:56.966Z</time>
      </trkpt>
      <trkpt lat="47.443863" lon="7.733374">
        <ele>383.621512</ele>
        <time>2021-11-21T00:40:58.359Z</time>
      </trkpt>
      <trkpt lat="47.443910" lon="7.733430">
        <ele>383.496827</ele>
        <time>2021-11-21T00:40:58.941Z</time>
      </trkpt>
      <trkpt lat="47.444242" lon="7.733828">
        <ele>382.613941</ele>
        <time>2021-11-21T00:41:03.574Z</time>
      </trkpt>
      <trkpt lat="47.444384" lon="7.733998">
        <ele>382.236524</ele>
        <time>2021-11-21T00:41:05.612Z</time>
      </trkpt>
      <trkpt lat="47.444690" lon="7.734364">
        <ele>381.423514</ele>
        <time>2021-11-21T00:41:10.042Z</time>
      </trkpt>
      <trkpt lat="47.444778" lon="7.734464">
        <ele>381.194253</ele>
        <time>2021-11-21T00:41:11.332Z</time>
      </trkpt>
      <trkpt lat="47.444952" lon="7.734628">
        <ele>380.768014</ele>
        <time>2021-11-21T00:41:13.534Z</time>
      </trkpt>
      <trkpt lat="47.445206" lon="7.734772">
        <ele>380.206089</ele>
        <time>2021-11-21T00:41:16.468Z</time>
      </trkpt>
      <trkpt lat="47.445351" lon="7.734812">
        <ele>379.888545</ele>
        <time>2021-11-21T00:41:18.006Z</time>
      </trkpt>
      <trkpt lat="47.445493" lon="7.734890">
        <ele>379.560716</ele>
        <time>2021-11-21T00:41:19.663Z</time>
      </trkpt>
      <trkpt lat="47.445550" lon="7.734931">
        <ele>379.423538</ele>
        <time>2021-11-21T00:41:20.345Z</time>
      </trkpt>
      <trkpt lat="47.445610" lon="7.734982">
        <ele>379.273764</ele>
        <time>2021-11-21T00:41:21.060Z</time>
      </trkpt>
      <trkpt lat="47.445804" lon="7.735171">
        <ele>378.770984</ele>
        <time>2021-11-21T00:41:23.582Z</time>
      </trkpt>
      <trkpt lat="47.446093" lon="7.735404">
        <ele>378.058619</ele>
        <time>2021-11-21T00:41:27.119Z</time>
      </trkpt>
      <trkpt lat="47.446470" lon="7.735676">
        <ele>377.150795</ele>
        <time>2021-11-21T00:41:31.662Z</time>
      </trkpt>
      <trkpt lat="47.447048" lon="7.735793">
        <ele>375.945407</ele>
        <time>2021-11-21T00:41:38.136Z</time>
      </trkpt>
      <trkpt lat="47.447629" lon="7.735983">
        <ele>374.846267</ele>
        <time>2021-11-21T00:41:44.713Z</time>
      </trkpt>
      <trkpt lat="47.447927" lon="7.736077">
        <ele>374.283425</ele>
        <time>2021-11-21T00:41:48.090Z</time>
      </trkpt>
      <trkpt lat="47.448235" lon="7.736115">
        <ele>373.712518</ele>
        <time>2021-11-21T00:41:51.606Z</time>
      </trkpt>
      <trkpt lat="47.448379" lon="7.736094">
        <ele>373.445235</ele>
        <time>2021-11-21T00:41:53.123Z</time>
      </trkpt>
      <trkpt lat="47.448554" lon="7.736059">
        <ele>373.119036</ele>
        <time>2021-11-21T00:41:55.258Z</time>
      </trkpt>
      <trkpt lat="47.448658" lon="7.736045">
        <ele>372.931307</ele>
        <time>2021-11-21T00:41:56.350Z</time>
      </trkpt>
      <trkpt lat="47.448771" lon="7.736054">
        <ele>372.758375</ele>
        <time>2021-11-21T00:41:57.611Z</time>
      </trkpt>
      <trkpt lat="47.448896" lon="7.736079">
        <ele>372.565617</ele>
        <time>2021-11-21T00:41:59.155Z</time>
      </trkpt>
      <trkpt lat="47.449072" lon="7.736131">
        <ele>372.291345</ele>
        <time>2021-11-21T00:42:01.072Z</time>
      </trkpt>
      <trkpt lat="47.449300" lon="7.736166">
        <ele>371.941054</ele>
        <time>2021-11-21T00:42:03.964Z</time>
      </trkpt>
      <trkpt lat="47.449358" lon="7.736158">
        <ele>371.852036</ele>
        <time>2021-11-21T00:42:04.577Z</time>
      </trkpt>
      <trkpt lat="47.449411" lon="7.736143">
        <ele>371.769574</ele>
        <time>2021-11-21T00:42:05.125Z</time>
      </trkpt>
      <trkpt lat="47.449636" lon="7.736014">
        <ele>371.400801</ele>
        <time>2021-11-21T00:42:08.187Z</time>
      </trkpt>
      <trkpt lat="47.449876" lon="7.735764">
        <ele>370.952186</ele>
        <time>2021-11-21T00:42:11.518Z</time>
      </trkpt>
      <trkpt lat="47.449999" lon="7.735674">
        <ele>370.742472</ele>
        <time>2021-11-21T00:42:13.042Z</time>
      </trkpt>
      <trkpt lat="47.450032" lon="7.735659">
        <ele>370.689714</ele>
        <time>2021-11-21T00:42:13.394Z</time>
      </trkpt>
      <trkpt lat="47.450096" lon="7.735633">
        <ele>370.588289</ele>
        <time>2021-11-21T00:42:14.133Z</time>
      </trkpt>
      <trkpt lat="47.450162" lon="7.735630">
        <ele>370.487383</ele>
        <time>2021-11-21T00:42:14.961Z</time>
      </trkpt>
      <trkpt lat="47.450235" lon="7.735644">
        <ele>370.374894</ele>
        <time>2021-11-21T00:42:15.846Z</time>
      </trkpt>
      <trkpt lat="47.450479" lon="7.735840">
        <ele>370.081496</ele>
        <time>2021-11-21T00:42:18.986Z</time>
      </trkpt>
      <trkpt lat="47.450546" lon="7.735968">
        <ele>369.999475</ele>
        <time>2021-11-21T00:42:20.349Z</time>
      </trkpt>
      <trkpt lat="47.450604" lon="7.736062">
        <ele>369.934995</ele>
        <time>2021-11-21T00:42:21.334Z</time>
      </trkpt>
      <trkpt lat="47.450657" lon="7.736137">
        <ele>369.880026</ele>
        <time>2021-11-21T00:42:22.113Z</time>
      </trkpt>
      <trkpt lat="47.450802" lon="7.736283">
        <ele>369.748577</ele>
        <time>2021-11-21T00:42:24.309Z</time>
      </trkpt>
      <trkpt lat="47.450937" lon="7.736418">
        <ele>369.626458</ele>
        <time>2021-11-21T00:42:26.391Z</time>
      </trkpt>
      <trkpt lat="47.451089" lon="7.736610">
        <ele>369.476664</ele>
        <time>2021-11-21T00:42:28.822Z</time>
      </trkpt>
      <trkpt lat="47.451187" lon="7.736763">
        <ele>369.369878</ele>
        <time>2021-11-21T00:42:30.697Z</time>
      </trkpt>
      <trkpt lat="47.451252" lon="7.736833">
        <ele>369.309624</ele>
        <time>2021-11-21T00:42:31.673Z</time>
      </trkpt>
      <trkpt lat="47.451333" lon="7.736889">
        <ele>369.242623</ele>
        <time>2021-11-21T00:42:32.821Z</time>
      </trkpt>
      <trkpt lat="47.451595" lon="7.736972">
        <ele>369.041842</ele>
        <time>2021-11-21T00:42:36.551Z</time>
      </trkpt>
      <trkpt lat="47.451812" lon="7.737022">
        <ele>368.877274</ele>
        <time>2021-11-21T00:42:39.803Z</time>
      </trkpt>
      <trkpt lat="47.451885" lon="7.737043">
        <ele>368.881897</ele>
        <time>2021-11-21T00:42:41.042Z</time>
      </trkpt>
      <trkpt lat="47.451989" lon="7.737075">
        <ele>368.928267</ele>
        <time>2021-11-21T00:42:42.571Z</time>
      </trkpt>
      <trkpt lat="47.452126" lon="7.737138">
        <ele>368.990894</ele>
        <time>2021-11-21T00:42:44.882Z</time>
      </trkpt>
      <trkpt lat="47.452390" lon="7.737308">
        <ele>369.116586</ele>
        <time>2021-11-21T00:42:49.981Z</time>
      </trkpt>
      <trkpt lat="47.452658" lon="7.737458">
        <ele>369.241671</ele>
        <time>2021-11-21T00:42:54.959Z</time>
      </trkpt>
      <trkpt lat="47.452759" lon="7.737507">
        <ele>369.288071</ele>
        <time>2021-11-21T00:42:56.641Z</time>
      </trkpt>
      <trkpt lat="47.452831" lon="7.737536">
        <ele>369.320645</ele>
        <time>2021-11-21T00:42:57.710Z</time>
      </trkpt>
      <trkpt lat="47.452976" lon="7.737565">
        <ele>369.384516</ele>
        <time>2021-11-21T00:43:00.589Z</time>
      </trkpt>
      <trkpt lat="47.453142" lon="7.737588">
        <ele>369.457295</ele>
        <time>2021-11-21T00:43:03.272Z</time>
      </trkpt>
      <trkpt lat="47.453432" lon="7.737638">
        <ele>369.584742</ele>
        <time>2021-11-21T00:43:08.640Z</time>
      </trkpt>
      <trkpt lat="47.453609" lon="7.737683">
        <ele>369.630337</ele>
        <time>2021-11-21T00:43:11.288Z</time>
      </trkpt>
      <trkpt lat="47.453751" lon="7.737751">
        <ele>369.578827</ele>
        <time>2021-11-21T00:43:14.326Z</time>
      </trkpt>
      <trkpt lat="47.453895" lon="7.737850">
        <ele>369.524024</ele>
        <time>2021-11-21T00:43:16.199Z</time>
      </trkpt>
      <trkpt lat="47.454020" lon="7.737957">
        <ele>369.474181</ele>
        <time>2021-11-21T00:43:19.429Z</time>
      </trkpt>
      <trkpt lat="47.454162" lon="7.738085">
        <ele>369.416790</ele>
        <time>2021-11-21T00:43:21.726Z</time>
      </trkpt>
      <trkpt lat="47.454170" lon="7.738094">
        <ele>369.413321</ele>
        <time>2021-11-21T00:43:21.819Z</time>
      </trkpt>
      <trkpt lat="47.454299" lon="7.738229">
        <ele>369.358783</ele>
        <time>2021-11-21T00:43:24.655Z</time>
      </trkpt>
      <trkpt lat="47.454441" lon="7.738403">
        <ele>369.295143</ele>
        <time>2021-11-21T00:43:27.118Z</time>
      </trkpt>
      <trkpt lat="47.454485" lon="7.738456">
        <ele>369.275559</ele>
        <time>2021-11-21T00:43:27.688Z</time>
      </trkpt>
      <trkpt lat="47.454492" lon="7.738464">
        <ele>369.272505</ele>
        <time>2021-11-21T00:43:28.310Z</time>
      </trkpt>
      <trkpt lat="47.454586" lon="7.738594">
        <ele>369.228091</ele>
        <time>2021-11-21T00:43:30.319Z</time>
      </trkpt>
      <trkpt lat="47.454623" lon="7.738651">
        <ele>369.209653</ele>
        <time>2021-11-21T00:43:31.107Z</time>
      </trkpt>
      <trkpt lat="47.454843" lon="7.738950">
        <ele>369.106539</ele>
        <time>2021-11-21T00:43:34.702Z</time>
      </trkpt>
      <trkpt lat="47.454998" lon="7.739141">
        <ele>369.036912</ele>
        <time>2021-11-21T00:43:36.931Z</time>
      </trkpt>
      <trkpt lat="47.455129" lon="7.739281">
        <ele>368.747755</ele>
        <time>2021-11-21T00:43:38.991Z</time>
      </trkpt>
      <trkpt lat="47.455241" lon="7.739382">
        <ele>368.456555</ele>
        <time>2021-11-21T00:43:40.460Z</time>
      </trkpt>
      <trkpt lat="47.455373" lon="7.739473">
        <ele>368.133260</ele>
        <time>2021-11-21T00:43:42.111Z</time>
      </trkpt>
      <trkpt lat="47.455488" lon="7.739552">
        <ele>367.851780</ele>
        <time>2021-11-21T00:43:43.573Z</time>
      </trkpt>
      <trkpt lat="47.455544" lon="7.739590">
        <ele>367.715007</ele>
        <time>2021-11-21T00:43:44.262Z</time>
      </trkpt>
      <trkpt lat="47.455935" lon="7.739854">
        <ele>366.760862</ele>
        <time>2021-11-21T00:43:48.992Z</time>
      </trkpt>
      <trkpt lat="47.456226" lon="7.740188">
        <ele>365.943169</ele>
        <time>2021-11-21T00:43:52.879Z</time>
      </trkpt>
      <trkpt lat="47.456384" lon="7.740496">
        <ele>365.362878</ele>
        <time>2021-11-21T00:43:55.499Z</time>
      </trkpt>
      <trkpt lat="47.456616" lon="7.741103">
        <ele>364.271155</ele>
        <time>2021-11-21T00:44:00.291Z</time>
      </trkpt>
      <trkpt lat="47.456656" lon="7.741204">
        <ele>364.084373</ele>
        <time>2021-11-21T00:44:01.052Z</time>
      </trkpt>
      <trkpt lat="47.456807" lon="7.741596">
        <ele>363.364453</ele>
        <time>2021-11-21T00:44:04.139Z</time>
      </trkpt>
      <trkpt lat="47.456944" lon="7.741933">
        <ele>362.736975</ele>
        <time>2021-11-21T00:44:06.863Z</time>
      </trkpt>
      <trkpt lat="47.456992" lon="7.742013">
        <ele>362.566301</ele>
        <time>2021-11-21T00:44:07.691Z</time>
      </trkpt>
      <trkpt lat="47.457059" lon="7.742125">
        <ele>362.327671</ele>
        <time>2021-11-21T00:44:08.682Z</time>
      </trkpt>
      <trkpt lat="47.457044" lon="7.742183">
        <ele>362.228580</ele>
        <time>2021-11-21T00:44:09.147Z</time>
      </trkpt>
      <trkpt lat="47.457045" lon="7.742228">
        <ele>362.156733</ele>
        <time>2021-11-21T00:44:09.506Z</time>
      </trkpt>
      <trkpt lat="47.457063" lon="7.742288">
        <ele>362.051988</ele>
        <time>2021-11-21T00:44:09.996Z</time>
      </trkpt>
      <trkpt lat="47.457083" lon="7.742311">
        <ele>361.992197</ele>
        <time>2021-11-21T00:44:10.260Z</time>
      </trkpt>
      <trkpt lat="47.457196" lon="7.742292">
        <ele>361.723794</ele>
        <time>2021-11-21T00:44:11.877Z</time>
      </trkpt>
      <trkpt lat="47.457210" lon="7.742264">
        <ele>361.668224</ele>
        <time>2021-11-21T00:44:12.123Z</time>
      </trkpt>
      <trkpt lat="47.457311" lon="7.742284">
        <ele>361.427733</ele>
        <time>2021-11-21T00:44:13.179Z</time>
      </trkpt>
      <trkpt lat="47.457445" lon="7.742311">
        <ele>361.108565</ele>
        <time>2021-11-21T00:44:14.728Z</time>
      </trkpt>
      <trkpt lat="47.458000" lon="7.742302">
        <ele>360.866384</ele>
        <time>2021-11-21T00:44:22.186Z</time>
      </trkpt>
      <trkpt lat="47.458517" lon="7.742270">
        <ele>360.965193</ele>
        <time>2021-11-21T00:44:30.566Z</time>
      </trkpt>
      <trkpt lat="47.458665" lon="7.742312">
        <ele>360.993970</ele>
        <time>2021-11-21T00:44:33.318Z</time>
      </trkpt>
      <trkpt lat="47.458962" lon="7.742321">
        <ele>361.050696</ele>
        <time>2021-11-21T00:44:38.728Z</time>
      </trkpt>
      <trkpt lat="47.459071" lon="7.742404">
        <ele>361.074106</ele>
        <time>2021-11-21T00:44:40.574Z</time>
      </trkpt>
      <trkpt lat="47.459104" lon="7.742436">
        <ele>361.081641</ele>
        <time>2021-11-21T00:44:41.969Z</time>
      </trkpt>
      <trkpt lat="47.459181" lon="7.742476">
        <ele>361.097225</ele>
        <time>2021-11-21T00:44:43.389Z</time>
      </trkpt>
      <trkpt lat="47.459214" lon="7.742435">
        <ele>361.105455</ele>
        <time>2021-11-21T00:44:43.934Z</time>
      </trkpt>
      <trkpt lat="47.459352" lon="7.742262">
        <ele>361.102048</ele>
        <time>2021-11-21T00:44:46.868Z</time>
      </trkpt>
      <trkpt lat="47.459421" lon="7.742151">
        <ele>361.048228</ele>
        <time>2021-11-21T00:44:49.316Z</time>
      </trkpt>
      <trkpt lat="47.459496" lon="7.742033">
        <ele>360.990421</ele>
        <time>2021-11-21T00:44:50.913Z</time>
      </trkpt>
      <trkpt lat="47.459941" lon="7.741395">
        <ele>360.663238</ele>
        <time>2021-11-21T00:45:00.536Z</time>
      </trkpt>
      <trkpt lat="47.459971" lon="7.741305">
        <ele>360.627422</ele>
        <time>2021-11-21T00:45:01.321Z</time>
      </trkpt>
      <trkpt lat="47.460198" lon="7.741001">
        <ele>360.465759</ele>
        <time>2021-11-21T00:45:05.053Z</time>
      </trkpt>
      <trkpt lat="47.460849" lon="7.740105">
        <ele>359.694076</ele>
        <time>2021-11-21T00:45:15.135Z</time>
      </trkpt>
      <trkpt lat="47.460986" lon="7.739937">
        <ele>359.445871</ele>
        <time>2021-11-21T00:45:17.095Z</time>
      </trkpt>
      <trkpt lat="47.461070" lon="7.739839">
        <ele>359.296657</ele>
        <time>2021-11-21T00:45:18.439Z</time>
      </trkpt>
      <trkpt lat="47.461511" lon="7.739436">
        <ele>358.573667</ele>
        <time>2021-11-21T00:45:24.354Z</time>
      </trkpt>
      <trkpt lat="47.461764" lon="7.739271">
        <ele>358.188027</ele>
        <time>2021-11-21T00:45:27.722Z</time>
      </trkpt>
      <trkpt lat="47.462058" lon="7.739121">
        <ele>357.754273</ele>
        <time>2021-11-21T00:45:31.408Z</time>
      </trkpt>
      <trkpt lat="47.462257" lon="7.739044">
        <ele>357.486744</ele>
        <time>2021-11-21T00:45:33.772Z</time>
      </trkpt>
      <trkpt lat="47.462428" lon="7.738996">
        <ele>357.266984</ele>
        <time>2021-11-21T00:45:36.016Z</time>
      </trkpt>
      <trkpt lat="47.462754" lon="7.738927">
        <ele>356.851178</ele>
        <time>2021-11-21T00:45:40.113Z</time>
      </trkpt>
      <trkpt lat="47.464246" lon="7.738800">
        <ele>354.895445</ele>
        <time>2021-11-21T00:45:57.539Z</time>
      </trkpt>
      <trkpt lat="47.464525" lon="7.738789">
        <ele>354.487518</ele>
        <time>2021-11-21T00:46:00.801Z</time>
      </trkpt>
      <trkpt lat="47.464818" lon="7.738771">
        <ele>354.058904</ele>
        <time>2021-11-21T00:46:04.207Z</time>
      </trkpt>
      <trkpt lat="47.465111" lon="7.738724">
        <ele>353.628149</ele>
        <time>2021-11-21T00:46:07.664Z</time>
      </trkpt>
      <trkpt lat="47.465278" lon="7.738667">
        <ele>353.377650</ele>
        <time>2021-11-21T00:46:09.637Z</time>
      </trkpt>
      <trkpt lat="47.466017" lon="7.738617">
        <ele>352.132559</ele>
        <time>2021-11-21T00:46:18.065Z</time>
      </trkpt>
      <trkpt lat="47.466070" lon="7.738615">
        <ele>352.028369</ele>
        <time>2021-11-21T00:46:18.667Z</time>
      </trkpt>
      <trkpt lat="47.466320" lon="7.738600">
        <ele>351.536661</ele>
        <time>2021-11-21T00:46:21.407Z</time>
      </trkpt>
      <trkpt lat="47.466937" lon="7.738703">
        <ele>350.316425</ele>
        <time>2021-11-21T00:46:28.218Z</time>
      </trkpt>
      <trkpt lat="47.467080" lon="7.738726">
        <ele>350.033743</ele>
        <time>2021-11-21T00:46:29.780Z</time>
      </trkpt>
      <trkpt lat="47.467174" lon="7.738757">
        <ele>349.844477</ele>
        <time>2021-11-21T00:46:30.825Z</time>
      </trkpt>
      <trkpt lat="47.467405" lon="7.738857">
        <ele>349.371472</ele>
        <time>2021-11-21T00:46:33.415Z</time>
      </trkpt>
      <trkpt lat="47.467978" lon="7.739203">
        <ele>348.013944</ele>
        <time>2021-11-21T00:46:40.064Z</time>
      </trkpt>
      <trkpt lat="47.470256" lon="7.740990">
        <ele>342.676367</ele>
        <time>2021-11-21T00:47:07.922Z</time>
      </trkpt>
      <trkpt lat="47.470851" lon="7.741453">
        <ele>341.646704</ele>
        <time>2021-11-21T00:47:15.667Z</time>
      </trkpt>
      <trkpt lat="47.472097" lon="7.742408">
        <ele>340.773131</ele>
        <time>2021-11-21T00:47:34.225Z</time>
      </trkpt>
      <trkpt lat="47.472647" lon="7.742849">
        <ele>340.399326</ele>
        <time>2021-11-21T00:47:43.370Z</time>
      </trkpt>
      <trkpt lat="47.472975" lon="7.743113">
        <ele>340.180320</ele>
        <time>2021-11-21T00:47:48.688Z</time>
      </trkpt>
      <trkpt lat="47.473017" lon="7.743146">
        <ele>340.152428</ele>
        <time>2021-11-21T00:47:49.370Z</time>
      </trkpt>
      <trkpt lat="47.473167" lon="7.743264">
        <ele>340.052786</ele>
        <time>2021-11-21T00:47:51.810Z</time>
      </trkpt>
      <trkpt lat="47.474415" lon="7.744233">
        <ele>338.365924</ele>
        <time>2021-11-21T00:48:08.828Z</time>
      </trkpt>
      <trkpt lat="47.474802" lon="7.744534">
        <ele>337.518063</ele>
        <time>2021-11-21T00:48:13.588Z</time>
      </trkpt>
      <trkpt lat="47.474825" lon="7.744552">
        <ele>337.467605</ele>
        <time>2021-11-21T00:48:13.875Z</time>
      </trkpt>
      <trkpt lat="47.474911" lon="7.744614">
        <ele>337.282087</ele>
        <time>2021-11-21T00:48:14.982Z</time>
      </trkpt>
      <trkpt lat="47.475040" lon="7.744695">
        <ele>337.010331</ele>
        <time>2021-11-21T00:48:16.439Z</time>
      </trkpt>
      <trkpt lat="47.475240" lon="7.744800">
        <ele>336.598794</ele>
        <time>2021-11-21T00:48:18.722Z</time>
      </trkpt>
      <trkpt lat="47.475301" lon="7.744824">
        <ele>336.476391</ele>
        <time>2021-11-21T00:48:19.368Z</time>
      </trkpt>
      <trkpt lat="47.475512" lon="7.744926">
        <ele>336.006468</ele>
        <time>2021-11-21T00:48:21.645Z</time>
      </trkpt>
      <trkpt lat="47.476298" lon="7.745084">
        <ele>333.537682</ele>
        <time>2021-11-21T00:48:29.758Z</time>
      </trkpt>
      <trkpt lat="47.476587" lon="7.745147">
        <ele>332.628501</ele>
        <time>2021-11-21T00:48:32.685Z</time>
      </trkpt>
      <trkpt lat="47.476791" lon="7.745201">
        <ele>331.983500</ele>
        <time>2021-11-21T00:48:34.770Z</time>
      </trkpt>
      <trkpt lat="47.476839" lon="7.745235">
        <ele>331.817868</ele>
        <time>2021-11-21T00:48:35.302Z</time>
      </trkpt>
      <trkpt lat="47.477022" lon="7.745305">
        <ele>331.229581</ele>
        <time>2021-11-21T00:48:37.264Z</time>
      </trkpt>
      <trkpt lat="47.477122" lon="7.745341">
        <ele>330.909265</ele>
        <time>2021-11-21T00:48:38.288Z</time>
      </trkpt>
      <trkpt lat="47.477525" lon="7.745516">
        <ele>329.677657</ele>
        <time>2021-11-21T00:48:42.566Z</time>
      </trkpt>
      <trkpt lat="47.477688" lon="7.745598">
        <ele>329.186270</ele>
        <time>2021-11-21T00:48:44.334Z</time>
      </trkpt>
      <trkpt lat="47.477739" lon="7.745618">
        <ele>329.035681</ele>
        <time>2021-11-21T00:48:44.858Z</time>
      </trkpt>
      <trkpt lat="47.477786" lon="7.745592">
        <ele>328.892466</ele>
        <time>2021-11-21T00:48:45.342Z</time>
      </trkpt>
      <trkpt lat="47.477825" lon="7.745563">
        <ele>328.767886</ele>
        <time>2021-11-21T00:48:45.767Z</time>
      </trkpt>
      <trkpt lat="47.477880" lon="7.745253">
        <ele>328.149616</ele>
        <time>2021-11-21T00:48:47.968Z</time>
      </trkpt>
      <trkpt lat="47.477896" lon="7.745170">
        <ele>327.983119</ele>
        <time>2021-11-21T00:48:48.549Z</time>
      </trkpt>
      <trkpt lat="47.477909" lon="7.745102">
        <ele>327.846796</ele>
        <time>2021-11-21T00:48:49.021Z</time>
      </trkpt>
      <trkpt lat="47.478002" lon="7.744565">
        <ele>326.777424</ele>
        <time>2021-11-21T00:48:52.886Z</time>
      </trkpt>
      <trkpt lat="47.478055" lon="7.744302">
        <ele>326.248011</ele>
        <time>2021-11-21T00:48:54.915Z</time>
      </trkpt>
      <trkpt lat="47.478062" lon="7.744180">
        <ele>326.011819</ele>
        <time>2021-11-21T00:48:55.797Z</time>
      </trkpt>
      <trkpt lat="47.478089" lon="7.744093">
        <ele>325.827144</ele>
        <time>2021-11-21T00:48:56.516Z</time>
      </trkpt>
      <trkpt lat="47.478130" lon="7.743970">
        <ele>325.562583</ele>
        <time>2021-11-21T00:48:57.541Z</time>
      </trkpt>
      <trkpt lat="47.478238" lon="7.743706">
        <ele>325.104225</ele>
        <time>2021-11-21T00:48:59.732Z</time>
      </trkpt>
      <trkpt lat="47.478402" lon="7.743393">
        <ele>324.594029</ele>
        <time>2021-11-21T00:49:02.650Z</time>
      </trkpt>
      <trkpt lat="47.478481" lon="7.743277">
        <ele>324.381886</ele>
        <time>2021-11-21T00:49:03.877Z</time>
      </trkpt>
      <trkpt lat="47.478535" lon="7.743203">
        <ele>324.241594</ele>
        <time>2021-11-21T00:49:04.713Z</time>
      </trkpt>
      <trkpt lat="47.478673" lon="7.743018">
        <ele>323.886650</ele>
        <time>2021-11-21T00:49:06.775Z</time>
      </trkpt>
      <trkpt lat="47.478747" lon="7.742916">
        <ele>323.693879</ele>
        <time>2021-11-21T00:49:07.900Z</time>
      </trkpt>
      <trkpt lat="47.478848" lon="7.742778">
        <ele>323.431840</ele>
        <time>2021-11-21T00:49:09.450Z</time>
      </trkpt>
      <trkpt lat="47.478895" lon="7.742714">
        <ele>323.310091</ele>
        <time>2021-11-21T00:49:10.138Z</time>
      </trkpt>
      <trkpt lat="47.478949" lon="7.742644">
        <ele>323.173249</ele>
        <time>2021-11-21T00:49:10.918Z</time>
      </trkpt>
      <trkpt lat="47.479105" lon="7.742414">
        <ele>322.753484</ele>
        <time>2021-11-21T00:49:13.367Z</time>
      </trkpt>
      <trkpt lat="47.479182" lon="7.742529">
        <ele>322.544948</ele>
        <time>2021-11-21T00:49:14.542Z</time>
      </trkpt>
      <trkpt lat="47.479816" lon="7.743457">
        <ele>321.065327</ele>
        <time>2021-11-21T00:49:24.986Z</time>
      </trkpt>
      <trkpt lat="47.480180" lon="7.743973">
        <ele>320.295789</ele>
        <time>2021-11-21T00:49:30.660Z</time>
      </trkpt>
      <trkpt lat="47.480406" lon="7.744288">
        <ele>319.821819</ele>
        <time>2021-11-21T00:49:34.132Z</time>
      </trkpt>
      <trkpt lat="47.480939" lon="7.744896">
        <ele>319.262664</ele>
        <time>2021-11-21T00:49:41.808Z</time>
      </trkpt>
      <trkpt lat="47.481025" lon="7.744990">
        <ele>319.285382</ele>
        <time>2021-11-21T00:49:43.133Z</time>
      </trkpt>
      <trkpt lat="47.481499" lon="7.745564">
        <ele>319.415526</ele>
        <time>2021-11-21T00:49:52.183Z</time>
      </trkpt>
      <trkpt lat="47.481828" lon="7.746090">
        <ele>319.518443</ele>
        <time>2021-11-21T00:50:01.860Z</time>
      </trkpt>
      <trkpt lat="47.481867" lon="7.746169">
        <ele>319.532492</ele>
        <time>2021-11-21T00:50:02.690Z</time>
      </trkpt>
      <trkpt lat="47.482049" lon="7.746559">
        <ele>319.649180</ele>
        <time>2021-11-21T00:50:09.427Z</time>
      </trkpt>
      <trkpt lat="47.482232" lon="7.747096">
        <ele>320.060553</ele>
        <time>2021-11-21T00:50:18.014Z</time>
      </trkpt>
      <trkpt lat="47.482374" lon="7.747538">
        <ele>320.395310</ele>
        <time>2021-11-21T00:50:25.261Z</time>
      </trkpt>
      <trkpt lat="47.482477" lon="7.747889">
        <ele>320.657054</ele>
        <time>2021-11-21T00:50:30.768Z</time>
      </trkpt>
      <trkpt lat="47.482512" lon="7.748007">
        <ele>320.745199</ele>
        <time>2021-11-21T00:50:32.053Z</time>
      </trkpt>
      <trkpt lat="47.482614" lon="7.747938">
        <ele>320.858713</ele>
        <time>2021-11-21T00:50:34.073Z</time>
      </trkpt>
      <trkpt lat="47.482770" lon="7.747781">
        <ele>321.049664</ele>
        <time>2021-11-21T00:50:37.547Z</time>
      </trkpt>
      <trkpt lat="47.482853" lon="7.747696">
        <ele>321.151828</ele>
        <time>2021-11-21T00:50:39.468Z</time>
      </trkpt>
      <trkpt lat="47.483011" lon="7.747520">
        <ele>321.351993</ele>
        <time>2021-11-21T00:50:42.687Z</time>
      </trkpt>
      <trkpt lat="47.483152" lon="7.747308">
        <ele>321.227137</ele>
        <time>2021-11-21T00:50:45.678Z</time>
      </trkpt>
      <trkpt lat="47.483410" lon="7.746842">
        <ele>320.721175</ele>
        <time>2021-11-21T00:50:50.916Z</time>
      </trkpt>
      <trkpt lat="47.483497" lon="7.746673">
        <ele>320.542743</ele>
        <time>2021-11-21T00:50:52.611Z</time>
      </trkpt>
      <trkpt lat="47.483614" lon="7.746441">
        <ele>320.299615</ele>
        <time>2021-11-21T00:50:54.797Z</time>
      </trkpt>
      <trkpt lat="47.483713" lon="7.746215">
        <ele>320.073413</ele>
        <time>2021-11-21T00:50:56.768Z</time>
      </trkpt>
      <trkpt lat="47.483804" lon="7.745885">
        <ele>319.774065</ele>
        <time>2021-11-21T00:50:59.551Z</time>
      </trkpt>
      <trkpt lat="47.483854" lon="7.745616">
        <ele>319.539747</ele>
        <time>2021-11-21T00:51:01.618Z</time>
      </trkpt>
      <trkpt lat="47.483913" lon="7.745229">
        <ele>319.206545</ele>
        <time>2021-11-21T00:51:04.581Z</time>
      </trkpt>
      <trkpt lat="47.483929" lon="7.745053">
        <ele>319.029860</ele>
        <time>2021-11-21T00:51:05.891Z</time>
      </trkpt>
      <trkpt lat="47.483992" lon="7.744594">
        <ele>318.542571</ele>
        <time>2021-11-21T00:51:09.378Z</time>
      </trkpt>
      <trkpt lat="47.484001" lon="7.744530">
        <ele>318.474559</ele>
        <time>2021-11-21T00:51:09.851Z</time>
      </trkpt>
      <trkpt lat="47.484063" lon="7.744274">
        <ele>318.191633</ele>
        <time>2021-11-21T00:51:11.964Z</time>
      </trkpt>
      <trkpt lat="47.484090" lon="7.744165">
        <ele>318.070853</ele>
        <time>2021-11-21T00:51:12.848Z</time>
      </trkpt>
      <trkpt lat="47.484222" lon="7.743858">
        <ele>317.692287</ele>
        <time>2021-11-21T00:51:15.779Z</time>
      </trkpt>
      <trkpt lat="47.484603" lon="7.743451">
        <ele>316.968865</ele>
        <time>2021-11-21T00:51:21.248Z</time>
      </trkpt>
      <trkpt lat="47.484808" lon="7.743185">
        <ele>316.549119</ele>
        <time>2021-11-21T00:51:24.368Z</time>
      </trkpt>
      <trkpt lat="47.485062" lon="7.742828">
        <ele>316.482911</ele>
        <time>2021-11-21T00:51:28.411Z</time>
      </trkpt>
      <trkpt lat="47.485225" lon="7.742596">
        <ele>316.552914</ele>
        <time>2021-11-21T00:51:31.032Z</time>
      </trkpt>
      <trkpt lat="47.485965" lon="7.741433">
        <ele>316.887040</ele>
        <time>2021-11-21T00:51:46.986Z</time>
      </trkpt>
      <trkpt lat="47.486112" lon="7.741219">
        <ele>316.950867</ele>
        <time>2021-11-21T00:51:52.866Z</time>
      </trkpt>
      <trkpt lat="47.486369" lon="7.741026">
        <ele>318.248255</ele>
        <time>2021-11-21T00:52:00.392Z</time>
      </trkpt>
      <trkpt lat="47.486469" lon="7.741035">
        <ele>318.749738</ele>
        <time>2021-11-21T00:52:04.824Z</time>
      </trkpt>
      <trkpt lat="47.486458" lon="7.741135">
        <ele>319.092450</ele>
        <time>2021-11-21T00:52:07.085Z</time>
      </trkpt>
      <trkpt lat="47.486413" lon="7.741401">
        <ele>320.019988</ele>
        <time>2021-11-21T00:52:12.188Z</time>
      </trkpt>
      <trkpt lat="47.486335" lon="7.741716">
        <ele>321.154788</ele>
        <time>2021-11-21T00:52:21.006Z</time>
      </trkpt>
      <trkpt lat="47.486221" lon="7.742103">
        <ele>322.582825</ele>
        <time>2021-11-21T00:52:32.976Z</time>
      </trkpt>
      <trkpt lat="47.486170" lon="7.742275">
        <ele>323.218177</ele>
        <time>2021-11-21T00:52:35.853Z</time>
      </trkpt>
      <trkpt lat="47.486081" lon="7.742579">
        <ele>324.338848</ele>
        <time>2021-11-21T00:52:47.151Z</time>
      </trkpt>
      <trkpt lat="47.485726" lon="7.743655">
        <ele>328.239258</ele>
        <time>2021-11-21T00:53:17.247Z</time>
      </trkpt>
      <trkpt lat="47.485353" lon="7.744189">
        <ele>330.676540</ele>
        <time>2021-11-21T00:53:36.246Z</time>
      </trkpt>
      <trkpt lat="47.485152" lon="7.744380">
        <ele>331.798340</ele>
        <time>2021-11-21T00:53:45.902Z</time>
      </trkpt>
      <trkpt lat="47.484772" lon="7.744741">
        <ele>333.918997</ele>
        <time>2021-11-21T00:53:56.357Z</time>
      </trkpt>
      <trkpt lat="47.484727" lon="7.744803">
        <ele>334.207746</ele>
        <time>2021-11-21T00:53:57.272Z</time>
      </trkpt>
      <trkpt lat="47.484658" lon="7.744938">
        <ele>334.656820</ele>
        <time>2021-11-21T00:53:58.666Z</time>
      </trkpt>
      <trkpt lat="47.484616" lon="7.745052">
        <ele>334.960338</ele>
        <time>2021-11-21T00:54:03.895Z</time>
      </trkpt>
      <trkpt lat="47.484266" lon="7.746897">
        <ele>339.439958</ele>
        <time>2021-11-21T00:54:37.719Z</time>
      </trkpt>
      <trkpt lat="47.484176" lon="7.747166">
        <ele>340.141627</ele>
        <time>2021-11-21T00:54:46.597Z</time>
      </trkpt>
      <trkpt lat="47.483953" lon="7.747697">
        <ele>342.315257</ele>
        <time>2021-11-21T00:54:58.575Z</time>
      </trkpt>
      <trkpt lat="47.483857" lon="7.747917">
        <ele>343.376472</ele>
        <time>2021-11-21T00:55:05.554Z</time>
      </trkpt>
      <trkpt lat="47.483653" lon="7.748384">
        <ele>345.629858</ele>
        <time>2021-11-21T00:55:20.546Z</time>
      </trkpt>
      <trkpt lat="47.483455" lon="7.748863">
        <ele>347.905263</ele>
        <time>2021-11-21T00:55:36.870Z</time>
      </trkpt>
      <trkpt lat="47.483127" lon="7.749663">
        <ele>351.773443</ele>
        <time>2021-11-21T00:56:02.173Z</time>
      </trkpt>
      <trkpt lat="47.483104" lon="7.749789">
        <ele>352.446655</ele>
        <time>2021-11-21T00:56:07.819Z</time>
      </trkpt>
      <trkpt lat="47.483118" lon="7.750142">
        <ele>354.270598</ele>
        <time>2021-11-21T00:56:15.710Z</time>
      </trkpt>
      <trkpt lat="47.483212" lon="7.750380">
        <ele>355.692501</ele>
        <time>2021-11-21T00:56:24.318Z</time>
      </trkpt>
      <trkpt lat="47.483353" lon="7.750495">
        <ele>356.921335</ele>
        <time>2021-11-21T00:56:29.478Z</time>
      </trkpt>
      <trkpt lat="47.483598" lon="7.750514">
        <ele>358.793864</ele>
        <time>2021-11-21T00:56:41.747Z</time>
      </trkpt>
      <trkpt lat="47.483821" lon="7.750312">
        <ele>360.789502</ele>
        <time>2021-11-21T00:56:54.122Z</time>
      </trkpt>
      <trkpt lat="47.484079" lon="7.749775">
        <ele>364.188002</ele>
        <time>2021-11-21T00:57:15.232Z</time>
      </trkpt>
      <trkpt lat="47.484276" lon="7.749526">
        <ele>366.539992</ele>
        <time>2021-11-21T00:57:28.296Z</time>
      </trkpt>
      <trkpt lat="47.484374" lon="7.749499">
        <ele>367.580256</ele>
        <time>2021-11-21T00:57:33.196Z</time>
      </trkpt>
      <trkpt lat="47.484403" lon="7.749499">
        <ele>367.882889</ele>
        <time>2021-11-21T00:57:34.776Z</time>
      </trkpt>
      <trkpt lat="47.484462" lon="7.749511">
        <ele>368.504378</ele>
        <time>2021-11-21T00:57:37.248Z</time>
      </trkpt>
      <trkpt lat="47.484510" lon="7.749532">
        <ele>369.026722</ele>
        <time>2021-11-21T00:57:39.684Z</time>
      </trkpt>
      <trkpt lat="47.484510" lon="7.749532">
        <ele>369.026722</ele>
        <time>2021-11-21T00:57:39.744Z</time>
      </trkpt>
      <trkpt lat="47.484572" lon="7.749580">
        <ele>369.756933</ele>
        <time>2021-11-21T00:57:44.898Z</time>
      </trkpt>
      <trkpt lat="47.484700" lon="7.749896">
        <ele>372.355109</ele>
        <time>2021-11-21T00:57:57.233Z</time>
      </trkpt>
      <trkpt lat="47.484640" lon="7.750440">
        <ele>376.242294</ele>
        <time>2021-11-21T00:58:18.584Z</time>
      </trkpt>
      <trkpt lat="47.484582" lon="7.750743">
        <ele>378.463197</ele>
        <time>2021-11-21T00:58:32.300Z</time>
      </trkpt>
      <trkpt lat="47.484428" lon="7.751559">
        <ele>384.352520</ele>
        <time>2021-11-21T00:59:08.664Z</time>
      </trkpt>
      <trkpt lat="47.484067" lon="7.753436">
        <ele>395.862395</ele>
        <time>2021-11-21T01:00:22.759Z</time>
      </trkpt>
      <trkpt lat="47.483916" lon="7.754251">
        <ele>399.991458</ele>
        <time>2021-11-21T01:00:39.987Z</time>
      </trkpt>
      <trkpt lat="47.483838" lon="7.754668">
        <ele>400.774479</ele>
        <time>2021-11-21T01:00:48.282Z</time>
      </trkpt>
      <trkpt lat="47.483795" lon="7.754908">
        <ele>401.223814</ele>
        <time>2021-11-21T01:00:52.127Z</time>
      </trkpt>
      <trkpt lat="47.483754" lon="7.755239">
        <ele>401.832807</ele>
        <time>2021-11-21T01:00:58.006Z</time>
      </trkpt>
      <trkpt lat="47.483769" lon="7.756121">
        <ele>403.429477</ele>
        <time>2021-11-21T01:01:12.656Z</time>
      </trkpt>
      <trkpt lat="47.483791" lon="7.756407">
        <ele>403.950397</ele>
        <time>2021-11-21T01:01:15.211Z</time>
      </trkpt>
      <trkpt lat="47.483892" lon="7.756713">
        <ele>404.718344</ele>
        <time>2021-11-21T01:01:19.797Z</time>
      </trkpt>
      <trkpt lat="47.484252" lon="7.757357">
        <ele>407.902777</ele>
        <time>2021-11-21T01:01:31.996Z</time>
      </trkpt>
      <trkpt lat="47.484552" lon="7.757716">
        <ele>410.078071</ele>
        <time>2021-11-21T01:01:47.702Z</time>
      </trkpt>
      <trkpt lat="47.485109" lon="7.758040">
        <ele>413.452397</ele>
        <time>2021-11-21T01:02:15.639Z</time>
      </trkpt>
      <trkpt lat="47.485584" lon="7.758116">
        <ele>417.247932</ele>
        <time>2021-11-21T01:02:39.738Z</time>
      </trkpt>
      <trkpt lat="47.485622" lon="7.758125">
        <ele>417.616627</ele>
        <time>2021-11-21T01:02:43.204Z</time>
      </trkpt>
      <trkpt lat="47.485673" lon="7.758136">
        <ele>418.110398</ele>
        <time>2021-11-21T01:02:46.502Z</time>
      </trkpt>
      <trkpt lat="47.485984" lon="7.758280">
        <ele>421.232403</ele>
        <time>2021-11-21T01:03:03.145Z</time>
      </trkpt>
      <trkpt lat="47.486303" lon="7.758588">
        <ele>424.881600</ele>
        <time>2021-11-21T01:03:23.533Z</time>
      </trkpt>
      <trkpt lat="47.486484" lon="7.758798">
        <ele>427.085121</ele>
        <time>2021-11-21T01:03:34.324Z</time>
      </trkpt>
      <trkpt lat="47.486636" lon="7.758922">
        <ele>428.747991</ele>
        <time>2021-11-21T01:03:45.838Z</time>
      </trkpt>
      <trkpt lat="47.487031" lon="7.759652">
        <ele>435.048069</ele>
        <time>2021-11-21T01:04:19.082Z</time>
      </trkpt>
      <trkpt lat="47.487890" lon="7.761232">
        <ele>449.251198</ele>
        <time>2021-11-21T01:05:36.561Z</time>
      </trkpt>
      <trkpt lat="47.488339" lon="7.762200">
        <ele>458.338891</ele>
        <time>2021-11-21T01:06:23.752Z</time>
      </trkpt>
      <trkpt lat="47.488582" lon="7.762924">
        <ele>464.696911</ele>
        <time>2021-11-21T01:06:57.594Z</time>
      </trkpt>
      <trkpt lat="47.488619" lon="7.763292">
        <ele>467.623105</ele>
        <time>2021-11-21T01:07:13.154Z</time>
      </trkpt>
      <trkpt lat="47.488592" lon="7.765070">
        <ele>482.287005</ele>
        <time>2021-11-21T01:08:31.862Z</time>
      </trkpt>
      <trkpt lat="47.488674" lon="7.765750">
        <ele>488.078851</ele>
        <time>2021-11-21T01:09:01.584Z</time>
      </trkpt>
      <trkpt lat="47.488779" lon="7.766201">
        <ele>492.078614</ele>
        <time>2021-11-21T01:09:22.136Z</time>
      </trkpt>
      <trkpt lat="47.488885" lon="7.766666">
        <ele>496.271414</ele>
        <time>2021-11-21T01:09:43.081Z</time>
      </trkpt>
      <trkpt lat="47.489047" lon="7.767376">
        <ele>502.751147</ele>
        <time>2021-11-21T01:10:16.227Z</time>
      </trkpt>
      <trkpt lat="47.489106" lon="7.767650">
        <ele>505.237735</ele>
        <time>2021-11-21T01:10:28.640Z</time>
      </trkpt>
      <trkpt lat="47.489166" lon="7.767905">
        <ele>507.572498</ele>
        <time>2021-11-21T01:10:41.657Z</time>
      </trkpt>
      <trkpt lat="47.489202" lon="7.768057">
        <ele>508.965191</ele>
        <time>2021-11-21T01:10:49.846Z</time>
      </trkpt>
      <trkpt lat="47.489217" lon="7.768114">
        <ele>509.494111</ele>
        <time>2021-11-21T01:10:54.232Z</time>
      </trkpt>
      <trkpt lat="47.489260" lon="7.768283">
        <ele>511.055564</ele>
        <time>2021-11-21T01:11:01.996Z</time>
      </trkpt>
      <trkpt lat="47.489233" lon="7.768329">
        <ele>511.582414</ele>
        <time>2021-11-21T01:11:05.103Z</time>
      </trkpt>
      <trkpt lat="47.489191" lon="7.768403">
        <ele>512.418031</ele>
        <time>2021-11-21T01:11:08.806Z</time>
      </trkpt>
      <trkpt lat="47.489120" lon="7.768662">
        <ele>514.834803</ele>
        <time>2021-11-21T01:11:22.336Z</time>
      </trkpt>
      <trkpt lat="47.488934" lon="7.769333">
        <ele>519.755666</ele>
        <time>2021-11-21T01:11:52.475Z</time>
      </trkpt>
      <trkpt lat="47.488741" lon="7.769888">
        <ele>523.493551</ele>
        <time>2021-11-21T01:12:15.754Z</time>
      </trkpt>
      <trkpt lat="47.488684" lon="7.770026">
        <ele>524.462120</ele>
        <time>2021-11-21T01:12:23.734Z</time>
      </trkpt>
      <trkpt lat="47.488198" lon="7.770997">
        <ele>531.698337</ele>
        <time>2021-11-21T01:13:00.501Z</time>
      </trkpt>
      <trkpt lat="47.488008" lon="7.772013">
        <ele>532.944675</ele>
        <time>2021-11-21T01:13:20.500Z</time>
      </trkpt>
      <trkpt lat="47.487758" lon="7.772679">
        <ele>533.192491</ele>
        <time>2021-11-21T01:13:25.965Z</time>
      </trkpt>
      <trkpt lat="47.487530" lon="7.773097">
        <ele>533.367226</ele>
        <time>2021-11-21T01:13:29.872Z</time>
      </trkpt>
      <trkpt lat="47.487094" lon="7.773657">
        <ele>533.964628</ele>
        <time>2021-11-21T01:13:36.928Z</time>
      </trkpt>
      <trkpt lat="47.486703" lon="7.774131">
        <ele>534.826527</ele>
        <time>2021-11-21T01:13:46.393Z</time>
      </trkpt>
      <trkpt lat="47.486452" lon="7.774370">
        <ele>535.335485</ele>
        <time>2021-11-21T01:13:53.665Z</time>
      </trkpt>
      <trkpt lat="47.486219" lon="7.774600">
        <ele>535.813085</ele>
        <time>2021-11-21T01:14:01.028Z</time>
      </trkpt>
      <trkpt lat="47.486160" lon="7.774746">
        <ele>536.009112</ele>
        <time>2021-11-21T01:14:03.497Z</time>
      </trkpt>
      <trkpt lat="47.486126" lon="7.774937">
        <ele>536.236714</ele>
        <time>2021-11-21T01:14:07.724Z</time>
      </trkpt>
      <trkpt lat="47.486120" lon="7.775142">
        <ele>536.473163</ele>
        <time>2021-11-21T01:14:11.655Z</time>
      </trkpt>
      <trkpt lat="47.486123" lon="7.775346">
        <ele>536.791974</ele>
        <time>2021-11-21T01:14:15.426Z</time>
      </trkpt>
      <trkpt lat="47.486221" lon="7.775747">
        <ele>537.621024</ele>
        <time>2021-11-21T01:14:24.415Z</time>
      </trkpt>
      <trkpt lat="47.486352" lon="7.776140">
        <ele>538.473001</ele>
        <time>2021-11-21T01:14:35.112Z</time>
      </trkpt>
      <trkpt lat="47.486453" lon="7.776445">
        <ele>539.133357</ele>
        <time>2021-11-21T01:14:42.935Z</time>
      </trkpt>
      <trkpt lat="47.487907" lon="7.778783">
        <ele>542.646216</ele>
        <time>2021-11-21T01:15:27.423Z</time>
      </trkpt>
      <trkpt lat="47.488606" lon="7.780818">
        <ele>542.215855</ele>
        <time>2021-11-21T01:15:46.769Z</time>
      </trkpt>
      <trkpt lat="47.488675" lon="7.780934">
        <ele>542.126608</ele>
        <time>2021-11-21T01:15:48.081Z</time>
      </trkpt>
      <trkpt lat="47.488777" lon="7.781083">
        <ele>542.004121</ele>
        <time>2021-11-21T01:15:49.695Z</time>
      </trkpt>
      <trkpt lat="47.489037" lon="7.781447">
        <ele>541.698241</ele>
        <time>2021-11-21T01:15:53.961Z</time>
      </trkpt>
      <trkpt lat="47.489418" lon="7.781971">
        <ele>541.782587</ele>
        <time>2021-11-21T01:16:00.367Z</time>
      </trkpt>
      <trkpt lat="47.490287" lon="7.783171">
        <ele>542.828930</ele>
        <time>2021-11-21T01:16:21.559Z</time>
      </trkpt>
      <trkpt lat="47.490527" lon="7.783532">
        <ele>543.331661</ele>
        <time>2021-11-21T01:16:30.206Z</time>
      </trkpt>
      <trkpt lat="47.490609" lon="7.783692">
        <ele>544.191210</ele>
        <time>2021-11-21T01:16:33.460Z</time>
      </trkpt>
      <trkpt lat="47.490633" lon="7.783833">
        <ele>544.813586</ele>
        <time>2021-11-21T01:16:36.767Z</time>
      </trkpt>
      <trkpt lat="47.490689" lon="7.784199">
        <ele>546.419834</ele>
        <time>2021-11-21T01:16:43.334Z</time>
      </trkpt>
      <trkpt lat="47.490723" lon="7.784422">
        <ele>547.398336</ele>
        <time>2021-11-21T01:16:49.371Z</time>
      </trkpt>
      <trkpt lat="47.490860" lon="7.785128">
        <ele>550.542360</ele>
        <time>2021-11-21T01:17:09.970Z</time>
      </trkpt>
      <trkpt lat="47.490876" lon="7.785414">
        <ele>551.770708</ele>
        <time>2021-11-21T01:17:19.504Z</time>
      </trkpt>
      <trkpt lat="47.490808" lon="7.785962">
        <ele>554.155525</ele>
        <time>2021-11-21T01:17:38.565Z</time>
      </trkpt>
      <trkpt lat="47.490637" lon="7.786369">
        <ele>557.111504</ele>
        <time>2021-11-21T01:17:57.065Z</time>
      </trkpt>
      <trkpt lat="47.490588" lon="7.786449">
        <ele>557.817344</ele>
        <time>2021-11-21T01:18:02.167Z</time>
      </trkpt>
      <trkpt lat="47.490524" lon="7.786562">
        <ele>558.781200</ele>
        <time>2021-11-21T01:18:06.803Z</time>
      </trkpt>
      <trkpt lat="47.490217" lon="7.787045">
        <ele>563.115981</ele>
        <time>2021-11-21T01:18:31.531Z</time>
      </trkpt>
      <trkpt lat="47.489788" lon="7.787865">
        <ele>569.895319</ele>
        <time>2021-11-21T01:19:09.613Z</time>
      </trkpt>
      <trkpt lat="47.489723" lon="7.788036">
        <ele>571.177907</ele>
        <time>2021-11-21T01:19:18.015Z</time>
      </trkpt>
      <trkpt lat="47.489691" lon="7.788200">
        <ele>572.100159</ele>
        <time>2021-11-21T01:19:24.035Z</time>
      </trkpt>
      <trkpt lat="47.489663" lon="7.788691">
        <ele>573.769315</ele>
        <time>2021-11-21T01:19:40.359Z</time>
      </trkpt>
      <trkpt lat="47.489823" lon="7.789549">
        <ele>576.784400</ele>
        <time>2021-11-21T01:20:03.106Z</time>
      </trkpt>
      <trkpt lat="47.489925" lon="7.791008">
        <ele>580.876248</ele>
        <time>2021-11-21T01:20:27.571Z</time>
      </trkpt>
      <trkpt lat="47.489971" lon="7.791599">
        <ele>580.798899</ele>
        <time>2021-11-21T01:20:34.535Z</time>
      </trkpt>
      <trkpt lat="47.489987" lon="7.791819">
        <ele>580.770129</ele>
        <time>2021-11-21T01:20:37.026Z</time>
      </trkpt>
      <trkpt lat="47.490118" lon="7.793776">
        <ele>579.390697</ele>
        <time>2021-11-21T01:20:53.820Z</time>
      </trkpt>
      <trkpt lat="47.490137" lon="7.796120">
        <ele>571.850849</ele>
        <time>2021-11-21T01:21:08.646Z</time>
      </trkpt>
      <trkpt lat="47.490229" lon="7.796508">
        <ele>569.613597</ele>
        <time>2021-11-21T01:21:11.089Z</time>
      </trkpt>
      <trkpt lat="47.490482" lon="7.797579">
        <ele>563.440630</ele>
        <time>2021-11-21T01:21:17.824Z</time>
      </trkpt>
      <trkpt lat="47.490613" lon="7.798182">
        <ele>559.994421</ele>
        <time>2021-11-21T01:21:21.532Z</time>
      </trkpt>
      <trkpt lat="47.490919" lon="7.798941">
        <ele>556.059048</ele>
        <time>2021-11-21T01:21:26.759Z</time>
      </trkpt>
      <trkpt lat="47.491125" lon="7.799903">
        <ele>552.511128</ele>
        <time>2021-11-21T01:21:32.990Z</time>
      </trkpt>
      <trkpt lat="47.491207" lon="7.800233">
        <ele>551.274973</ele>
        <time>2021-11-21T01:21:35.238Z</time>
      </trkpt>
      <trkpt lat="47.491266" lon="7.800470">
        <ele>550.386994</ele>
        <time>2021-11-21T01:21:37.012Z</time>
      </trkpt>
      <trkpt lat="47.491393" lon="7.801006">
        <ele>548.390068</ele>
        <time>2021-11-21T01:21:41.025Z</time>
      </trkpt>
      <trkpt lat="47.491405" lon="7.801118">
        <ele>548.498780</ele>
        <time>2021-11-21T01:21:41.793Z</time>
      </trkpt>
      <trkpt lat="47.491420" lon="7.801300">
        <ele>548.929044</ele>
        <time>2021-11-21T01:21:43.221Z</time>
      </trkpt>
      <trkpt lat="47.491399" lon="7.802037">
        <ele>550.660096</ele>
        <time>2021-11-21T01:21:51.203Z</time>
      </trkpt>
      <trkpt lat="47.491604" lon="7.802704">
        <ele>552.379652</ele>
        <time>2021-11-21T01:22:02.667Z</time>
      </trkpt>
      <trkpt lat="47.491641" lon="7.802949">
        <ele>552.968776</ele>
        <time>2021-11-21T01:22:07.971Z</time>
      </trkpt>
      <trkpt lat="47.491627" lon="7.803075">
        <ele>553.268429</ele>
        <time>2021-11-21T01:22:13.449Z</time>
      </trkpt>
      <trkpt lat="47.491556" lon="7.803362">
        <ele>553.985649</ele>
        <time>2021-11-21T01:22:22.672Z</time>
      </trkpt>
      <trkpt lat="47.491486" lon="7.803573">
        <ele>554.537262</ele>
        <time>2021-11-21T01:22:33.844Z</time>
      </trkpt>
      <trkpt lat="47.491467" lon="7.803711">
        <ele>555.611322</ele>
        <time>2021-11-21T01:22:40.828Z</time>
      </trkpt>
      <trkpt lat="47.491463" lon="7.803928">
        <ele>557.284692</ele>
        <time>2021-11-21T01:22:50.291Z</time>
      </trkpt>
      <trkpt lat="47.491423" lon="7.804002">
        <ele>558.015188</ele>
        <time>2021-11-21T01:22:57.115Z</time>
      </trkpt>
      <trkpt lat="47.491177" lon="7.804268">
        <ele>561.490874</ele>
        <time>2021-11-21T01:23:14.420Z</time>
      </trkpt>
      <trkpt lat="47.490972" lon="7.804817">
        <ele>566.326087</ele>
        <time>2021-11-21T01:23:45.440Z</time>
      </trkpt>
      <trkpt lat="47.490914" lon="7.804913">
        <ele>567.318785</ele>
        <time>2021-11-21T01:23:50.220Z</time>
      </trkpt>
      <trkpt lat="47.490692" lon="7.805224">
        <ele>570.806129</ele>
        <time>2021-11-21T01:24:10.663Z</time>
      </trkpt>
      <trkpt lat="47.490528" lon="7.805558">
        <ele>573.988806</ele>
        <time>2021-11-21T01:24:22.996Z</time>
      </trkpt>
      <trkpt lat="47.490509" lon="7.805657">
        <ele>574.782147</ele>
        <time>2021-11-21T01:24:30.429Z</time>
      </trkpt>
      <trkpt lat="47.490507" lon="7.805711">
        <ele>575.140180</ele>
        <time>2021-11-21T01:24:30.794Z</time>
      </trkpt>
      <trkpt lat="47.490538" lon="7.805979">
        <ele>576.338625</ele>
        <time>2021-11-21T01:24:39.782Z</time>
      </trkpt>
      <trkpt lat="47.490574" lon="7.806137">
        <ele>577.073566</ele>
        <time>2021-11-21T01:24:45.740Z</time>
      </trkpt>
      <trkpt lat="47.490633" lon="7.806304">
        <ele>577.904190</ele>
        <time>2021-11-21T01:24:52.001Z</time>
      </trkpt>
      <trkpt lat="47.490886" lon="7.806854">
        <ele>580.836838</ele>
        <time>2021-11-21T01:25:15.214Z</time>
      </trkpt>
      <trkpt lat="47.490987" lon="7.807452">
        <ele>583.553710</ele>
        <time>2021-11-21T01:25:31.124Z</time>
      </trkpt>
      <trkpt lat="47.491021" lon="7.807539">
        <ele>583.996693</ele>
        <time>2021-11-21T01:25:33.403Z</time>
      </trkpt>
      <trkpt lat="47.491259" lon="7.808151">
        <ele>586.748999</ele>
        <time>2021-11-21T01:25:44.026Z</time>
      </trkpt>
      <trkpt lat="47.491350" lon="7.808391">
        <ele>586.574853</ele>
        <time>2021-11-21T01:25:48.662Z</time>
      </trkpt>
      <trkpt lat="47.491452" lon="7.808947">
        <ele>586.210286</ele>
        <time>2021-11-21T01:25:55.952Z</time>
      </trkpt>
      <trkpt lat="47.491490" lon="7.809341">
        <ele>585.958440</ele>
        <time>2021-11-21T01:25:59.606Z</time>
      </trkpt>
      <trkpt lat="47.491540" lon="7.809874">
        <ele>585.617929</ele>
        <time>2021-11-21T01:26:04.230Z</time>
      </trkpt>
      <trkpt lat="47.491544" lon="7.810309">
        <ele>585.342642</ele>
        <time>2021-11-21T01:26:07.093Z</time>
      </trkpt>
      <trkpt lat="47.491483" lon="7.810733">
        <ele>584.762653</ele>
        <time>2021-11-21T01:26:10.133Z</time>
      </trkpt>
      <trkpt lat="47.491462" lon="7.810822">
        <ele>584.263150</ele>
        <time>2021-11-21T01:26:10.676Z</time>
      </trkpt>
      <trkpt lat="47.491417" lon="7.811033">
        <ele>583.090771</ele>
        <time>2021-11-21T01:26:12.189Z</time>
      </trkpt>
      <trkpt lat="47.491536" lon="7.811112">
        <ele>582.068025</ele>
        <time>2021-11-21T01:26:13.400Z</time>
      </trkpt>
      <trkpt lat="47.491701" lon="7.811206">
        <ele>580.681591</ele>
        <time>2021-11-21T01:26:14.961Z</time>
      </trkpt>
      <trkpt lat="47.492165" lon="7.811273">
        <ele>577.025768</ele>
        <time>2021-11-21T01:26:19.126Z</time>
      </trkpt>
      <trkpt lat="47.492224" lon="7.811327">
        <ele>576.481783</ele>
        <time>2021-11-21T01:26:19.750Z</time>
      </trkpt>
      <trkpt lat="47.492257" lon="7.811384">
        <ele>576.084065</ele>
        <time>2021-11-21T01:26:20.168Z</time>
      </trkpt>
      <trkpt lat="47.492273" lon="7.811452">
        <ele>575.702543</ele>
        <time>2021-11-21T01:26:20.578Z</time>
      </trkpt>
      <trkpt lat="47.492264" lon="7.811614">
        <ele>574.841281</ele>
        <time>2021-11-21T01:26:21.606Z</time>
      </trkpt>
      <trkpt lat="47.492176" lon="7.811763">
        <ele>573.792720</ele>
        <time>2021-11-21T01:26:22.796Z</time>
      </trkpt>
      <trkpt lat="47.492008" lon="7.811905">
        <ele>572.275599</ele>
        <time>2021-11-21T01:26:24.431Z</time>
      </trkpt>
      <trkpt lat="47.491595" lon="7.812210">
        <ele>566.746380</ele>
        <time>2021-11-21T01:26:28.428Z</time>
      </trkpt>
      <trkpt lat="47.491212" lon="7.812513">
        <ele>560.572298</ele>
        <time>2021-11-21T01:26:32.027Z</time>
      </trkpt>
      <trkpt lat="47.491001" lon="7.812847">
        <ele>556.179985</ele>
        <time>2021-11-21T01:26:34.572Z</time>
      </trkpt>
      <trkpt lat="47.490928" lon="7.813010">
        <ele>554.301471</ele>
        <time>2021-11-21T01:26:35.657Z</time>
      </trkpt>
      <trkpt lat="47.490609" lon="7.813824">
        <ele>545.262205</ele>
        <time>2021-11-21T01:26:41.105Z</time>
      </trkpt>
      <trkpt lat="47.490583" lon="7.813886">
        <ele>544.561912</ele>
        <time>2021-11-21T01:26:41.550Z</time>
      </trkpt>
      <trkpt lat="47.490141" lon="7.814910">
        <ele>532.900537</ele>
        <time>2021-11-21T01:26:48.588Z</time>
      </trkpt>
      <trkpt lat="47.489951" lon="7.815143">
        <ele>529.395899</ele>
        <time>2021-11-21T01:26:50.628Z</time>
      </trkpt>
      <trkpt lat="47.489256" lon="7.815700">
        <ele>518.199905</ele>
        <time>2021-11-21T01:26:57.221Z</time>
      </trkpt>
      <trkpt lat="47.489000" lon="7.816098">
        <ele>513.017043</ele>
        <time>2021-11-21T01:27:00.296Z</time>
      </trkpt>
      <trkpt lat="47.488831" lon="7.816489">
        <ele>508.639090</ele>
        <time>2021-11-21T01:27:02.923Z</time>
      </trkpt>
      <trkpt lat="47.488720" lon="7.816914">
        <ele>504.341341</ele>
        <time>2021-11-21T01:27:05.542Z</time>
      </trkpt>
      <trkpt lat="47.488531" lon="7.818236">
        <ele>495.015398</ele>
        <time>2021-11-21T01:27:13.940Z</time>
      </trkpt>
      <trkpt lat="47.488476" lon="7.818598">
        <ele>495.271354</ele>
        <time>2021-11-21T01:27:15.994Z</time>
      </trkpt>
      <trkpt lat="47.488471" lon="7.818631">
        <ele>495.294684</ele>
        <time>2021-11-21T01:27:21.711Z</time>
      </trkpt>
      <trkpt lat="47.488351" lon="7.819266">
        <ele>495.749539</ele>
        <time>2021-11-21T01:27:26.673Z</time>
      </trkpt>
      <trkpt lat="47.488069" lon="7.819771">
        <ele>496.201467</ele>
        <time>2021-11-21T01:27:31.695Z</time>
      </trkpt>
      <trkpt lat="47.488038" lon="7.819855">
        <ele>496.267492</ele>
        <time>2021-11-21T01:27:35.665Z</time>
      </trkpt>
      <trkpt lat="47.488034" lon="7.819897">
        <ele>496.296752</ele>
        <time>2021-11-21T01:27:35.898Z</time>
      </trkpt>
      <trkpt lat="47.488272" lon="7.820957">
        <ele>496.883927</ele>
        <time>2021-11-21T01:28:31.311Z</time>
      </trkpt>
      <trkpt lat="47.488407" lon="7.821368">
        <ele>497.070364</ele>
        <time>2021-11-21T01:28:43.453Z</time>
      </trkpt>
      <trkpt lat="47.488631" lon="7.821707">
        <ele>497.263800</ele>
        <time>2021-11-21T01:28:47.850Z</time>
      </trkpt>
      <trkpt lat="47.489169" lon="7.822169">
        <ele>497.639340</ele>
        <time>2021-11-21T01:28:53.478Z</time>
      </trkpt>
      <trkpt lat="47.489263" lon="7.822249">
        <ele>497.697044</ele>
        <time>2021-11-21T01:28:54.397Z</time>
      </trkpt>
      <trkpt lat="47.489383" lon="7.822351">
        <ele>496.008559</ele>
        <time>2021-11-21T01:28:55.616Z</time>
      </trkpt>
      <trkpt lat="47.489514" lon="7.822403">
        <ele>494.353687</ele>
        <time>2021-11-21T01:28:56.751Z</time>
      </trkpt>
      <trkpt lat="47.489808" lon="7.822489">
        <ele>490.697096</ele>
        <time>2021-11-21T01:28:59.298Z</time>
      </trkpt>
      <trkpt lat="47.490467" lon="7.822385">
        <ele>482.610840</ele>
        <time>2021-11-21T01:29:04.874Z</time>
      </trkpt>
      <trkpt lat="47.490703" lon="7.822453">
        <ele>479.677261</ele>
        <time>2021-11-21T01:29:06.871Z</time>
      </trkpt>
      <trkpt lat="47.491130" lon="7.822694">
        <ele>474.198436</ele>
        <time>2021-11-21T01:29:10.672Z</time>
      </trkpt>
      <trkpt lat="47.492112" lon="7.823401">
        <ele>461.655286</ele>
        <time>2021-11-21T01:29:19.945Z</time>
      </trkpt>
      <trkpt lat="47.492353" lon="7.823575">
        <ele>458.575319</ele>
        <time>2021-11-21T01:29:22.221Z</time>
      </trkpt>
      <trkpt lat="47.492649" lon="7.823801">
        <ele>454.873318</ele>
        <time>2021-11-21T01:29:25.090Z</time>
      </trkpt>
      <trkpt lat="47.492910" lon="7.823929">
        <ele>452.831885</ele>
        <time>2021-11-21T01:29:27.483Z</time>
      </trkpt>
      <trkpt lat="47.492975" lon="7.823894">
        <ele>452.318340</ele>
        <time>2021-11-21T01:29:28.087Z</time>
      </trkpt>
      <trkpt lat="47.493041" lon="7.823859">
        <ele>451.797811</ele>
        <time>2021-11-21T01:29:28.717Z</time>
      </trkpt>
      <trkpt lat="47.493084" lon="7.823708">
        <ele>450.975773</ele>
        <time>2021-11-21T01:29:29.735Z</time>
      </trkpt>
      <trkpt lat="47.493025" lon="7.823293">
        <ele>448.848287</ele>
        <time>2021-11-21T01:29:32.248Z</time>
      </trkpt>
      <trkpt lat="47.493047" lon="7.823163">
        <ele>448.175982</ele>
        <time>2021-11-21T01:29:33.077Z</time>
      </trkpt>
      <trkpt lat="47.493066" lon="7.823134">
        <ele>447.973337</ele>
        <time>2021-11-21T01:29:33.326Z</time>
      </trkpt>
      <trkpt lat="47.493081" lon="7.823112">
        <ele>447.816546</ele>
        <time>2021-11-21T01:29:33.497Z</time>
      </trkpt>
      <trkpt lat="47.493228" lon="7.823059">
        <ele>446.693215</ele>
        <time>2021-11-21T01:29:34.837Z</time>
      </trkpt>
      <trkpt lat="47.493409" lon="7.823156">
        <ele>445.263980</ele>
        <time>2021-11-21T01:29:36.692Z</time>
      </trkpt>
      <trkpt lat="47.493592" lon="7.823360">
        <ele>443.562990</ele>
        <time>2021-11-21T01:29:38.795Z</time>
      </trkpt>
      <trkpt lat="47.493696" lon="7.823573">
        <ele>442.244666</ele>
        <time>2021-11-21T01:29:40.426Z</time>
      </trkpt>
      <trkpt lat="47.493699" lon="7.823782">
        <ele>441.553074</ele>
        <time>2021-11-21T01:29:41.809Z</time>
      </trkpt>
      <trkpt lat="47.493509" lon="7.824560">
        <ele>440.101392</ele>
        <time>2021-11-21T01:29:47.107Z</time>
      </trkpt>
      <trkpt lat="47.493537" lon="7.824674">
        <ele>439.888536</ele>
        <time>2021-11-21T01:29:47.888Z</time>
      </trkpt>
      <trkpt lat="47.493647" lon="7.824596">
        <ele>439.571755</ele>
        <time>2021-11-21T01:29:49.149Z</time>
      </trkpt>
      <trkpt lat="47.493875" lon="7.824391">
        <ele>438.878902</ele>
        <time>2021-11-21T01:29:52.322Z</time>
      </trkpt>
      <trkpt lat="47.493969" lon="7.824265">
        <ele>438.549529</ele>
        <time>2021-11-21T01:29:53.752Z</time>
      </trkpt>
      <trkpt lat="47.494072" lon="7.824126">
        <ele>438.187515</ele>
        <time>2021-11-21T01:29:56.167Z</time>
      </trkpt>
      <trkpt lat="47.494316" lon="7.823809">
        <ele>437.344301</ele>
        <time>2021-11-21T01:30:00.421Z</time>
      </trkpt>
      <trkpt lat="47.494522" lon="7.823673">
        <ele>437.078919</ele>
        <time>2021-11-21T01:30:02.837Z</time>
      </trkpt>
      <trkpt lat="47.494652" lon="7.823597">
        <ele>437.084711</ele>
        <time>2021-11-21T01:30:05.399Z</time>
      </trkpt>
      <trkpt lat="47.494910" lon="7.823403">
        <ele>437.096703</ele>
        <time>2021-11-21T01:30:09.021Z</time>
      </trkpt>
      <trkpt lat="47.494984" lon="7.823371">
        <ele>437.099898</ele>
        <time>2021-11-21T01:30:12.198Z</time>
      </trkpt>
      <trkpt lat="47.495379" lon="7.823313">
        <ele>437.116348</ele>
        <time>2021-11-21T01:30:18.956Z</time>
      </trkpt>
      <trkpt lat="47.495577" lon="7.823253">
        <ele>437.124723</ele>
        <time>2021-11-21T01:30:21.113Z</time>
      </trkpt>
      <trkpt lat="47.495873" lon="7.823177">
        <ele>437.137173</ele>
        <time>2021-11-21T01:30:25.187Z</time>
      </trkpt>
      <trkpt lat="47.496106" lon="7.823142">
        <ele>437.146878</ele>
        <time>2021-11-21T01:30:32.765Z</time>
      </trkpt>
      <trkpt lat="47.496254" lon="7.823140">
        <ele>436.951847</ele>
        <time>2021-11-21T01:30:34.139Z</time>
      </trkpt>
      <trkpt lat="47.496320" lon="7.823139">
        <ele>436.834671</ele>
        <time>2021-11-21T01:30:37.608Z</time>
      </trkpt>
      <trkpt lat="47.496375" lon="7.823140">
        <ele>436.737022</ele>
        <time>2021-11-21T01:30:40.336Z</time>
      </trkpt>
      <trkpt lat="47.496704" lon="7.823163">
        <ele>436.152297</ele>
        <time>2021-11-21T01:30:44.174Z</time>
      </trkpt>
      <trkpt lat="47.496927" lon="7.823151">
        <ele>435.756143</ele>
        <time>2021-11-21T01:30:46.320Z</time>
      </trkpt>
      <trkpt lat="47.497246" lon="7.823247">
        <ele>435.178234</ele>
        <time>2021-11-21T01:30:49.865Z</time>
      </trkpt>
      <trkpt lat="47.498162" lon="7.823883">
        <ele>432.125813</ele>
        <time>2021-11-21T01:31:00.665Z</time>
      </trkpt>
      <trkpt lat="47.498343" lon="7.824061">
        <ele>430.894633</ele>
        <time>2021-11-21T01:31:02.722Z</time>
      </trkpt>
      <trkpt lat="47.498586" lon="7.824227">
        <ele>429.378344</ele>
        <time>2021-11-21T01:31:05.280Z</time>
      </trkpt>
      <trkpt lat="47.499488" lon="7.824926">
        <ele>423.539163</ele>
        <time>2021-11-21T01:31:14.408Z</time>
      </trkpt>
      <trkpt lat="47.499602" lon="7.824975">
        <ele>422.559339</ele>
        <time>2021-11-21T01:31:15.449Z</time>
      </trkpt>
      <trkpt lat="47.499714" lon="7.825011">
        <ele>421.613347</ele>
        <time>2021-11-21T01:31:16.433Z</time>
      </trkpt>
      <trkpt lat="47.500062" lon="7.825087">
        <ele>418.709866</ele>
        <time>2021-11-21T01:31:19.528Z</time>
      </trkpt>
      <trkpt lat="47.500269" lon="7.825147">
        <ele>416.968841</ele>
        <time>2021-11-21T01:31:21.419Z</time>
      </trkpt>
      <trkpt lat="47.500385" lon="7.825189">
        <ele>415.983152</ele>
        <time>2021-11-21T01:31:22.442Z</time>
      </trkpt>
      <trkpt lat="47.501557" lon="7.825705">
        <ele>406.862666</ele>
        <time>2021-11-21T01:31:33.151Z</time>
      </trkpt>
      <trkpt lat="47.502825" lon="7.825809">
        <ele>399.745072</ele>
        <time>2021-11-21T01:31:45.060Z</time>
      </trkpt>
      <trkpt lat="47.503143" lon="7.825808">
        <ele>398.600463</ele>
        <time>2021-11-21T01:31:48.289Z</time>
      </trkpt>
      <trkpt lat="47.503195" lon="7.825807">
        <ele>398.521305</ele>
        <time>2021-11-21T01:31:48.858Z</time>
      </trkpt>
      <trkpt lat="47.503225" lon="7.825809">
        <ele>398.475595</ele>
        <time>2021-11-21T01:31:49.190Z</time>
      </trkpt>
      <trkpt lat="47.503509" lon="7.825771">
        <ele>398.041544</ele>
        <time>2021-11-21T01:31:52.210Z</time>
      </trkpt>
      <trkpt lat="47.503860" lon="7.825735">
        <ele>397.505991</ele>
        <time>2021-11-21T01:31:56.142Z</time>
      </trkpt>
      <trkpt lat="47.504813" lon="7.825703">
        <ele>396.104373</ele>
        <time>2021-11-21T01:32:08.751Z</time>
      </trkpt>
      <trkpt lat="47.506147" lon="7.825028">
        <ele>396.290892</ele>
        <time>2021-11-21T01:32:31.845Z</time>
      </trkpt>
      <trkpt lat="47.507017" lon="7.824678">
        <ele>395.238081</ele>
        <time>2021-11-21T01:32:45.422Z</time>
      </trkpt>
      <trkpt lat="47.507990" lon="7.824326">
        <ele>393.206617</ele>
        <time>2021-11-21T01:32:56.205Z</time>
      </trkpt>
      <trkpt lat="47.508288" lon="7.824180">
        <ele>392.338383</ele>
        <time>2021-11-21T01:32:59.287Z</time>
      </trkpt>
      <trkpt lat="47.509075" lon="7.823456">
        <ele>386.846495</ele>
        <time>2021-11-21T01:33:07.814Z</time>
      </trkpt>
      <trkpt lat="47.509744" lon="7.823275">
        <ele>382.815592</ele>
        <time>2021-11-21T01:33:13.889Z</time>
      </trkpt>
      <trkpt lat="47.510203" lon="7.823212">
        <ele>380.336636</ele>
        <time>2021-11-21T01:33:18.109Z</time>
      </trkpt>
      <trkpt lat="47.510706" lon="7.823221">
        <ele>377.743037</ele>
        <time>2021-11-21T01:33:22.750Z</time>
      </trkpt>
      <trkpt lat="47.511863" lon="7.823271">
        <ele>372.424820</ele>
        <time>2021-11-21T01:33:33.793Z</time>
      </trkpt>
      <trkpt lat="47.512067" lon="7.823229">
        <ele>372.066183</ele>
        <time>2021-11-21T01:33:36.009Z</time>
      </trkpt>
      <trkpt lat="47.512263" lon="7.823167">
        <ele>371.717191</ele>
        <time>2021-11-21T01:33:38.142Z</time>
      </trkpt>
      <trkpt lat="47.512648" lon="7.822935">
        <ele>370.993400</ele>
        <time>2021-11-21T01:33:42.969Z</time>
      </trkpt>
      <trkpt lat="47.513483" lon="7.822231">
        <ele>369.325778</ele>
        <time>2021-11-21T01:33:55.978Z</time>
      </trkpt>
      <trkpt lat="47.514302" lon="7.821660">
        <ele>367.778305</ele>
        <time>2021-11-21T01:34:07.464Z</time>
      </trkpt>
      <trkpt lat="47.514708" lon="7.821376">
        <ele>367.010720</ele>
        <time>2021-11-21T01:34:12.112Z</time>
      </trkpt>
      <trkpt lat="47.514821" lon="7.821292">
        <ele>366.794576</ele>
        <time>2021-11-21T01:34:13.447Z</time>
      </trkpt>
      <trkpt lat="47.515036" lon="7.821090">
        <ele>366.030301</ele>
        <time>2021-11-21T01:34:15.958Z</time>
      </trkpt>
      <trkpt lat="47.515202" lon="7.820909">
        <ele>365.068488</ele>
        <time>2021-11-21T01:34:18.032Z</time>
      </trkpt>
      <trkpt lat="47.515268" lon="7.820836">
        <ele>364.684136</ele>
        <time>2021-11-21T01:34:18.783Z</time>
      </trkpt>
      <trkpt lat="47.515469" lon="7.820644">
        <ele>363.568155</ele>
        <time>2021-11-21T01:34:21.156Z</time>
      </trkpt>
      <trkpt lat="47.515587" lon="7.820532">
        <ele>362.914224</ele>
        <time>2021-11-21T01:34:22.438Z</time>
      </trkpt>
      <trkpt lat="47.516786" lon="7.819655">
        <ele>357.159549</ele>
        <time>2021-11-21T01:34:34.894Z</time>
      </trkpt>
      <trkpt lat="47.517657" lon="7.818442">
        <ele>353.403630</ele>
        <time>2021-11-21T01:34:47.312Z</time>
      </trkpt>
      <trkpt lat="47.518035" lon="7.818005">
        <ele>352.116633</ele>
        <time>2021-11-21T01:34:52.703Z</time>
      </trkpt>
      <trkpt lat="47.518220" lon="7.817823">
        <ele>351.669446</ele>
        <time>2021-11-21T01:34:55.236Z</time>
      </trkpt>
      <trkpt lat="47.518481" lon="7.817598">
        <ele>351.061388</ele>
        <time>2021-11-21T01:34:58.686Z</time>
      </trkpt>
      <trkpt lat="47.518941" lon="7.817228">
        <ele>350.007420</ele>
        <time>2021-11-21T01:35:04.482Z</time>
      </trkpt>
      <trkpt lat="47.519453" lon="7.816861">
        <ele>348.851991</ele>
        <time>2021-11-21T01:35:10.673Z</time>
      </trkpt>
      <trkpt lat="47.519807" lon="7.816661">
        <ele>347.777082</ele>
        <time>2021-11-21T01:35:14.609Z</time>
      </trkpt>
      <trkpt lat="47.519959" lon="7.816575">
        <ele>347.315455</ele>
        <time>2021-11-21T01:35:16.343Z</time>
      </trkpt>
      <trkpt lat="47.520002" lon="7.816556">
        <ele>347.188150</ele>
        <time>2021-11-21T01:35:16.787Z</time>
      </trkpt>
      <trkpt lat="47.520578" lon="7.816306">
        <ele>345.485300</ele>
        <time>2021-11-21T01:35:22.913Z</time>
      </trkpt>
      <trkpt lat="47.521028" lon="7.816163">
        <ele>344.179594</ele>
        <time>2021-11-21T01:35:27.639Z</time>
      </trkpt>
      <trkpt lat="47.521087" lon="7.816144">
        <ele>344.008300</ele>
        <time>2021-11-21T01:35:28.199Z</time>
      </trkpt>
      <trkpt lat="47.521199" lon="7.816108">
        <ele>343.690067</ele>
        <time>2021-11-21T01:35:29.402Z</time>
      </trkpt>
      <trkpt lat="47.521383" lon="7.816075">
        <ele>343.200169</ele>
        <time>2021-11-21T01:35:31.368Z</time>
      </trkpt>
      <trkpt lat="47.521699" lon="7.816019">
        <ele>342.358967</ele>
        <time>2021-11-21T01:35:34.655Z</time>
      </trkpt>
      <trkpt lat="47.521870" lon="7.815989">
        <ele>341.903824</ele>
        <time>2021-11-21T01:35:36.410Z</time>
      </trkpt>
      <trkpt lat="47.522090" lon="7.815952">
        <ele>341.318588</ele>
        <time>2021-11-21T01:35:38.899Z</time>
      </trkpt>
      <trkpt lat="47.523608" lon="7.815695">
        <ele>337.315092</ele>
        <time>2021-11-21T01:35:54.965Z</time>
      </trkpt>
      <trkpt lat="47.523730" lon="7.815653">
        <ele>336.990643</ele>
        <time>2021-11-21T01:35:56.276Z</time>
      </trkpt>
      <trkpt lat="47.523757" lon="7.815629">
        <ele>336.909071</ele>
        <time>2021-11-21T01:35:56.559Z</time>
      </trkpt>
      <trkpt lat="47.523836" lon="7.814923">
        <ele>335.657283</ele>
        <time>2021-11-21T01:36:01.792Z</time>
      </trkpt>
      <trkpt lat="47.523994" lon="7.814691">
        <ele>335.080920</ele>
        <time>2021-11-21T01:36:04.080Z</time>
      </trkpt>
      <trkpt lat="47.524032" lon="7.814643">
        <ele>334.951542</ele>
        <time>2021-11-21T01:36:04.591Z</time>
      </trkpt>
      <trkpt lat="47.524286" lon="7.814362">
        <ele>334.194739</ele>
        <time>2021-11-21T01:36:07.924Z</time>
      </trkpt>
      <trkpt lat="47.524601" lon="7.814100">
        <ele>333.509474</ele>
        <time>2021-11-21T01:36:11.699Z</time>
      </trkpt>
      <trkpt lat="47.524645" lon="7.814069">
        <ele>333.417054</ele>
        <time>2021-11-21T01:36:12.224Z</time>
      </trkpt>
      <trkpt lat="47.524963" lon="7.813836">
        <ele>332.744099</ele>
        <time>2021-11-21T01:36:16.161Z</time>
      </trkpt>
      <trkpt lat="47.524982" lon="7.813822">
        <ele>332.703846</ele>
        <time>2021-11-21T01:36:16.401Z</time>
      </trkpt>
      <trkpt lat="47.525103" lon="7.813754">
        <ele>332.458370</ele>
        <time>2021-11-21T01:36:17.887Z</time>
      </trkpt>
      <trkpt lat="47.525265" lon="7.813766">
        <ele>332.150713</ele>
        <time>2021-11-21T01:36:19.606Z</time>
      </trkpt>
      <trkpt lat="47.525640" lon="7.813941">
        <ele>331.404954</ele>
        <time>2021-11-21T01:36:24.148Z</time>
      </trkpt>
      <trkpt lat="47.525829" lon="7.814027">
        <ele>331.029928</ele>
        <time>2021-11-21T01:36:26.485Z</time>
      </trkpt>
      <trkpt lat="47.525874" lon="7.814072">
        <ele>330.958584</ele>
        <time>2021-11-21T01:36:27.101Z</time>
      </trkpt>
      <trkpt lat="47.526135" lon="7.814494">
        <ele>330.938358</ele>
        <time>2021-11-21T01:36:31.757Z</time>
      </trkpt>
      <trkpt lat="47.526394" lon="7.814809">
        <ele>330.920816</ele>
        <time>2021-11-21T01:36:36.075Z</time>
      </trkpt>
      <trkpt lat="47.526478" lon="7.814853">
        <ele>330.916153</ele>
        <time>2021-11-21T01:36:37.328Z</time>
      </trkpt>
      <trkpt lat="47.526579" lon="7.814859">
        <ele>330.910862</ele>
        <time>2021-11-21T01:36:38.884Z</time>
      </trkpt>
      <trkpt lat="47.526655" lon="7.814822">
        <ele>330.906675</ele>
        <time>2021-11-21T01:36:40.000Z</time>
      </trkpt>
      <trkpt lat="47.526665" lon="7.814850">
        <ele>330.905555</ele>
        <time>2021-11-21T01:36:40.281Z</time>
      </trkpt>
      <trkpt lat="47.527105" lon="7.815211">
        <ele>330.879227</ele>
        <time>2021-11-21T01:36:48.597Z</time>
      </trkpt>
      <trkpt lat="47.527153" lon="7.815269">
        <ele>330.875985</ele>
        <time>2021-11-21T01:36:49.779Z</time>
      </trkpt>
      <trkpt lat="47.527206" lon="7.815349">
        <ele>330.872024</ele>
        <time>2021-11-21T01:36:51.383Z</time>
      </trkpt>
      <trkpt lat="47.527292" lon="7.815550">
        <ele>330.928206</ele>
        <time>2021-11-21T01:36:54.412Z</time>
      </trkpt>
      <trkpt lat="47.527320" lon="7.815661">
        <ele>331.080768</ele>
        <time>2021-11-21T01:36:56.159Z</time>
      </trkpt>
      <trkpt lat="47.527346" lon="7.815799">
        <ele>331.265233</ele>
        <time>2021-11-21T01:36:58.334Z</time>
      </trkpt>
      <trkpt lat="47.527361" lon="7.815943">
        <ele>331.452829</ele>
        <time>2021-11-21T01:37:00.376Z</time>
      </trkpt>
      <trkpt lat="47.527362" lon="7.815959">
        <ele>331.473517</ele>
        <time>2021-11-21T01:37:00.588Z</time>
      </trkpt>
      <trkpt lat="47.527366" lon="7.816038">
        <ele>331.575517</ele>
        <time>2021-11-21T01:37:01.659Z</time>
      </trkpt>
      <trkpt lat="47.527376" lon="7.816175">
        <ele>331.752935</ele>
        <time>2021-11-21T01:37:03.708Z</time>
      </trkpt>
      <trkpt lat="47.527388" lon="7.816407">
        <ele>332.052515</ele>
        <time>2021-11-21T01:37:07.411Z</time>
      </trkpt>
      <trkpt lat="47.527432" lon="7.817173">
        <ele>333.042317</ele>
        <time>2021-11-21T01:37:19.568Z</time>
      </trkpt>
      <trkpt lat="47.527471" lon="7.817746">
        <ele>333.783803</ele>
        <time>2021-11-21T01:37:29.042Z</time>
      </trkpt>
      <trkpt lat="47.527477" lon="7.817911">
        <ele>333.996551</ele>
        <time>2021-11-21T01:37:31.630Z</time>
      </trkpt>
      <trkpt lat="47.527477" lon="7.818068">
        <ele>334.198692</ele>
        <time>2021-11-21T01:37:33.824Z</time>
      </trkpt>
      <trkpt lat="47.527466" lon="7.818406">
        <ele>334.892621</ele>
        <time>2021-11-21T01:37:39.424Z</time>
      </trkpt>
      <trkpt lat="47.527455" lon="7.818544">
        <ele>335.207643</ele>
        <time>2021-11-21T01:37:41.168Z</time>
      </trkpt>
      <trkpt lat="47.527408" lon="7.818945">
        <ele>336.130316</ele>
        <time>2021-11-21T01:37:47.395Z</time>
      </trkpt>
      <trkpt lat="47.527349" lon="7.819451">
        <ele>337.294413</ele>
        <time>2021-11-21T01:37:55.691Z</time>
      </trkpt>
      <trkpt lat="47.527327" lon="7.819619">
        <ele>337.682371</ele>
        <time>2021-11-21T01:37:58.440Z</time>
      </trkpt>
      <trkpt lat="47.527283" lon="7.819942">
        <ele>338.429376</ele>
        <time>2021-11-21T01:38:05.451Z</time>
      </trkpt>
      <trkpt lat="47.527258" lon="7.820150">
        <ele>338.908332</ele>
        <time>2021-11-21T01:38:09.447Z</time>
      </trkpt>
      <trkpt lat="47.527223" lon="7.820442">
        <ele>339.580656</ele>
        <time>2021-11-21T01:38:16.727Z</time>
      </trkpt>
      <trkpt lat="47.527128" lon="7.821204">
        <ele>342.870948</ele>
        <time>2021-11-21T01:38:35.544Z</time>
      </trkpt>
      <trkpt lat="47.527202" lon="7.821239">
        <ele>343.530273</ele>
        <time>2021-11-21T01:38:39.380Z</time>
      </trkpt>
      <trkpt lat="47.527273" lon="7.821332">
        <ele>344.334770</ele>
        <time>2021-11-21T01:38:43.921Z</time>
      </trkpt>
      <trkpt lat="47.527330" lon="7.821475">
        <ele>345.286452</ele>
        <time>2021-11-21T01:38:49.178Z</time>
      </trkpt>
      <trkpt lat="47.527413" lon="7.821524">
        <ele>346.044821</ele>
        <time>2021-11-21T01:38:53.257Z</time>
      </trkpt>
      <trkpt lat="47.527485" lon="7.821570">
        <ele>346.710358</ele>
        <time>2021-11-21T01:38:57.220Z</time>
      </trkpt>
      <trkpt lat="47.527571" lon="7.821581">
        <ele>347.442997</ele>
        <time>2021-11-21T01:39:01.979Z</time>
      </trkpt>
      <trkpt lat="47.527826" lon="7.821632">
        <ele>349.626946</ele>
        <time>2021-11-21T01:39:16.035Z</time>
      </trkpt>
      <trkpt lat="47.528034" lon="7.821675">
        <ele>351.409455</ele>
        <time>2021-11-21T01:39:29.060Z</time>
      </trkpt>
      <trkpt lat="47.528543" lon="7.821686">
        <ele>355.787279</ele>
        <time>2021-11-21T01:40:01.717Z</time>
      </trkpt>
      <trkpt lat="47.528891" lon="7.821754">
        <ele>360.073925</ele>
        <time>2021-11-21T01:40:25.635Z</time>
      </trkpt>
      <trkpt lat="47.529032" lon="7.821783">
        <ele>361.812358</ele>
        <time>2021-11-21T01:40:34.888Z</time>
      </trkpt>
      <trkpt lat="47.529177" lon="7.821813">
        <ele>363.600310</ele>
        <time>2021-11-21T01:40:43.820Z</time>
      </trkpt>
      <trkpt lat="47.529477" lon="7.821870">
        <ele>367.293970</ele>
        <time>2021-11-21T01:41:02.877Z</time>
      </trkpt>
      <trkpt lat="47.530546" lon="7.822037">
        <ele>380.360679</ele>
        <time>2021-11-21T01:42:13.982Z</time>
      </trkpt>
      <trkpt lat="47.530898" lon="7.822253">
        <ele>384.915203</ele>
        <time>2021-11-21T01:42:38.444Z</time>
      </trkpt>
      <trkpt lat="47.531187" lon="7.822513">
        <ele>388.957193</ele>
        <time>2021-11-21T01:43:02.020Z</time>
      </trkpt>
      <trkpt lat="47.531355" lon="7.822795">
        <ele>391.992497</ele>
        <time>2021-11-21T01:43:17.458Z</time>
      </trkpt>
      <trkpt lat="47.531388" lon="7.822898">
        <ele>392.912644</ele>
        <time>2021-11-21T01:43:24.433Z</time>
      </trkpt>
      <trkpt lat="47.531785" lon="7.824131">
        <ele>401.803480</ele>
        <time>2021-11-21T01:44:13.630Z</time>
      </trkpt>
      <trkpt lat="47.531817" lon="7.824286">
        <ele>402.538668</ele>
        <time>2021-11-21T01:44:21.386Z</time>
      </trkpt>
      <trkpt lat="47.531766" lon="7.824396">
        <ele>403.143920</ele>
        <time>2021-11-21T01:44:25.682Z</time>
      </trkpt>
      <trkpt lat="47.531554" lon="7.824738">
        <ele>405.249813</ele>
        <time>2021-11-21T01:44:39.403Z</time>
      </trkpt>
      <trkpt lat="47.531216" lon="7.825253">
        <ele>408.507534</ele>
        <time>2021-11-21T01:44:52.736Z</time>
      </trkpt>
      <trkpt lat="47.530870" lon="7.825910">
        <ele>411.881014</ele>
        <time>2021-11-21T01:45:12.961Z</time>
      </trkpt>
      <trkpt lat="47.530680" lon="7.826915">
        <ele>414.927314</ele>
        <time>2021-11-21T01:45:32.611Z</time>
      </trkpt>
      <trkpt lat="47.530663" lon="7.827082">
        <ele>415.420277</ele>
        <time>2021-11-21T01:45:34.292Z</time>
      </trkpt>
      <trkpt lat="47.530711" lon="7.827258">
        <ele>415.974326</ele>
        <time>2021-11-21T01:45:40.484Z</time>
      </trkpt>
      <trkpt lat="47.530778" lon="7.827416">
        <ele>416.518921</ele>
        <time>2021-11-21T01:45:43.854Z</time>
      </trkpt>
      <trkpt lat="47.530910" lon="7.827537">
        <ele>417.190016</ele>
        <time>2021-11-21T01:45:47.978Z</time>
      </trkpt>
      <trkpt lat="47.531513" lon="7.827959">
        <ele>420.590831</ele>
        <time>2021-11-21T01:46:11.988Z</time>
      </trkpt>
      <trkpt lat="47.531664" lon="7.828061">
        <ele>421.631461</ele>
        <time>2021-11-21T01:46:21.099Z</time>
      </trkpt>
      <trkpt lat="47.532092" lon="7.828536">
        <ele>424.984944</ele>
        <time>2021-11-21T01:46:42.613Z</time>
      </trkpt>
      <trkpt lat="47.532197" lon="7.828652">
        <ele>425.806299</ele>
        <time>2021-11-21T01:46:47.781Z</time>
      </trkpt>
      <trkpt lat="47.532227" lon="7.828686">
        <ele>426.043159</ele>
        <time>2021-11-21T01:46:49.949Z</time>
      </trkpt>
      <trkpt lat="47.532741" lon="7.829861">
        <ele>431.952819</ele>
        <time>2021-11-21T01:47:27.275Z</time>
      </trkpt>
      <trkpt lat="47.533138" lon="7.830624">
        <ele>435.990492</ele>
        <time>2021-11-21T01:47:51.650Z</time>
      </trkpt>
      <trkpt lat="47.533172" lon="7.830741">
        <ele>436.524400</ele>
        <time>2021-11-21T01:47:55.350Z</time>
      </trkpt>
      <trkpt lat="47.533205" lon="7.830904">
        <ele>437.237677</ele>
        <time>2021-11-21T01:47:59.383Z</time>
      </trkpt>
      <trkpt lat="47.533248" lon="7.831080">
        <ele>438.022204</ele>
        <time>2021-11-21T01:48:03.575Z</time>
      </trkpt>
      <trkpt lat="47.533464" lon="7.831485">
        <ele>440.185525</ele>
        <time>2021-11-21T01:48:17.159Z</time>
      </trkpt>
      <trkpt lat="47.533503" lon="7.831541">
        <ele>440.522746</ele>
        <time>2021-11-21T01:48:19.947Z</time>
      </trkpt>
      <trkpt lat="47.533606" lon="7.831667">
        <ele>441.352091</ele>
        <time>2021-11-21T01:48:25.690Z</time>
      </trkpt>
      <trkpt lat="47.533641" lon="7.831715">
        <ele>441.678086</ele>
        <time>2021-11-21T01:48:27.376Z</time>
      </trkpt>
      <trkpt lat="47.533685" lon="7.831757">
        <ele>442.037713</ele>
        <time>2021-11-21T01:48:30.030Z</time>
      </trkpt>
      <trkpt lat="47.533728" lon="7.831912">
        <ele>442.815001</ele>
        <time>2021-11-21T01:48:35.252Z</time>
      </trkpt>
      <trkpt lat="47.533787" lon="7.832819">
        <ele>447.041562</ele>
        <time>2021-11-21T01:49:05.583Z</time>
      </trkpt>
      <trkpt lat="47.533855" lon="7.833235">
        <ele>449.026906</ele>
        <time>2021-11-21T01:49:17.560Z</time>
      </trkpt>
      <trkpt lat="47.533862" lon="7.833372">
        <ele>449.664190</ele>
        <time>2021-11-21T01:49:24.720Z</time>
      </trkpt>
      <trkpt lat="47.534011" lon="7.833341">
        <ele>450.697900</ele>
        <time>2021-11-21T01:49:31.567Z</time>
      </trkpt>
      <trkpt lat="47.534141" lon="7.833324">
        <ele>451.594500</ele>
        <time>2021-11-21T01:49:35.399Z</time>
      </trkpt>
      <trkpt lat="47.534258" lon="7.833316">
        <ele>452.399170</ele>
        <time>2021-11-21T01:49:41.721Z</time>
      </trkpt>
      <trkpt lat="47.534536" lon="7.833350">
        <ele>453.823703</ele>
        <time>2021-11-21T01:49:49.766Z</time>
      </trkpt>
      <trkpt lat="47.534581" lon="7.833360">
        <ele>453.875874</ele>
        <time>2021-11-21T01:49:52.271Z</time>
      </trkpt>
      <trkpt lat="47.534869" lon="7.833423">
        <ele>454.209653</ele>
        <time>2021-11-21T01:49:59.802Z</time>
      </trkpt>
      <trkpt lat="47.535041" lon="7.833445">
        <ele>454.407588</ele>
        <time>2021-11-21T01:50:06.097Z</time>
      </trkpt>
      <trkpt lat="47.535301" lon="7.833465">
        <ele>454.706085</ele>
        <time>2021-11-21T01:50:12.661Z</time>
      </trkpt>
      <trkpt lat="47.535868" lon="7.833423">
        <ele>455.356974</ele>
        <time>2021-11-21T01:50:21.341Z</time>
      </trkpt>
      <trkpt lat="47.536091" lon="7.833355">
        <ele>455.618009</ele>
        <time>2021-11-21T01:50:23.999Z</time>
      </trkpt>
      <trkpt lat="47.536401" lon="7.833309">
        <ele>454.910632</ele>
        <time>2021-11-21T01:50:27.033Z</time>
      </trkpt>
      <trkpt lat="47.536644" lon="7.833357">
        <ele>453.598888</ele>
        <time>2021-11-21T01:50:29.374Z</time>
      </trkpt>
      <trkpt lat="47.536802" lon="7.833477">
        <ele>452.648813</ele>
        <time>2021-11-21T01:50:31.036Z</time>
      </trkpt>
      <trkpt lat="47.536897" lon="7.833599">
        <ele>451.976045</ele>
        <time>2021-11-21T01:50:32.189Z</time>
      </trkpt>
      <trkpt lat="47.537138" lon="7.834039">
        <ele>449.929289</ele>
        <time>2021-11-21T01:50:35.648Z</time>
      </trkpt>
      <trkpt lat="47.537707" lon="7.834801">
        <ele>445.724575</ele>
        <time>2021-11-21T01:50:42.662Z</time>
      </trkpt>
      <trkpt lat="47.538158" lon="7.835307">
        <ele>441.800059</ele>
        <time>2021-11-21T01:50:47.897Z</time>
      </trkpt>
      <trkpt lat="47.538222" lon="7.835464">
        <ele>440.941206</ele>
        <time>2021-11-21T01:50:49.027Z</time>
      </trkpt>
      <trkpt lat="47.538410" lon="7.837106">
        <ele>432.993151</ele>
        <time>2021-11-21T01:50:59.019Z</time>
      </trkpt>
      <trkpt lat="47.538505" lon="7.837464">
        <ele>430.699218</ele>
        <time>2021-11-21T01:51:01.305Z</time>
      </trkpt>
      <trkpt lat="47.538612" lon="7.837844">
        <ele>428.243886</ele>
        <time>2021-11-21T01:51:03.783Z</time>
      </trkpt>
      <trkpt lat="47.538712" lon="7.838169">
        <ele>426.113950</ele>
        <time>2021-11-21T01:51:05.899Z</time>
      </trkpt>
      <trkpt lat="47.538810" lon="7.838491">
        <ele>424.007606</ele>
        <time>2021-11-21T01:51:08.008Z</time>
      </trkpt>
      <trkpt lat="47.538837" lon="7.838580">
        <ele>423.425734</ele>
        <time>2021-11-21T01:51:08.589Z</time>
      </trkpt>
      <trkpt lat="47.538868" lon="7.838681">
        <ele>422.764099</ele>
        <time>2021-11-21T01:51:09.216Z</time>
      </trkpt>
      <trkpt lat="47.539226" lon="7.839805">
        <ele>414.848893</ele>
        <time>2021-11-21T01:51:16.431Z</time>
      </trkpt>
      <trkpt lat="47.539357" lon="7.840201">
        <ele>411.677412</ele>
        <time>2021-11-21T01:51:18.984Z</time>
      </trkpt>
      <trkpt lat="47.539459" lon="7.840353">
        <ele>410.136083</ele>
        <time>2021-11-21T01:51:20.233Z</time>
      </trkpt>
      <trkpt lat="47.539657" lon="7.840668">
        <ele>407.040732</ele>
        <time>2021-11-21T01:51:22.761Z</time>
      </trkpt>
      <trkpt lat="47.539702" lon="7.840734">
        <ele>406.366115</ele>
        <time>2021-11-21T01:51:23.295Z</time>
      </trkpt>
      <trkpt lat="47.540066" lon="7.841269">
        <ele>400.903481</ele>
        <time>2021-11-21T01:51:27.773Z</time>
      </trkpt>
      <trkpt lat="47.540168" lon="7.841414">
        <ele>399.397447</ele>
        <time>2021-11-21T01:51:28.949Z</time>
      </trkpt>
      <trkpt lat="47.540305" lon="7.841591">
        <ele>397.149998</ele>
        <time>2021-11-21T01:51:30.456Z</time>
      </trkpt>
      <trkpt lat="47.540531" lon="7.841825">
        <ele>393.436364</ele>
        <time>2021-11-21T01:51:32.742Z</time>
      </trkpt>
      <trkpt lat="47.540744" lon="7.841906">
        <ele>390.474624</ele>
        <time>2021-11-21T01:51:34.608Z</time>
      </trkpt>
      <trkpt lat="47.540817" lon="7.841934">
        <ele>389.459025</ele>
        <time>2021-11-21T01:51:35.236Z</time>
      </trkpt>
      <trkpt lat="47.541050" lon="7.841906">
        <ele>386.310634</ele>
        <time>2021-11-21T01:51:37.203Z</time>
      </trkpt>
      <trkpt lat="47.541351" lon="7.841740">
        <ele>381.984890</ele>
        <time>2021-11-21T01:51:39.910Z</time>
      </trkpt>
      <trkpt lat="47.541409" lon="7.841671">
        <ele>380.983018</ele>
        <time>2021-11-21T01:51:40.517Z</time>
      </trkpt>
      <trkpt lat="47.541483" lon="7.841624">
        <ele>379.898630</ele>
        <time>2021-11-21T01:51:41.202Z</time>
      </trkpt>
      <trkpt lat="47.541583" lon="7.841568">
        <ele>378.458791</ele>
        <time>2021-11-21T01:51:42.085Z</time>
      </trkpt>
      <trkpt lat="47.542097" lon="7.841420">
        <ele>371.811963</ele>
        <time>2021-11-21T01:51:46.456Z</time>
      </trkpt>
      <trkpt lat="47.542339" lon="7.841424">
        <ele>368.991984</ele>
        <time>2021-11-21T01:51:48.474Z</time>
      </trkpt>
      <trkpt lat="47.542781" lon="7.841430">
        <ele>363.841549</ele>
        <time>2021-11-21T01:51:52.178Z</time>
      </trkpt>
      <trkpt lat="47.542795" lon="7.841432">
        <ele>363.677663</ele>
        <time>2021-11-21T01:51:52.300Z</time>
      </trkpt>
      <trkpt lat="47.542890" lon="7.841434">
        <ele>362.570603</ele>
        <time>2021-11-21T01:51:53.102Z</time>
      </trkpt>
      <trkpt lat="47.543032" lon="7.841467">
        <ele>360.895772</ele>
        <time>2021-11-21T01:51:54.304Z</time>
      </trkpt>
      <trkpt lat="47.543343" lon="7.841595">
        <ele>357.134717</ele>
        <time>2021-11-21T01:51:57.166Z</time>
      </trkpt>
      <trkpt lat="47.544480" lon="7.842116">
        <ele>347.442539</ele>
        <time>2021-11-21T01:52:07.661Z</time>
      </trkpt>
      <trkpt lat="47.544939" lon="7.842229">
        <ele>344.242967</ele>
        <time>2021-11-21T01:52:11.904Z</time>
      </trkpt>
      <trkpt lat="47.545011" lon="7.842239">
        <ele>343.745692</ele>
        <time>2021-11-21T01:52:12.542Z</time>
      </trkpt>
      <trkpt lat="47.546843" lon="7.842270">
        <ele>334.810947</ele>
        <time>2021-11-21T01:52:29.925Z</time>
      </trkpt>
      <trkpt lat="47.546951" lon="7.842267">
        <ele>334.341956</ele>
        <time>2021-11-21T01:52:31.018Z</time>
      </trkpt>
      <trkpt lat="47.547314" lon="7.842270">
        <ele>333.150885</ele>
        <time>2021-11-21T01:52:36.422Z</time>
      </trkpt>
      <trkpt lat="47.547448" lon="7.842262">
        <ele>333.006900</ele>
        <time>2021-11-21T01:52:38.476Z</time>
      </trkpt>
      <trkpt lat="47.547354" lon="7.842839">
        <ele>332.576747</ele>
        <time>2021-11-21T01:52:44.804Z</time>
      </trkpt>
      <trkpt lat="47.547313" lon="7.843735">
        <ele>331.925933</ele>
        <time>2021-11-21T01:52:55.485Z</time>
      </trkpt>
      <trkpt lat="47.547295" lon="7.844722">
        <ele>331.535745</ele>
        <time>2021-11-21T01:53:09.902Z</time>
      </trkpt>
      <trkpt lat="47.547274" lon="7.845536">
        <ele>332.359077</ele>
        <time>2021-11-21T01:53:23.354Z</time>
      </trkpt>
      <trkpt lat="47.547124" lon="7.848795">
        <ele>336.212749</ele>
        <time>2021-11-21T01:54:25.508Z</time>
      </trkpt>
      <trkpt lat="47.547143" lon="7.849985">
        <ele>337.759365</ele>
        <time>2021-11-21T01:54:48.360Z</time>
      </trkpt>
      <trkpt lat="47.547141" lon="7.850355">
        <ele>338.071591</ele>
        <time>2021-11-21T01:54:55.460Z</time>
      </trkpt>
      <trkpt lat="47.546945" lon="7.851719">
        <ele>339.248366</ele>
        <time>2021-11-21T01:55:19.992Z</time>
      </trkpt>
      <trkpt lat="47.546582" lon="7.856413">
        <ele>340.671331</ele>
        <time>2021-11-21T01:56:28.304Z</time>
      </trkpt>
      <trkpt lat="47.546537" lon="7.857497">
        <ele>340.854087</ele>
        <time>2021-11-21T01:56:43.612Z</time>
      </trkpt>
      <trkpt lat="47.546487" lon="7.859119">
        <ele>341.207707</ele>
        <time>2021-11-21T01:57:07.060Z</time>
      </trkpt>
      <trkpt lat="47.546526" lon="7.861665">
        <ele>341.213213</ele>
        <time>2021-11-21T01:57:44.234Z</time>
      </trkpt>
      <trkpt lat="47.546592" lon="7.863006">
        <ele>340.883276</ele>
        <time>2021-11-21T01:58:00.701Z</time>
      </trkpt>
      <trkpt lat="47.546877" lon="7.864345">
        <ele>339.228533</ele>
        <time>2021-11-21T01:58:15.870Z</time>
      </trkpt>
      <trkpt lat="47.546885" lon="7.864500">
        <ele>339.033744</ele>
        <time>2021-11-21T01:58:17.550Z</time>
      </trkpt>
      <trkpt lat="47.546894" lon="7.864837">
        <ele>338.611136</ele>
        <time>2021-11-21T01:58:21.029Z</time>
      </trkpt>
      <trkpt lat="47.546889" lon="7.865225">
        <ele>338.124865</ele>
        <time>2021-11-21T01:58:25.150Z</time>
      </trkpt>
      <trkpt lat="47.546819" lon="7.865489">
        <ele>337.769451</ele>
        <time>2021-11-21T01:58:28.228Z</time>
      </trkpt>
      <trkpt lat="47.546510" lon="7.865766">
        <ele>337.203209</ele>
        <time>2021-11-21T01:58:33.922Z</time>
      </trkpt>
      <trkpt lat="47.546327" lon="7.865959">
        <ele>336.889725</ele>
        <time>2021-11-21T01:58:37.253Z</time>
      </trkpt>
      <trkpt lat="47.546096" lon="7.866147">
        <ele>336.521917</ele>
        <time>2021-11-21T01:58:41.319Z</time>
      </trkpt>
      <trkpt lat="47.545240" lon="7.866887">
        <ele>335.138831</ele>
        <time>2021-11-21T01:58:57.993Z</time>
      </trkpt>
      <trkpt lat="47.545160" lon="7.866985">
        <ele>335.019246</ele>
        <time>2021-11-21T01:58:59.949Z</time>
      </trkpt>
      <trkpt lat="47.545003" lon="7.867278">
        <ele>335.269897</ele>
        <time>2021-11-21T01:59:05.617Z</time>
      </trkpt>
      <trkpt lat="47.544568" lon="7.867693">
        <ele>335.783467</ele>
        <time>2021-11-21T01:59:18.408Z</time>
      </trkpt>
      <trkpt lat="47.544469" lon="7.867776">
        <ele>335.896380</ele>
        <time>2021-11-21T01:59:21.270Z</time>
      </trkpt>
      <trkpt lat="47.544410" lon="7.867825">
        <ele>335.963519</ele>
        <time>2021-11-21T01:59:23.358Z</time>
      </trkpt>
      <trkpt lat="47.544246" lon="7.867967">
        <ele>336.152071</ele>
        <time>2021-11-21T01:59:28.042Z</time>
      </trkpt>
      <trkpt lat="47.544214" lon="7.867988">
        <ele>336.186812</ele>
        <time>2021-11-21T01:59:28.890Z</time>
      </trkpt>
      <trkpt lat="47.543801" lon="7.868269">
        <ele>336.637927</ele>
        <time>2021-11-21T01:59:40.493Z</time>
      </trkpt>
      <trkpt lat="47.543657" lon="7.868359">
        <ele>336.793063</ele>
        <time>2021-11-21T01:59:44.842Z</time>
      </trkpt>
      <trkpt lat="47.543201" lon="7.868657">
        <ele>336.794083</ele>
        <time>2021-11-21T01:59:55.043Z</time>
      </trkpt>
      <trkpt lat="47.543105" lon="7.868711">
        <ele>336.794083</ele>
        <time>2021-11-21T01:59:57.627Z</time>
      </trkpt>
      <trkpt lat="47.543049" lon="7.868759">
        <ele>336.794083</ele>
        <time>2021-11-21T01:59:59.004Z</time>
      </trkpt>
      <trkpt lat="47.542722" lon="7.869201">
        <ele>336.794083</ele>
        <time>2021-11-21T02:00:08.850Z</time>
      </trkpt>
      <trkpt lat="47.542696" lon="7.869257">
        <ele>336.794083</ele>
        <time>2021-11-21T02:00:09.686Z</time>
      </trkpt>
      <trkpt lat="47.542657" lon="7.869354">
        <ele>336.794083</ele>
        <time>2021-11-21T02:00:11.140Z</time>
      </trkpt>
      <trkpt lat="47.542372" lon="7.869746">
        <ele>336.794083</ele>
        <time>2021-11-21T02:00:18.314Z</time>
      </trkpt>
      <trkpt lat="47.542329" lon="7.869820">
        <ele>336.794083</ele>
        <time>2021-11-21T02:00:19.538Z</time>
      </trkpt>
      <trkpt lat="47.542348" lon="7.869983">
        <ele>336.794083</ele>
        <time>2021-11-21T02:00:21.184Z</time>
      </trkpt>
      <trkpt lat="47.542317" lon="7.870012">
        <ele>336.794083</ele>
        <time>2021-11-21T02:00:21.846Z</time>
      </trkpt>
      <trkpt lat="47.542181" lon="7.870131">
        <ele>336.794083</ele>
        <time>2021-11-21T02:00:24.319Z</time>
      </trkpt>
      <trkpt lat="47.542118" lon="7.870135">
        <ele>336.794083</ele>
        <time>2021-11-21T02:00:25.373Z</time>
      </trkpt>
      <trkpt lat="47.542014" lon="7.870126">
        <ele>336.794083</ele>
        <time>2021-11-21T02:00:26.804Z</time>
      </trkpt>
      <trkpt lat="47.541910" lon="7.870106">
        <ele>336.794083</ele>
        <time>2021-11-21T02:00:28.348Z</time>
      </trkpt>
      <trkpt lat="47.541749" lon="7.870274">
        <ele>336.794083</ele>
        <time>2021-11-21T02:00:31.078Z</time>
      </trkpt>
    </trkseg>
  </trk>
</gpx>